[[{"header":{"parameterUnit":"m.s-1","parameterCategory":1,"la1":31.0,"la2":29.5877,"lo1":-88.7671,"lo2":-86.6584,"dy":0.0162,"dx":0.0185,"nx":115,"ny":88,"refTime":"2023-05-10T06:00:00:Z","depth":0,"parameterNumber":2,"parameterNumberName":"U-component_of_WINDS"},"data":[0.0,0.0,0.0,0.0,0.0,0.0,0.0,0.0,0.0,0.0,0.0,0.0,0.0,0.0,0.0,0.0,0.0,0.0,0.0,0.0,0.0,0.0,0.0,0.0,0.0,0.0,0.0,0.0,0.0,0.0,0.0,0.0,0.0,0.0,0.0,0.0,0.0,0.0,0.0,0.0,0.0,0.0,0.0,0.0,0.0,0.0,0.0,0.0,0.0,0.0,0.0,0.0,0.0,0.0,0.0,0.0,0.0,0.0,0.0,0.0,0.0,0.0,0.0,0.0,0.0,0.0,0.0,0.0,0.0,0.0,0.0,0.0,0.0,0.0,0.0,0.0,0.0,0.0,0.0,0.0,0.0,0.0,0.0,0.0,0.0,0.0,0.0,0.0,0.0,0.0,0.0,0.0,0.0,0.0,0.0,0.0,0.0,0.0,0.0,0.0,0.0,0.0,0.0,0.0,0.0,0.0,0.0,0.0,0.0,0.0,0.0,0.0,0.0,0.0,0.0,0.0,0.0,0.0,0.0,0.0,0.0,0.0,0.0,0.0,0.0,0.0,0.0,0.0,0.0,0.0,0.0,0.0,0.0,0.0,0.0,0.0,0.0,0.0,0.0,0.0,0.0,0.0,0.0,0.0,0.0,0.0,0.0,0.0,0.0,0.0,0.0,0.0,0.0,0.0,0.0,0.0,0.0,0.0,0.0,0.0,0.0,0.0,0.0,0.0,0.0,0.0,0.0,0.0,0.0,0.0,0.0,0.0,0.0,0.0,0.0,0.0,0.0,0.0,0.0,0.0,0.0,0.0,0.0,0.0,0.0,0.0,0.0,0.0,0.0,0.0,0.0,0.0,0.0,0.0,0.0,0.0,0.0,0.0,0.0,0.0,0.0,0.0,0.0,0.0,0.0,0.0,0.0,0.0,0.0,0.0,0.0,0.0,0.0,0.0,0.0,0.0,0.0,0.0,0.0,0.0,0.0,0.0,0.0,0.0,0.0,0.0,0.0,0.0,0.0,0.0,0.0,0.0,0.0,0.0,0.0,0.0,0.0,0.0,0.0,0.0,0.0,0.0,0.0,0.0,0.0,0.0,0.0,0.0,0.0,0.0,0.0,0.0,0.0,0.0,0.0,0.0,0.0,0.0,0.0,0.0,0.0,0.0,0.0,0.0,0.0,0.0,0.0,0.0,0.0,0.0,0.0,0.0,0.0,0.0,0.0,0.0,0.0,0.0,0.0,0.0,0.0,0.0,0.0,0.0,0.0,0.0,0.0,0.0,0.0,0.0,0.0,0.0,0.0,0.0,0.0,0.0,0.0,0.0,0.0,0.0,0.0,0.0,0.0,0.0,0.0,0.0,0.0,0.0,0.0,0.0,0.0,0.0,0.0,0.0,0.0,0.0,0.0,0.0,0.0,0.0,0.0,0.0,0.0,0.0,0.0,0.0,0.0,0.0,0.0,0.0,0.0,0.0,0.0,0.0,0.0,0.0,0.0,0.0,0.0,0.0,0.0,0.0,0.0,0.0,0.0,0.0,0.0,0.0,0.0,0.0,0.0,0.0,0.0,0.0,0.0,0.0,0.0,0.0,0.0,0.0,0.0,0.0,0.0,0.0,0.0,0.0,0.0,0.0,0.0,0.0,0.0,0.0,0.0,0.0,0.0,0.0,0.0,0.0,0.0,0.0,0.0,0.0,0.0,0.0,0.0,0.0,0.0,0.0,0.0,0.0,0.0,0.0,0.0,0.0,0.0,0.0,0.0,0.0,0.0,0.0,0.0,0.0,0.0,0.0,0.0,0.0,0.0,0.0,0.0,0.0,0.0,0.0,0.0,0.0,0.0,0.0,0.0,0.0,0.0,0.0,0.0,0.0,0.0,0.0,0.0,0.0,0.0,0.0,0.0,0.0,0.0,0.0,0.0,0.0,0.0,0.0,0.0,0.0,0.0,0.0,0.0,0.0,0.0,0.0,0.0,0.0,0.0,0.0,0.0,0.0,0.0,0.0,0.0,0.0,0.0,0.0,0.0,0.0,0.0,0.0,0.0,0.0,0.0,0.0,0.0,0.0,0.0,0.0,0.0,0.0,0.0,0.0,0.0,0.0,0.0,0.0,0.0,0.0,0.0,0.0,0.0,0.0,0.0,0.0,0.0,0.0,0.0,0.0,0.0,0.0,0.0,0.0,0.0,0.0,0.0,0.0,0.0,0.0,0.0,0.0,0.0,0.0,0.0,0.0,0.0,0.0,0.0,0.0,0.0,0.0,0.0,0.0,0.0,0.0,0.0,0.0,0.0,0.0,0.0,0.0,0.0,0.0,0.0,0.0,0.0,0.0,0.0,0.0,0.0,0.0,0.0,0.0,0.0,0.0,0.0,0.0,0.0,0.0,0.0,0.0,0.0,0.0,0.0,0.0,0.0,0.0,0.0,0.0,0.0,0.0,0.0,0.0,0.0,0.0,0.0,0.0,0.0,0.0,0.0,0.0,0.0,0.0,0.0,0.0,0.0,0.0,0.0,0.0,0.0,0.0,0.0,0.0,0.0,0.0,0.0,0.0,0.0,0.0,0.0,0.0,0.0,0.0,0.0,0.0,0.0,0.0,0.0,0.0,0.0,0.0,0.0,0.0,0.0,0.0,0.0,0.0,0.0,0.0,0.0,0.0,0.0,0.0,0.0,0.0,0.0,0.0,0.0,0.0,0.0,0.0,0.0,0.0,0.0,0.0,0.0,0.0,0.0,0.0,0.0,0.0,0.0,0.0,0.0,0.0,0.0,0.0,0.0,0.0,0.0,0.0,0.0,0.0,0.0,0.0,0.0,0.0,0.0,0.0,0.0,0.0,0.0,0.0,0.0,0.0,0.0,0.0,0.0,0.0,0.0,0.0,0.0,0.0,0.0,0.0,0.0,0.0,0.0,0.0,0.0,0.0,0.0,0.0,0.0,0.0,0.0,0.0,0.0,0.0,0.0,0.0,0.0,0.0,0.0,0.0,0.0,0.0,0.0,0.0,0.0,0.0,0.0,0.0,0.0,0.0,0.0,0.0,0.0,0.0,0.0,0.0,0.0,0.0,0.0,0.0,0.0,0.0,0.0,0.0,0.0,0.0,0.0,0.0,0.0,0.0,0.0,0.0,0.0,0.0,0.0,0.0,0.0,0.0,0.0,0.0,0.0,0.0,0.0,0.0,0.0,0.0,0.0,0.0,0.0,0.0,0.0,0.0,0.0,0.0,0.0,0.0,0.0,0.0,0.0,0.0,0.0,0.0,0.0,0.0,0.0,0.0,0.0,0.0,0.0,0.0,0.0,0.0,0.0,0.0,0.0,0.0,0.0,0.0,0.0,0.0,0.0,0.0,0.0,0.0,0.0,0.0,0.0,0.0,0.0,0.0,0.0,0.0,0.0,0.0,0.0,0.0,0.0,0.0,0.0,0.0,0.0,0.0,0.0,0.0,0.0,0.0,0.0,0.0,0.0,0.0,0.0,0.0,0.0,0.0,0.0,0.0,0.0,0.0,0.0,0.0,0.0,0.0,0.0,0.0,0.0,0.0,0.0,0.0,0.0,0.0,0.0,0.0,0.0,0.0,0.0,0.0,0.0,0.0,0.0,0.0,0.0,0.0,0.0,0.0,0.0,0.0,0.0,0.0,0.0,0.0,0.0,0.0,0.0,0.0,0.0,0.0,0.0,0.0,0.0,0.0,0.0,0.0,0.0,0.0,0.0,0.0,0.0,0.0,0.0,0.0,0.0,0.0,0.0,0.0,0.0,0.0,0.0,0.0,0.0,0.0,0.0,0.0,0.0,0.0,0.0,0.0,0.0,0.0,0.0,0.0,0.0,0.0,0.0,0.0,0.0,0.0,0.0,0.0,0.0,0.0,0.0,0.0,0.0,0.0,0.0,0.0,0.0,0.0,0.0,0.0,0.0,0.0,0.0,0.0,0.0,0.0,0.0,0.0,0.0,0.0,0.0,0.0,0.0,0.0,0.0,0.0,0.0,0.0,0.0,0.0,0.0,0.0,0.0,0.0,0.0,0.0,0.0,0.0,0.0,0.0,0.0,0.0,0.0,0.0,0.0,0.0,0.0,0.0,0.0,0.0,0.0,0.0,0.0,0.0,0.0,0.0,0.0,0.0,0.0,0.0,0.0,0.0,0.0,0.0,0.0,0.0,0.0,0.0,0.0,0.0,0.0,0.0,0.0,0.0,0.0,0.0,0.0,0.0,0.0,0.0,0.0,0.0,0.0,0.0,0.0,0.0,0.0,0.0,0.0,0.0,0.0,0.0,-0.1151,0.0,0.0,0.0,0.0,0.0,0.0,0.0,0.0,0.0,0.0,0.0,0.0,0.0,0.0,0.0,0.0,0.0,0.0,0.0,0.0,0.0,0.0,0.0,0.0,0.0,0.0,0.0,0.0,0.0,0.0,0.0,0.0,0.0,0.0,0.0,0.0,0.0,0.0,0.0,0.0,0.0,0.0,0.0,0.0,0.0,0.0,0.0,0.0,0.0,0.0,0.0,0.0,0.0,0.0,0.0,0.0,0.0,0.0,0.0,0.0,0.0,0.0,0.0,0.0,0.0,0.0,0.0,0.0,0.0,0.0,0.0,0.0,0.0,0.0,0.0,0.0,0.0,0.0,0.0,0.0,0.0,0.0,0.0,0.0,0.0,0.0,0.0,0.0,0.0,0.0,0.0,0.0,0.0,0.0,0.0,0.0,0.0,0.0,0.0,0.0,0.0,0.0,0.0,0.0,0.0,0.0,0.0,0.0,0.0,0.0,-0.1095,-0.1182,-0.0725,-0.0642,-0.1007,0.0,0.0,0.0,0.0,0.0,0.0,0.0,0.0,0.0,0.0,0.0,0.0,0.0,0.0,0.0,0.0,0.0,0.0,0.0,0.0,0.0,0.0,0.0,0.0,0.0,0.0,0.0,0.0,0.0,0.0,0.0,0.0,0.0,0.0,0.0,0.0,0.0,0.0,0.0,0.0,0.0,0.0,0.0,0.0,0.0,0.0,0.0,0.0,0.0,0.0,0.0,0.0,0.0,0.0,0.0,0.0,0.0,0.0,0.0,0.0,0.0,0.0,0.0,0.0,0.0,0.0,0.0,0.0,0.0,0.0,0.0,0.0,0.0,0.0,0.0,0.0,0.0,0.0,0.0,0.0,0.0,0.0,0.0,0.0,0.0,0.0,0.0,0.0,0.0,0.0,0.0,0.0,0.0,0.0,0.0,0.0,0.0,0.0,0.0,0.0,0.0,0.0,0.0,0.0,0.0,0.0,0.0,0.0,0.0,0.0,0.0,0.0,-0.0672,-0.0562,-0.0844,0.0,0.0,0.0,0.0,0.0,0.0,0.0,0.0,0.0,0.0,0.0,0.0,0.0,0.0,0.0,0.0,0.0,0.0,0.0,0.0,0.0,0.0,0.0,0.0,0.0,0.0,0.0,0.0,0.0,0.0,0.0,0.0,0.0,0.0,0.0,0.0,0.0,0.0,0.0,0.0,0.0,0.0,0.0,0.0,0.0,0.0,0.0,0.0,0.0,0.0,0.0,0.0,0.0,0.0,0.0,0.0,0.0,0.0,0.0,0.0,0.0,0.0,0.0,0.0,0.0,0.0,0.0,0.0,0.0,0.0,0.0,0.0,0.0,0.0,0.0,0.0,0.0,0.0,0.0,0.0,0.0,0.0,0.0,0.0,0.0,0.0,0.0,0.0,0.0,0.0,0.0,0.0,0.0,0.0,0.0,0.0,0.0,0.0,0.0,0.0,0.0,0.0,0.0,0.0,0.0,0.0,0.0,0.0,0.0,0.0,-0.1138,-0.1276,-0.1111,0.0,-0.0809,0.0,0.0,0.0,0.0,0.0,0.0,0.0,0.0,0.0,0.0,0.0,0.0,0.0,0.0,0.0,0.0,0.0,0.0,0.0,0.0,0.0,0.0,0.0,0.0,0.0,0.0,0.0,0.0,0.0,0.0,0.0,0.0,0.0,0.0,0.0,0.0,0.0,0.0,0.0,0.0,0.0,0.0,0.0,0.0,0.0,0.0,0.0,0.0,0.0,0.0,0.0,0.0,0.0,0.0,0.0,0.0,0.0,0.0,0.0,0.0,0.0,0.0,0.0,0.0,0.0,0.0,0.0,0.0,0.0,0.0,0.0,0.0,0.0,0.0,0.0,0.0,0.0,0.0,0.0,0.0,0.0,0.0,0.0,0.0,0.0,0.0,0.0,0.0,0.0,0.0,0.0,0.0,0.0,0.0,0.0,0.0,0.0,0.0,0.0,0.0,0.0,0.0,0.0,0.0,0.0,0.0,0.0,0.0,0.0,0.0,-0.121,-0.1187,-0.1006,-0.0723,0.0,0.0,0.0,0.0,0.0,0.0,0.0,0.0,0.0,0.0,0.0,0.0,0.0,0.0,0.0,0.0,0.0,0.0,0.0,0.0,0.0,0.0,0.0,0.0,0.0,0.0,0.0,0.0,0.0,0.0,0.0,0.0,0.0,0.0,0.0,0.0,0.0,0.0,0.0,0.0,0.0,0.0,0.0,0.0,0.0,0.0,0.0,0.0,0.0,0.0,0.0,0.0,0.0,0.0,0.0,0.0,0.0,0.0,0.0,0.0,0.0,0.0,0.0,0.0,0.0,0.0,0.0,0.0,0.0,0.0,0.0,0.0,0.0,0.0,0.0,0.0,0.0,0.0,0.0,0.0,0.0,0.0,0.0,0.0,0.0,0.0,0.0,0.0,0.0,0.0,0.0,0.0,0.0,0.0,0.0,0.0,0.0,0.0,0.0,0.0,0.0,0.0,0.0,0.0,0.0,0.0,0.0,0.0,0.0,0.0,-0.1366,-0.1254,-0.1096,-0.0827,-0.0491,-0.0105,0.0,0.0,0.0,0.0,0.0,0.0,0.0,0.0,0.0,0.0,0.0,0.0,0.0,0.0,0.0,0.0,0.0,0.0,0.0,0.0,0.0,0.0,0.0,0.0,0.0,0.0,0.0,0.0,0.0,0.0,0.0,0.0,0.0,0.0,0.0,0.0,0.0,0.0,0.0,0.0,0.0,0.0,0.0,0.0,0.0,0.0,0.0,0.0,0.0,0.0,0.0,0.0,0.0,0.0,0.0,0.0,0.0,0.0,0.0,0.0,0.0,0.0,0.0,0.0,0.0,0.0,0.0,0.0,0.0,0.0,0.0,0.0,0.0,0.0,0.0,0.0,0.0,0.0,0.0,0.0,0.0,0.0,0.0,0.0,0.0,0.0,0.0,0.0,0.0,0.0,0.0,0.0,0.0,0.0,0.0,0.0,0.0,0.0,0.0,0.0,0.0,0.0,0.0,0.0,0.0,0.0,0.0,0.0,-0.1772,-0.1457,-0.1232,-0.1098,-0.0649,-0.0396,0.0,0.0,0.0,0.0,0.0,0.0,0.0,0.0,0.0,0.0,0.0,0.0,0.0,0.0,0.0,0.0,0.0,0.0,0.0,0.0,0.0,0.0,0.0,0.0,0.0,0.0,0.0,0.0,0.0,0.0,0.0,0.0,0.0,0.0,0.0,0.0,0.0,0.0,0.0,0.0,0.0,0.0,0.0,0.0,0.0,0.0,0.0,0.0,0.0,0.0,0.0,0.0,0.0,0.0,0.0,0.0,0.0,0.0,0.0,0.0,0.0,0.0,0.0,0.0,0.0,0.0,0.0,0.0,0.0,0.0,0.0,0.0,0.0,0.0,0.0,0.0,0.0,0.0,0.0,0.0,0.0,0.0,0.0,0.0,0.0,0.0,0.0,0.0,0.0,0.0,0.0,0.0,0.0,0.0,0.0,0.0,0.0,0.0,0.0,0.0,0.0,0.0,0.0,0.0,0.0,0.0,0.0,0.0,0.0,-0.1794,-0.1479,-0.121,-0.0985,-0.0651,-0.0312,0.0,0.0,0.0,0.0,0.0,0.0,0.0,0.0,0.0,0.0,0.0,0.0,0.0,0.0,0.0,0.0,0.0,0.0,0.0,0.0,0.0,0.0,0.0,0.0,0.0,0.0,0.0,0.0,0.0,0.0,0.0,0.0,0.0,0.0,0.0,0.0,0.0,0.0,0.0,0.0,0.0,0.0,0.0,0.0,0.0,0.0,0.0,0.0,0.0,0.0,0.0,0.0,0.0,0.0,0.0,0.0,0.0,0.0,0.0,0.0,0.0,0.0,0.0,0.0,0.0,0.0,0.0,0.0,0.0,0.0,0.0,0.0,0.0,0.0,0.0,0.0,0.0,0.0,0.0,0.0,0.0,0.0,0.0,0.0,0.0,0.0,0.0,0.0,0.0,0.0,0.0,0.0,0.0,0.0,0.0,0.0,0.0,0.0,0.0,0.0,0.0,0.0,0.0,0.0,0.0,0.0,0.0,0.0,0.0,-0.1919,0.0,-0.1265,0.0,-0.0737,-0.0366,0.0,0.0,0.0,0.0,0.0,0.0,0.0,0.0,0.0,0.0,0.0,0.0,0.0,0.0,0.0,0.0,0.0,0.0,0.0,0.0,0.0,0.0,0.0,0.0,0.0,0.0,0.0,0.0,0.0,0.0,0.0,0.0,0.0,0.0,0.0,0.0,0.0,0.0,0.0,0.0,0.0,0.0,0.0,0.0,0.0,0.0,0.0,0.0,0.0,0.0,0.0,0.0,0.0,0.0,0.0,0.0,0.0,0.0,0.0,0.0,0.0,0.0,0.0,0.0,0.0,0.0,0.0,0.0,0.0,0.0,0.0,0.0,0.0,0.0,0.0,0.0,0.0,0.0,0.0,0.0,0.0,0.0,0.0,0.0,0.0,0.0,0.0,0.0,0.0,0.0,0.0,0.0,0.0,0.0,0.0,0.0,0.0,0.0,0.0,0.0,0.0,0.0,0.0,0.0,0.0,0.0,0.0,0.0,-0.2498,-0.2095,-0.1716,-0.1478,-0.1383,-0.0873,-0.0523,0.0,0.0,0.0,0.0,0.0,0.0,0.0,0.0,0.0,0.0,0.0,0.0,0.0,0.0,0.0,0.0,0.0,0.0,0.0,0.0,0.0,0.0,0.0,0.0,0.0,0.0,0.0,0.0,0.0,0.0,0.0,0.0,0.0,0.0,0.0,0.0,0.0,0.0,0.0,0.0,0.0,0.0,0.0,0.0,0.0,0.0,0.0,0.0,0.0,0.0,0.0,0.0,0.0,0.0,0.0,0.0,0.0,0.0,0.0,0.0,0.0,0.0,0.0,0.0,0.0,0.0,0.0,0.0,0.0,0.0,0.0,0.0,0.0,0.0,0.0,0.0,0.0,0.0,0.0,0.0,0.0,0.0,0.0,0.0,0.0,0.0,0.0,0.0,0.0,0.0,0.0,0.0,0.0,0.0,0.0,0.0,0.0,0.0,0.0,0.0,0.0,0.0,0.0,0.0,0.0,0.0,0.0,0.0,0.0,-0.2526,-0.2033,-0.1819,-0.186,-0.1044,-0.0618,0.0,0.0,0.0,0.0,0.0,0.0,0.0,0.0,0.0,0.0,0.0,0.0,0.0,0.0,0.0,0.0,0.0,0.0,0.0,0.0,0.0,0.0,0.0,0.0,0.0,0.0,0.0,0.0,0.0,0.0,0.0,0.0,0.0,0.0,0.0,0.0,0.0,0.0,0.0,0.0,0.0,0.0,0.0,0.0,0.0,0.0,0.0,0.0,0.0,0.0,0.0,0.0,0.0,0.0,0.0,0.0,0.0,0.0,0.0,0.0,0.0,0.0,0.0,0.0,0.0,0.0,0.0,0.0,0.0,0.0,0.0,0.0,0.0,0.0,0.0,0.0,0.0,0.0,0.0,0.0,0.0,0.0,0.0,0.0,0.0,0.0,0.0,0.0,0.0,0.0,0.0,0.0,0.0,0.0,0.0,0.0,0.0,0.0,0.0,0.0,0.0,0.0,0.0,0.0,0.0,0.0,0.0,0.0,0.0,-0.4102,-0.3339,-0.2957,-0.2963,-0.2161,-0.1472,-0.0851,0.0,0.0,0.0,0.0,0.0,0.0,0.0,0.0,0.0,0.0,0.0,0.0,0.0,0.0,0.0,0.0,0.0,0.0,0.0,0.0,0.0,0.0,0.0,0.0,0.0,0.0,0.0,0.0,0.0,0.0,0.0,0.0,0.0,0.0,0.0,0.0,0.0,0.0,0.0,0.0,0.0,0.0,0.0,0.0,0.0,0.0,0.0,0.0,0.0,0.0,0.0,0.0,0.0,0.0,0.0,0.0,0.0,0.0,0.0,0.0,0.0,0.0,0.0,0.0,0.0,0.0,0.0,0.0,0.0,0.0,0.0,0.0,0.0,0.0,0.0,0.0,0.0,0.0,0.0,0.0,0.0,0.0,0.0,0.0,0.0,0.0,0.0,0.0,0.0,0.0,0.0,0.0,0.0,0.0,0.0,0.0,0.0,0.0,0.0,0.0,0.0,0.0,0.0,0.0,0.0,0.0,0.0,0.0,-0.6632,-0.5597,-0.4918,-0.4633,-0.4026,-0.2953,0.0,0.0,0.0,0.0,0.0,0.0,0.0,0.0,0.0,0.0,0.0,0.0,0.0,0.0,0.0,0.0,0.0,0.0,0.0,0.0,0.0,0.0,0.0,0.0,0.0,0.0,0.0,0.0,0.0,0.0,0.0,0.0,0.0,0.0,0.0,0.0,0.0,0.0,0.0,0.0,0.0,0.0,0.0,0.0,0.0,0.0,0.0,0.0,0.0,0.0,0.0,0.0,0.0,0.0,0.0,0.0,0.0,0.0,0.0,0.0,0.0,0.0,0.0,0.0,0.0,0.0,0.0,0.0,0.0,0.0,0.0,0.0,0.0,0.0,0.0,0.0,0.0,0.0,0.0,0.0,0.0,0.0,0.0,0.0,0.0,0.0,0.0,0.0,0.0,0.0,0.0,0.0,0.0,0.0,0.0,0.0,0.0,0.0,0.0,0.0,0.0,0.0,0.0,0.0,0.0,0.0,0.0,0.0,0.0,-0.8248,-0.8979,-0.868,-0.7231,-0.5213,-0.3844,0.0,0.0,0.0,0.0,0.0,0.0,0.0,0.0,0.0,0.0,0.0,0.0,0.0,0.0,0.0,0.0,0.0,0.0,0.0,0.0,0.0,0.0,0.0,0.0,0.0,0.0,0.0,0.0,0.0,0.0,0.0,0.0,0.0,0.0,0.0,0.0,0.0,0.0,0.0,0.0,0.0,0.0,0.0,0.0,0.0,0.0,0.0,0.0,0.0,0.0,0.0,0.0,0.0,0.0,0.0,0.0,0.0,0.0,0.0,0.0,0.0,0.0,0.0,0.0,0.0,0.0,0.0,0.0,0.0,0.0,0.0,0.0,0.0,0.0,0.0,0.0,0.0,0.0,0.0,0.0,0.0,0.0,0.0,0.0,0.0,0.0,0.0,0.0,0.0,0.0,0.0,0.0,0.0,0.0,0.0,0.0,0.0,0.0,0.0,0.0,0.0,0.0,0.0,0.0,0.0,0.0,0.0,0.0,-0.861,-0.9251,-1.136,-1.1849,-1.0522,-0.7421,-0.5132,0.0,0.0,0.0,0.0,0.0,0.0,0.0,0.0,0.0,0.0,0.0,0.0,0.0,0.0,0.0,0.0,0.0,0.0,0.0,0.0,0.0,0.0,0.0,0.0,0.0,0.0,0.0,0.0,0.0,0.0,0.0,0.0,0.0,0.0,0.0,0.0,0.0,0.0,0.0,0.0,0.0,0.0,0.0,0.0,0.0,0.0,0.0,0.0,0.0,0.0,0.0,0.0,0.0,0.0,0.0,0.0,0.0,0.0,0.0,0.0,0.0,0.0,0.0,0.0,0.0,0.0,0.0,0.0,0.0,0.0,0.0,0.0,0.0,0.0,0.0,0.0,0.0,0.0,0.0,0.0,0.0,0.0,0.0,0.0,0.0,0.0,0.0,0.0,0.0,0.0,0.0,0.0,0.0,0.0,0.0,0.0,0.0,0.0,0.0,0.0,0.0,0.0,0.0,0.0,0.0,0.0,0.0,0.0,-1.0235,-1.0003,-1.291,-1.4198,-1.3625,-0.9809,-0.6643,0.0,0.0,0.0,0.0,0.0,0.0,0.0,0.0,0.0,0.0,0.0,0.0,0.0,0.0,0.0,0.0,0.0,0.0,0.0,0.0,0.0,0.0,0.0,0.0,0.0,0.0,0.0,0.0,0.0,0.0,0.0,0.0,0.0,0.0,0.0,0.0,0.0,0.0,0.0,0.0,0.0,0.0,0.0,0.0,0.0,0.0,0.0,0.0,0.0,0.0,0.0,0.0,0.0,0.0,0.0,0.0,0.0,0.0,0.0,0.0,0.0,0.0,0.0,0.0,0.0,0.0,0.0,0.0,0.0,0.0,0.0,0.0,0.0,0.0,0.0,0.0,0.0,0.0,0.0,0.0,0.0,0.0,0.0,0.0,0.0,0.0,0.0,0.0,0.0,0.0,0.0,0.0,0.0,0.0,0.0,0.0,0.0,0.0,0.0,0.0,0.0,0.0,0.0,0.0,0.0,0.0,0.0,0.0,-1.0709,-1.1659,-1.336,-1.4089,-1.3692,-0.9918,-0.7458,0.0,0.0,0.0,0.0,0.0,0.0,0.0,0.0,0.0,0.0,0.0,0.0,0.0,0.0,0.0,0.0,0.0,0.0,0.0,0.0,0.0,0.0,0.0,0.0,0.0,0.0,0.0,0.0,0.0,0.0,0.0,0.0,0.0,0.0,0.0,0.0,0.0,0.0,0.0,0.0,0.0,0.0,0.0,0.0,0.0,0.0,0.0,0.0,-0.2393,0.0,0.0,0.0,0.0,0.0,0.0,0.0,0.0,0.0,0.0,0.0,0.0,0.0,0.0,0.0,0.0,0.0,0.0,0.0,0.0,0.0,0.0,0.0,0.0,0.0,0.0,0.0,0.0,0.0,0.0,0.0,0.0,0.0,0.0,0.0,0.0,0.0,0.0,0.0,0.0,0.0,0.0,0.0,0.0,0.0,0.0,0.0,0.0,0.0,0.0,0.0,0.0,0.0,0.0,0.0,0.0,0.0,0.0,0.0,-1.1387,-1.2724,-1.3917,-1.439,-1.4016,-1.0916,-0.8584,0.0,0.0,0.0,0.0,0.0,0.0,0.0,0.0,0.0,0.0,0.0,0.0,0.0,0.0,0.0,0.0,0.0,0.0,0.0,0.0,0.0,0.0,0.0,0.0,0.0,0.0,0.0,0.0,0.0,0.0,0.0,0.0,0.0,0.0,0.0,0.0,0.0,0.0,0.0,0.0,0.0,0.0,0.0,0.0,0.0,0.0,0.0,0.0,0.0,0.0,0.0,0.0,0.0,0.0,0.0,0.0,0.0,0.0,0.0,0.0,0.0,0.0,0.0,0.0,0.0,0.0,0.0,0.0,0.0,0.0,0.0,0.0,0.0,0.0,0.0,0.0,0.0,0.0,0.0,0.0,0.0,0.0,0.0,0.0,0.0,0.0,0.0,0.0,0.0,0.0,0.0,0.0,0.0,0.0,0.0,0.0,0.0,0.0,0.0,0.0,0.0,0.0,0.0,0.0,0.0,0.0,0.0,-1.0423,-1.2075,-1.3615,-1.4435,-1.4773,-1.456,-1.1979,-0.9612,-0.756,0.0,0.0,0.0,0.0,0.0,0.0,0.0,0.0,0.0,0.0,0.0,0.0,0.0,0.0,0.0,0.0,0.0,0.0,0.0,0.0,0.0,0.0,0.0,0.0,0.0,0.0,0.0,0.0,0.0,0.0,0.0,0.0,0.0,0.0,0.0,0.0,0.0,0.0,-0.5301,-0.4835,0.0,0.0,0.0,0.0,0.0,0.0,0.0,0.0,-0.2541,0.0,0.0,0.0,0.0,0.0,0.0,0.0,0.0,0.0,0.0,0.0,0.0,0.0,0.0,0.0,0.0,0.0,0.0,0.0,0.0,0.0,0.0,0.0,0.0,0.0,0.0,0.0,0.0,0.0,0.0,0.0,0.0,0.0,0.0,0.0,0.0,0.0,0.0,0.0,0.0,0.0,0.0,0.0,0.0,0.0,0.0,0.0,0.0,0.0,0.0,0.0,0.0,0.0,0.0,0.0,0.0,-1.005,-1.088,-1.2421,-1.476,-1.4707,-1.4649,-1.4511,-1.1962,-0.985,-0.8392,0.0,0.0,0.0,0.0,0.0,0.0,0.0,0.0,0.0,0.0,0.0,0.0,0.0,0.0,0.0,0.0,0.0,0.0,0.0,0.0,0.0,0.0,0.0,0.0,0.0,0.0,0.0,0.0,0.0,0.0,0.0,0.0,0.0,0.0,0.0,0.0,0.0,0.0,0.0,-0.5016,-0.4687,0.0,0.0,0.0,0.0,0.0,0.0,0.0,0.0,-0.3055,0.0,0.0,0.0,0.0,0.0,0.0,0.0,0.0,0.0,0.0,0.0,0.0,0.0,0.0,0.0,0.0,0.0,0.0,0.0,0.0,0.0,0.0,0.0,0.0,0.0,0.0,0.0,0.0,0.0,0.0,0.0,0.0,0.0,0.0,0.0,0.0,0.0,0.0,0.0,0.0,0.0,0.0,0.0,0.0,0.0,0.0,0.0,0.0,0.0,0.0,0.0,0.0,0.0,0.0,0.0,-1.0873,-1.1907,-1.3364,-1.531,-1.5079,-1.4758,-1.4475,-1.2232,-1.0246,0.0,0.0,0.0,0.0,0.0,0.0,0.0,0.0,0.0,0.0,0.0,0.0,0.0,0.0,0.0,0.0,0.0,0.0,0.0,0.0,0.0,0.0,0.0,0.0,0.0,0.0,0.0,0.0,0.0,0.0,0.0,0.0,0.0,0.0,0.0,0.0,0.0,0.0,0.0,0.0,-0.5563,-0.547,-0.5758,0.0,0.0,0.0,0.0,0.0,0.0,-0.3486,-0.336,0.0,0.0,0.0,0.0,0.0,0.0,0.0,0.0,0.0,0.0,0.0,0.0,0.0,0.0,0.0,0.0,0.0,0.0,0.0,0.0,0.0,0.0,0.0,0.0,0.0,0.0,0.0,0.0,0.0,0.0,0.0,0.0,0.0,0.0,0.0,0.0,0.0,0.0,0.0,0.0,0.0,0.0,0.0,0.0,0.0,0.0,0.0,0.0,0.0,0.0,0.0,0.0,0.0,0.0,0.0,-1.1441,-1.2832,-1.423,-1.5669,-1.5468,-1.5045,-1.4481,-1.2367,-1.0418,0.0,0.0,0.0,0.0,0.0,0.0,0.0,0.0,0.0,0.0,0.0,0.0,0.0,0.0,0.0,0.0,0.0,0.0,0.0,0.0,0.0,0.0,0.0,0.0,0.0,0.0,0.0,0.0,0.0,0.0,0.0,0.0,0.0,0.0,0.0,0.0,0.0,0.0,0.0,0.0,0.0,-0.6303,-0.6562,-0.6189,0.0,0.0,0.0,0.0,-0.4111,-0.4025,0.0,0.0,0.0,0.0,0.0,0.0,0.0,0.0,0.0,0.0,0.0,0.0,0.0,0.0,0.0,0.0,0.0,0.0,0.0,0.0,0.0,0.0,0.0,0.0,0.0,0.0,0.0,0.0,0.0,0.0,0.0,0.0,0.0,0.0,0.0,0.0,0.0,0.0,0.0,0.0,0.0,0.0,0.0,0.0,0.0,0.0,0.0,0.0,0.0,0.0,0.0,0.0,0.0,0.0,0.0,0.0,-1.1472,-1.3066,-1.4529,-1.5869,-1.582,-1.5433,-1.4809,-1.1858,-0.998,0.0,0.0,0.0,0.0,0.0,0.0,0.0,0.0,0.0,0.0,0.0,0.0,0.0,0.0,0.0,0.0,0.0,0.0,0.0,0.0,0.0,0.0,0.0,0.0,0.0,0.0,0.0,0.0,0.0,0.0,0.0,0.0,0.0,0.0,0.0,0.0,0.0,0.0,0.0,0.0,0.0,-0.6711,-0.6901,-0.6365,-0.577,0.0,0.0,-0.5802,-0.5146,-0.5508,0.0,0.0,0.0,0.0,0.0,0.0,0.0,0.0,0.0,0.0,0.0,0.0,0.0,0.0,0.0,0.0,0.0,0.0,0.0,0.0,0.0,0.0,0.0,0.0,0.0,0.0,0.0,0.0,0.0,0.0,0.0,0.0,0.0,0.0,0.0,0.0,0.0,0.0,0.0,0.0,0.0,0.0,0.0,0.0,0.0,0.0,0.0,0.0,0.0,0.0,0.0,0.0,0.0,0.0,0.0,-1.0925,-1.2138,-1.4114,-1.5331,-1.5635,-1.5742,-1.5462,-1.478,-1.2006,-1.0283,0.0,0.0,0.0,0.0,0.0,0.0,0.0,0.0,0.0,0.0,0.0,0.0,0.0,0.0,0.0,0.0,0.0,0.0,0.0,0.0,0.0,0.0,0.0,0.0,0.0,0.0,0.0,0.0,0.0,0.0,0.0,0.0,0.0,0.0,0.0,0.0,0.0,0.0,0.0,0.0,0.0,0.0,-0.7489,-0.7204,0.0,0.0,0.0,-0.6261,-0.5422,0.0,0.0,0.0,0.0,0.0,0.0,0.0,0.0,0.0,0.0,0.0,0.0,0.0,0.0,0.0,0.0,0.0,0.0,0.0,0.0,0.0,0.0,0.0,0.0,0.0,0.0,0.0,0.0,0.0,0.0,0.0,0.0,0.0,0.0,0.0,0.0,0.0,0.0,0.0,0.0,0.0,0.0,0.0,0.0,0.0,0.0,0.0,0.0,0.0,0.0,0.0,0.0,0.0,0.0,0.0,0.0,0.0,-1.2792,-1.4996,-1.5978,-1.5722,-1.5858,-1.5578,-1.4903,-1.2575,0.0,0.0,0.0,0.0,0.0,0.0,0.0,0.0,0.0,0.0,0.0,0.0,0.0,0.0,0.0,0.0,0.0,0.0,0.0,0.0,0.0,0.0,0.0,0.0,0.0,0.0,0.0,-0.891,0.0,0.0,0.0,0.0,0.0,0.0,0.0,0.0,0.0,0.0,0.0,0.0,0.0,0.0,-0.8461,-0.812,-0.8103,-0.809,0.0,0.0,-0.6828,-0.6204,-0.6762,-0.6629,0.0,0.0,0.0,0.0,0.0,0.0,0.0,0.0,0.0,0.0,0.0,0.0,0.0,0.0,0.0,0.0,0.0,0.0,0.0,0.0,0.0,0.0,0.0,0.0,0.0,0.0,0.0,0.0,0.0,0.0,0.0,0.0,0.0,0.0,0.0,0.0,0.0,0.0,0.0,0.0,0.0,0.0,0.0,0.0,0.0,0.0,0.0,0.0,0.0,0.0,0.0,0.0,0.0,0.0,0.0,-1.3199,-1.5235,-1.6376,-1.6504,-1.6358,-1.5991,-1.5435,-1.3711,-1.2218,0.0,0.0,0.0,0.0,0.0,0.0,0.0,0.0,0.0,0.0,0.0,0.0,0.0,0.0,0.0,0.0,0.0,0.0,0.0,0.0,0.0,0.0,0.0,0.0,0.0,0.0,0.0,0.0,0.0,0.0,0.0,0.0,0.0,0.0,0.0,0.0,0.0,0.0,0.0,0.0,0.0,-0.9,-0.8849,-0.8776,-0.8928,0.0,0.0,-0.7779,-0.7964,-0.8271,-0.788,-0.6136,0.0,0.0,0.0,0.0,0.0,0.0,0.0,0.0,0.0,0.0,0.0,0.0,0.0,0.0,0.0,0.0,0.0,0.0,0.0,0.0,0.0,0.0,0.0,0.0,0.0,0.0,0.0,0.0,0.0,0.0,0.0,0.0,0.0,0.0,0.0,0.0,0.0,0.0,0.0,0.0,0.0,0.0,0.0,0.0,0.0,0.0,0.0,0.0,0.0,0.0,0.0,0.0,0.0,-1.3236,-1.3519,-1.5614,-1.664,-1.6603,-1.6403,-1.6166,-1.5887,-1.4275,-1.2825,0.0,0.0,0.0,0.0,0.0,0.0,0.0,0.0,0.0,0.0,0.0,0.0,0.0,0.0,0.0,0.0,0.0,0.0,0.0,0.0,0.0,0.0,0.0,0.0,0.0,0.0,0.0,0.0,-1.0687,-1.0727,-1.0743,0.0,0.0,0.0,0.0,0.0,0.0,0.0,0.0,0.0,0.0,-0.9649,-0.9847,-0.9744,0.0,0.0,-0.923,-0.8625,-0.8047,-0.8415,-0.813,-0.6236,-0.5536,0.0,0.0,0.0,0.0,0.0,0.0,0.0,0.0,0.0,0.0,0.0,0.0,0.0,0.0,0.0,0.0,0.0,0.0,0.0,0.0,0.0,0.0,0.0,0.0,0.0,0.0,0.0,0.0,0.0,0.0,0.0,0.0,0.0,0.0,0.0,0.0,0.0,0.0,0.0,0.0,0.0,0.0,0.0,0.0,0.0,0.0,0.0,0.0,0.0,0.0,0.0,0.0,-1.3745,-1.3867,-1.598,-1.7012,-1.6845,-1.666,-1.6484,-1.6325,-1.4969,-1.3691,0.0,0.0,0.0,0.0,0.0,0.0,0.0,0.0,0.0,0.0,0.0,0.0,0.0,0.0,0.0,0.0,0.0,0.0,0.0,0.0,0.0,0.0,0.0,0.0,0.0,0.0,0.0,0.0,-1.1557,-1.1661,-1.1589,0.0,0.0,0.0,0.0,0.0,0.0,0.0,0.0,0.0,0.0,-1.0171,-1.0291,-1.0236,-1.0073,-0.9929,-0.9417,-0.8812,-0.821,-0.8438,-0.8157,-0.6648,0.0,0.0,0.0,0.0,0.0,0.0,0.0,0.0,0.0,0.0,0.0,0.0,0.0,0.0,0.0,0.0,0.0,0.0,0.0,0.0,0.0,0.0,0.0,0.0,0.0,0.0,0.0,0.0,0.0,0.0,-1.2927,0.0,0.0,0.0,0.0,0.0,0.0,0.0,0.0,0.0,0.0,0.0,0.0,0.0,0.0,0.0,0.0,0.0,0.0,0.0,0.0,0.0,0.0,-1.4205,-1.423,-1.6385,-1.7486,-1.7486,-1.7279,-1.7099,-1.6855,-1.5965,-1.4976,-1.3939,0.0,0.0,0.0,0.0,0.0,0.0,0.0,0.0,0.0,0.0,0.0,0.0,0.0,0.0,0.0,0.0,0.0,0.0,0.0,0.0,0.0,0.0,0.0,0.0,0.0,0.0,-1.2499,-1.2977,-1.3104,0.0,0.0,0.0,0.0,0.0,0.0,0.0,0.0,0.0,0.0,-1.0106,-1.0487,-1.0037,-0.9986,-1.0066,-1.0063,-0.8937,-0.8247,-0.8768,-0.8435,-0.7986,0.0,0.0,0.0,0.0,0.0,0.0,0.0,0.0,0.0,0.0,0.0,0.0,0.0,0.0,0.0,0.0,0.0,0.0,0.0,0.0,0.0,0.0,0.0,0.0,0.0,0.0,0.0,-1.4954,-1.4815,0.0,0.0,0.0,0.0,0.0,0.0,0.0,0.0,0.0,0.0,0.0,-1.4768,-1.4595,0.0,0.0,0.0,0.0,0.0,0.0,0.0,0.0,0.0,0.0,0.0,0.0,-1.5489,-1.5489,-1.7198,-1.8091,-1.8082,-1.7788,-1.7493,-1.7308,-1.664,-1.5517,-1.3824,0.0,0.0,0.0,0.0,0.0,0.0,0.0,0.0,0.0,0.0,0.0,0.0,0.0,0.0,0.0,0.0,0.0,0.0,0.0,0.0,0.0,0.0,0.0,0.0,0.0,-1.2609,0.0,0.0,0.0,0.0,0.0,0.0,0.0,0.0,0.0,0.0,0.0,-1.0019,-1.0394,-1.062,-1.0764,-1.0752,-1.0677,-1.0583,0.0,0.0,0.0,0.0,0.0,0.0,0.0,0.0,0.0,0.0,0.0,0.0,0.0,0.0,-0.4154,-0.3199,-0.347,-0.3787,-0.3717,0.0,0.0,0.0,0.0,0.0,0.0,0.0,0.0,0.0,0.0,0.0,0.0,0.0,0.0,-1.6126,0.0,-1.5886,0.0,0.0,0.0,0.0,0.0,0.0,0.0,0.0,-1.5552,-1.5774,-1.6203,-1.6169,-1.6385,0.0,-1.6399,-1.5449,0.0,0.0,0.0,0.0,0.0,0.0,0.0,0.0,-1.6158,-1.6228,-1.7725,-1.8536,-1.8583,-1.8264,-1.801,-1.7821,-1.7072,-1.591,-1.4299,-1.2852,-1.1687,0.0,0.0,0.0,0.0,0.0,0.0,0.0,0.0,0.0,0.0,0.0,0.0,0.0,0.0,0.0,0.0,0.0,0.0,0.0,0.0,0.0,0.0,0.0,-1.31,0.0,0.0,0.0,0.0,0.0,0.0,0.0,0.0,0.0,-1.1383,-1.1017,-1.0929,-1.1192,-1.1158,-1.1048,-1.0904,0.0,0.0,0.0,0.0,0.0,0.0,0.0,-0.804,-0.7584,-0.7442,-0.7465,-0.764,-0.7299,-0.6806,-0.6233,0.0,0.0,-0.4431,-0.459,-0.4918,-0.4924,-0.4833,-0.487,-0.4993,-0.5185,-0.541,0.0,0.0,0.0,0.0,0.0,0.0,0.0,0.0,-1.818,-1.8043,0.0,-1.7087,0.0,0.0,0.0,0.0,0.0,-1.6447,0.0,0.0,-1.7599,-1.7666,-1.7632,-1.7981,-1.7861,-1.7334,-1.7488,-1.7376,-1.6928,-1.5869,0.0,0.0,0.0,0.0,0.0,0.0,-1.6281,-1.6668,-1.8034,-1.8839,-1.9021,-1.8839,-1.8599,-1.8391,-1.7333,-1.6306,-1.5352,-1.4474,-1.3607,-1.2661,-1.1376,0.0,0.0,0.0,0.0,0.0,0.0,0.0,0.0,0.0,0.0,0.0,0.0,0.0,0.0,0.0,0.0,0.0,0.0,0.0,0.0,-1.2947,0.0,0.0,0.0,0.0,0.0,0.0,0.0,0.0,0.0,0.0,-1.2508,-1.2166,-1.1966,-1.175,0.0,0.0,0.0,0.0,-1.0031,-0.8958,-0.8447,-0.8134,-0.7951,-0.8046,-0.8387,-0.9057,0.0,0.0,-0.9375,-0.8488,-0.7739,-0.738,-0.7822,-0.7656,-0.5785,-0.5364,-0.5255,-0.5169,-0.5269,-0.5251,-0.5452,-0.5906,-0.6067,-2.5026,0.0,0.0,0.0,0.0,-2.0895,-2.016,-1.9554,-1.9381,-1.9221,-1.9052,-1.8839,0.0,0.0,0.0,0.0,0.0,0.0,-1.8281,-1.865,-1.8579,-1.8873,-1.9474,-1.9436,-1.9454,-1.9529,-1.9326,-1.9173,-1.9006,-1.8417,-1.7334,-1.5791,0.0,0.0,0.0,0.0,-1.7935,-1.8583,-1.9239,-1.9567,-1.9645,-1.9293,-1.8903,-1.8427,-1.7799,-1.7047,-1.6099,-1.5325,-1.4463,-1.3424,-1.2608,0.0,0.0,0.0,0.0,0.0,0.0,0.0,0.0,0.0,0.0,0.0,0.0,0.0,0.0,0.0,0.0,0.0,0.0,0.0,-1.34,-1.3622,-1.3944,0.0,0.0,0.0,0.0,0.0,0.0,0.0,0.0,0.0,-1.3967,-1.3092,-1.2495,0.0,0.0,-1.1354,-1.105,-1.0952,-1.0676,-1.0053,0.0,0.0,0.0,-0.949,-0.94,-0.9474,-0.9954,-1.0185,-0.9716,-0.9909,-0.9965,-0.9554,-0.9515,-0.9339,-0.8851,-0.8307,-0.7991,-0.7984,-0.8094,-0.8278,-0.8492,-0.8782,-0.8931,-2.7184,-2.5997,-2.4692,-2.3796,-2.3193,-2.238,-2.17,-2.1127,-2.0965,-2.0861,-2.0757,-2.0467,-2.0327,-2.0242,-1.9994,0.0,0.0,0.0,-1.976,-1.9849,-1.9832,-2.0084,-2.0525,-2.0527,-2.0522,-2.0521,-2.0387,-2.0278,-2.0113,-1.9751,-1.8953,-1.7779,0.0,0.0,-1.7669,-1.8249,-1.8845,-1.9393,-1.9724,-1.9912,-1.9902,-1.9508,-1.9104,-1.8671,-1.8177,-1.7538,-1.6733,-1.6063,-1.5298,-1.4331,-1.3623,-1.2926,0.0,0.0,0.0,0.0,0.0,0.0,0.0,0.0,0.0,0.0,0.0,-1.0307,0.0,0.0,0.0,0.0,-1.2266,-1.3027,-1.4219,-1.4172,0.0,0.0,0.0,0.0,0.0,0.0,0.0,-1.5005,-1.4702,-1.4441,-1.4506,-1.3782,-1.3185,-1.2985,-1.2415,-1.1966,-1.1733,0.0,-1.1322,-1.0795,-1.0651,-1.0556,-1.035,-1.0299,-1.0314,-1.0496,-1.0838,-1.1008,-1.0748,-1.1052,-1.122,-1.0975,-1.0748,-1.0575,-1.0508,-1.0136,-0.9734,-0.9496,-0.9535,-0.9706,-0.9991,-1.0235,-1.0388,-2.8958,-2.7522,-2.6039,-2.5142,-2.4642,-2.3932,-2.3435,-2.3084,-2.2698,-2.2708,-2.2907,-2.2064,-2.1797,-2.1923,-2.1316,0.0,-2.0832,-2.1056,-2.1125,-2.1045,-2.1183,-2.1174,-2.102,-2.1413,-2.1256,-2.0589,-2.1016,-2.1007,-2.057,-2.0214,-2.0177,-2.0376,-1.9462,-1.9036,-1.9144,-1.9144,-1.9278,-1.9497,-1.9762,-1.9882,-1.991,-1.9545,-1.9277,-1.9078,-1.8503,-1.7879,-1.7302,-1.6767,-1.6096,-1.5298,-1.4487,-1.3851,-1.3479,0.0,0.0,0.0,0.0,0.0,0.0,0.0,0.0,0.0,0.0,0.0,0.0,0.0,0.0,0.0,-1.3297,0.0,-1.4625,-1.4522,0.0,0.0,0.0,-1.4622,-1.4478,-1.4632,-1.4763,-1.4908,0.0,0.0,-1.4464,0.0,-1.3981,-1.3399,-1.3116,-1.2849,-1.2442,-1.224,-1.1925,-1.1341,-1.1086,-1.0844,-1.0645,-1.0793,-1.1241,-1.1845,-1.2079,-1.2048,-1.2035,-1.1916,-1.1818,-1.1742,-1.1595,-1.1403,-1.1202,-1.1004,-1.0666,-1.0107,-0.9962,-1.0067,-1.0435,-1.0616,-1.0779,-2.9521,-2.8649,-2.7699,-2.6616,-2.547,-2.477,-2.4338,-2.4126,-2.402,-2.3852,-2.3566,-2.3329,-2.3029,-2.2658,-2.2307,-2.2079,-2.186,-2.1919,-2.1993,-2.2113,-2.2019,-2.1974,-2.207,-2.252,-2.2279,-2.1493,-2.203,-2.202,-2.1412,-2.1312,-2.1327,-2.1396,-2.0897,-2.0332,-1.9798,-1.9643,-1.9872,-2.0542,-2.0134,-1.9974,-2.0124,-1.99,-1.9747,-1.9706,-1.9114,-1.8521,-1.7926,-1.7475,-1.6826,-1.5939,-1.5397,-1.4784,-1.4122,-1.3173,0.0,0.0,0.0,0.0,0.0,0.0,0.0,0.0,0.0,-1.1741,-1.1912,0.0,-1.2649,0.0,-1.3577,-1.4063,-1.4545,-1.4516,0.0,0.0,-1.5182,-1.52,-1.5029,-1.4833,-1.4811,-1.5093,-1.4852,-1.4636,-1.4564,-1.4788,-1.4736,-1.4176,-1.3439,-1.2984,-1.3097,-1.2893,-1.2636,-1.2388,-1.2326,-1.2305,-1.2066,-1.2198,-1.2367,-1.257,-1.2708,-1.2746,-1.2783,-1.2706,-1.2562,-1.2409,-1.2224,-1.2013,-1.1838,-1.1631,-1.144,-1.1248,-1.0998,-1.0888,-1.129,-1.1619,-1.1814,-3.0421,-2.9506,-2.9126,-2.8142,-2.6726,-2.5824,-2.5462,-2.5549,-2.5396,-2.5214,-2.502,-2.484,-2.445,-2.3937,-2.381,-2.3434,-2.2948,-2.2896,-2.2866,-2.274,-2.2544,-2.2495,-2.2593,-2.2912,-2.2762,-2.2151,-2.2731,-2.2805,-2.2446,-2.2089,-2.2156,-2.2507,-2.1968,-2.1489,-2.0967,-2.0315,-2.0134,-2.0442,-2.0324,-2.0384,-2.0608,-2.043,-2.0026,-1.9426,-1.8999,-1.8201,-1.7092,-1.6932,-1.6383,-1.5402,-1.527,-1.488,-1.4253,-1.3596,-1.3193,0.0,0.0,0.0,0.0,0.0,0.0,0.0,0.0,0.0,0.0,0.0,-1.3041,-1.3858,-1.4196,-1.4657,-1.5383,-1.5141,-1.5077,-1.5365,-1.5442,-1.5358,-1.4864,-1.4741,-1.4711,-1.4895,-1.4724,-1.4604,-1.461,-1.4715,-1.4762,-1.4521,-1.3876,-1.3491,-1.3624,-1.3467,-1.322,-1.2998,-1.2968,-1.3029,-1.2963,-1.2897,-1.2984,-1.3215,-1.3216,-1.3165,-1.3165,-1.314,-1.3061,-1.2788,-1.2562,-1.2409,-1.2268,-1.204,-1.1855,-1.1818,-1.1669,-1.1595,-1.1787,-1.2077,-1.2281,-3.1368,-3.0284,-3.028,-2.9484,-2.8126,-2.7007,-2.6668,-2.6806,-2.6497,-2.6453,-2.657,-2.6111,-2.5713,-2.5316,-2.5272,-2.4835,-2.4065,-2.4012,-2.371,-2.3232,-2.3013,-2.2896,-2.2779,-2.3069,-2.3032,-2.2721,-2.3159,-2.3345,-2.3243,-2.2714,-2.2712,-2.3233,-2.2745,-2.2345,-2.2072,-2.1026,-2.0311,-2.0036,-2.0541,-2.0879,-2.1172,-2.0894,-2.014,-1.8919,-1.8496,-1.7609,-1.608,-1.6078,-1.5614,-1.4623,-1.478,-1.47,-1.4258,-1.388,-1.369,0.0,-1.3351,0.0,0.0,0.0,0.0,0.0,0.0,0.0,0.0,-1.282,-1.3601,-1.4645,-1.4931,-1.5404,-1.6261,-1.5826,-1.5505,-1.5589,-1.5477,-1.5149,-1.4535,-1.4521,-1.4605,-1.4605,-1.4605,-1.4605,-1.4585,-1.4461,-1.4425,-1.4497,-1.4238,-1.4,-1.4036,-1.387,-1.3616,-1.3273,-1.3236,-1.3226,-1.3308,-1.3231,-1.3299,-1.3782,-1.3737,-1.3543,-1.3522,-1.3466,-1.3332,-1.3021,-1.2783,-1.2636,-1.2636,-1.2342,-1.2133,-1.2136,-1.2123,-1.204,-1.2003,-1.2194,-1.2415,-3.1948,-3.1348,-3.0763,-3.0122,-2.9398,-2.8611,-2.7558,-2.6353,-2.6644,-2.6737,-2.656,-2.6346,-2.6079,-2.5761,-2.5751,-2.5585,-2.5263,-2.5028,-2.4601,-2.3984,-2.3717,-2.3309,-2.2861,-2.3518,-2.3425,-2.2758,-2.3457,-2.3501,-2.2989,-2.3047,-2.2934,-2.2609,-2.2656,-2.2366,-2.1659,0.0,0.0,0.0,-2.1284,-2.1381,-2.095,-2.0241,-1.9633,-1.9194,-1.8364,0.0,-1.7184,-1.6771,-1.6179,-1.5368,-1.5425,0.0,0.0,0.0,0.0,0.0,0.0,0.0,0.0,0.0,0.0,0.0,-1.3617,-1.3456,-1.3288,-1.4041,-1.4594,-1.4831,-1.5238,-1.5467,-1.5433,-1.5113,-1.4956,-1.5088,-1.4919,-1.4762,-1.4721,-1.467,-1.4605,-1.4605,-1.4605,-1.4569,-1.4477,-1.4425,-1.4361,-1.4312,-1.4129,-1.4021,-1.3899,-1.3841,-1.3717,-1.3499,-1.3331,-1.3255,-1.3395,-1.3533,-1.3791,-1.413,-1.4328,-1.4244,-1.3995,-1.3791,-1.3534,-1.322,-1.2973,-1.2863,-1.2863,-1.2783,-1.2705,-1.2794,-1.2645,-1.2378,-1.2077,-1.2305,-1.2599,-3.2376,0.0,-3.1484,-3.087,0.0,-2.9674,-2.8697,-2.7493,-2.7577,-2.7522,-2.7296,-2.7031,-2.6675,-2.6262,-2.6216,-2.6011,-2.5609,-2.5462,-2.5068,-2.4475,-2.4248,-2.3949,-2.3619,-2.397,-2.3928,-2.3523,-2.3981,-2.4022,-2.3673,-2.3613,-2.3392,-2.3047,-2.3073,-2.2784,-2.2159,-2.2225,-2.2065,-2.1534,-2.183,-2.1955,-2.185,-2.1386,-2.0749,-1.9811,0.0,0.0,0.0,0.0,0.0,0.0,0.0,0.0,0.0,0.0,0.0,-1.5309,-1.4922,-1.4665,-1.4709,-1.4427,-1.4209,-1.424,-1.4275,-1.4168,-1.3895,-1.4436,-1.4811,-1.4996,-1.5379,-1.5616,-1.5479,-1.5425,-1.5348,-1.5292,-1.5171,-1.5088,-1.5102,-1.5052,-1.502,-1.5037,-1.494,-1.4911,-1.494,-1.4757,-1.4725,-1.485,-1.4556,-1.4309,-1.4199,-1.396,-1.3725,-1.355,-1.3612,-1.3722,-1.3887,-1.4088,-1.4354,-1.4705,-1.4799,-1.4616,-1.4352,-1.4178,-1.3956,-1.3476,-1.32,-1.3046,-1.301,-1.2973,-1.2868,-1.2807,-1.2702,-1.2489,-1.2224,-1.2415,-1.2636,-3.2636,-3.2431,-3.2125,-3.1532,-3.0775,-3.0489,-2.9805,-2.8978,0.0,0.0,0.0,-2.7809,-2.7327,-2.6786,-2.6739,-2.6403,-2.59,-2.5854,-2.5564,-2.5049,-2.4782,-2.4594,-2.4489,-2.4411,-2.4335,-2.4297,-2.444,-2.448,-2.4421,-2.4154,-2.3926,-2.3795,-2.3685,-2.34,-2.3036,-2.313,-2.296,-2.2399,-2.2269,-2.2342,-2.2625,-2.248,-2.172,-2.031,-2.0153,-1.9428,-1.8151,-1.8028,-1.7549,-1.6661,-1.6782,-1.6443,-1.549,-1.5622,-1.5786,-1.5802,-1.5458,-1.5305,-1.5527,-1.4937,-1.4601,-1.4796,-1.4808,-1.467,-1.4377,-1.4574,-1.481,-1.5061,-1.545,-1.5684,-1.5692,-1.5955,-1.598,-1.5658,-1.5622,-1.558,-1.5451,-1.5459,-1.5478,-1.5541,-1.541,-1.5343,-1.5514,-1.5223,-1.5138,-1.5456,-1.5033,-1.4652,-1.4569,-1.4103,-1.3681,-1.3528,-1.3758,-1.4147,-1.4408,-1.4554,-1.4847,-1.5238,-1.5155,-1.4885,-1.4648,-1.4501,-1.4199,-1.3711,-1.3396,-1.3236,-1.3229,-1.3127,-1.2921,-1.2785,-1.267,-1.2576,-1.2476,-1.2479,-1.2562,-3.2909,-3.2636,-3.2157,-3.1801,-3.1509,-3.1078,-3.0461,-2.9693,-2.8779,-2.8492,-2.8653,-2.8128,-2.7778,-2.7442,-2.73,-2.7138,-2.7076,-2.6812,-2.6445,0.0,-2.5545,-2.5159,-2.474,-2.4694,-2.4526,-2.4306,-2.444,-2.439,-2.4291,-2.4375,-2.4347,-2.4221,-2.4421,-2.4214,-2.3725,-2.3691,-2.3432,-2.2969,-2.2447,-2.2121,-2.2021,-2.1306,-2.0692,-2.0241,-1.9558,-1.9079,-1.8841,-1.8239,-1.7701,-1.7358,-1.7267,-1.7026,-1.6627,-1.6975,-1.704,-1.6772,-1.6737,-1.6726,-1.6605,-1.6176,-1.5794,-1.5572,-1.5394,-1.511,-1.4726,-1.4893,-1.5039,-1.5138,-1.5465,-1.5692,-1.5692,-1.5937,-1.6004,-1.5749,-1.5799,-1.5768,-1.5627,-1.5623,-1.5736,-1.5893,-1.5771,-1.5687,-1.5847,-1.558,-1.5381,-1.5381,-1.5296,-1.4957,-1.469,-1.4059,-1.3609,-1.3536,-1.3799,-1.4136,-1.4428,-1.4703,-1.4991,-1.5338,-1.5345,-1.5177,-1.4842,-1.4536,-1.4239,-1.3975,-1.3541,-1.3345,-1.3426,-1.3309,-1.3249,-1.3301,-1.298,-1.2674,-1.2777,-1.2601,-1.2496,-3.3376,-3.3506,-3.2753,-3.236,-3.2236,-3.1347,-3.0923,-3.0629,-2.9746,-2.915,-2.8757,-2.8373,-2.8008,-2.7584,-2.7499,-2.7404,-2.7309,-2.7167,-2.6921,-2.6584,-2.6347,-2.5999,-2.5526,-2.5332,-2.5093,-2.487,-2.4592,-2.443,-2.4399,-2.4587,-2.4431,-2.3942,-2.4042,-2.415,-2.4114,-2.4131,-2.3916,-2.3486,-2.2945,-2.2635,-2.2539,-2.2064,-2.1658,-2.138,-2.0893,-2.0605,-2.0467,-1.9859,-1.9324,-1.8939,-1.8587,-1.8212,-1.7749,-1.7776,-1.7846,-1.787,-1.7541,-1.7295,-1.7265,-1.6785,-1.6443,-1.6301,-1.6329,-1.6193,-1.5892,-1.5452,-1.5401,-1.5748,-1.5747,-1.5807,-1.6048,-1.6115,-1.6094,-1.6002,-1.6035,-1.6049,-1.6069,-1.6036,-1.6134,-1.625,-1.6085,-1.6046,-1.6249,-1.6015,-1.5905,-1.6039,-1.5794,-1.5364,-1.4908,-1.4477,-1.4096,-1.3873,-1.4172,-1.4435,-1.4548,-1.4904,-1.5192,-1.5416,-1.5431,-1.5258,-1.4973,-1.4674,-1.4452,-1.4092,-1.3768,-1.3623,-1.355,-1.3419,-1.3425,-1.3292,-1.3093,-1.2836,-1.275,-1.257,-1.2576,-3.4111,-3.447,-3.3364,-3.2825,-3.2641,-3.1499,-3.12,-3.146,-3.061,-2.9844,-2.9272,-2.8788,-2.8256,-2.7783,-2.7678,-2.7489,-2.7404,-2.7309,-2.7167,-2.6986,-2.6948,-2.6651,-2.6197,-2.5945,-2.5616,-2.5284,-2.4883,-2.4637,-2.4538,-2.4735,-2.4429,-2.3821,-2.3937,-2.42,-2.4487,-2.4514,-2.4316,-2.3809,-2.3467,-2.3198,-2.3091,-2.2925,-2.2662,-2.2397,-2.2167,-2.1963,-2.1696,-2.1275,-2.0766,-2.0298,-1.9758,-1.9198,-1.8673,-1.8373,-1.8378,-1.8503,-1.8055,-1.7704,-1.759,-1.7168,-1.6906,-1.6875,-1.6947,-1.7022,-1.6927,-1.6187,-1.5876,-1.6265,-1.6135,-1.6104,-1.6396,-1.6409,-1.6346,-1.6339,-1.6346,-1.641,-1.6414,-1.6428,-1.6476,-1.6533,-1.6365,-1.6325,-1.6453,-1.6413,-1.638,-1.6514,-1.6186,-1.5636,-1.5238,-1.5044,-1.4715,-1.4532,-1.4633,-1.4769,-1.4648,-1.5035,-1.533,-1.5389,-1.5389,-1.5287,-1.5082,-1.4973,-1.4754,-1.4318,-1.4032,-1.3857,-1.3623,-1.3425,-1.333,-1.3235,-1.3021,-1.2776,-1.256,-1.2502,-1.2599,-3.513,-3.4862,-3.3908,-3.3081,-3.2485,-3.149,-3.1411,-3.1819,-3.0769,-3.0471,-3.0655,-2.9561,-2.8778,-2.8286,-2.7841,-2.7605,-2.7568,-2.7404,-2.7272,-2.7225,-2.6996,-2.6747,-2.6448,-2.6197,-2.581,-2.5382,-2.5235,-2.4941,-2.4587,-2.4538,-2.451,-2.4482,-2.4886,-2.4958,-2.4736,-2.4925,-2.4609,-2.3809,-2.375,-2.3535,-2.312,-2.2882,-2.2662,-2.2397,-2.2176,-2.1963,-2.1696,-2.1266,-2.0979,-2.0854,-2.0051,-1.9401,-1.9006,-1.8822,-1.8597,-1.8388,-1.8353,-1.8171,-1.7666,-1.7334,-1.7146,-1.7066,-1.6949,-1.707,-1.7446,-1.6988,-1.6572,-1.6507,-1.6551,-1.6601,-1.6676,-1.68,-1.6822,-1.6683,-1.6778,-1.6832,-1.6656,-1.6595,-1.6626,-1.6689,-1.6535,-1.647,-1.6601,-1.6618,-1.6634,-1.6673,-1.6193,-1.5851,-1.5982,-1.5635,-1.5275,-1.511,-1.5054,-1.4933,-1.4878,-1.5182,-1.536,-1.5389,-1.5389,-1.533,-1.5228,-1.5061,-1.4834,-1.4586,-1.4217,-1.3898,-1.3816,-1.3495,-1.3135,-1.3188,-1.2977,-1.2712,-1.2422,-1.2342,-1.2489,-3.5827,-3.5961,-3.4886,-3.3841,-3.2897,-3.2323,-3.2298,-3.25,-3.1834,-3.161,-3.1574,-3.0771,-2.997,-2.9181,-2.8417,-2.8063,-2.8078,-2.7955,-2.7654,-2.7351,-2.7435,-2.7135,-2.6516,-2.64,-2.6062,-2.5538,-2.5391,-2.5186,-2.4981,-2.4824,-2.4883,-2.5186,-2.5284,-2.5295,-2.5295,-2.5372,-2.5156,-2.4617,-2.4551,-2.4336,-2.3842,-2.3187,-2.2671,-2.2397,-2.2185,-2.1963,-2.1696,-2.1275,-2.0997,-2.0952,-2.0201,-1.9687,-1.9529,-1.9206,-1.8993,-1.8803,-1.8618,-1.8419,-1.8133,-1.7888,-1.7735,-1.772,-1.7781,-1.7796,-1.7681,-1.7766,-1.7591,-1.7038,-1.6683,-1.664,-1.6986,-1.7003,-1.6974,-1.6982,-1.7071,-1.7122,-1.71,-1.7062,-1.7079,-1.7102,-1.6872,-1.6663,-1.664,-1.6568,-1.6582,-1.6648,-1.6384,-1.6261,-1.6214,-1.5957,-1.5725,-1.5572,-1.5416,-1.5205,-1.5028,-1.5177,-1.5352,-1.5389,-1.5389,-1.536,-1.5141,-1.5214,-1.509,-1.4757,-1.4365,-1.4183,-1.4275,-1.3645,-1.3172,-1.3186,-1.2834,-1.2438,-1.2325,-1.2305,-1.2378,-3.6476,-3.6612,-3.5616,-3.4545,-3.3621,-3.3174,-3.3101,-3.3137,-3.2748,-3.2422,-3.2241,-3.1584,-3.0948,-3.0313,-2.9288,-2.8727,-2.8676,-2.8561,-2.8115,-2.7558,-2.7779,-2.7444,-2.6671,-2.6506,-2.6255,-2.582,-2.5538,-2.5391,-2.5284,-2.503,-2.5088,-2.5391,-2.5284,-2.5333,-2.5538,-2.5586,-2.5421,-2.5098,-2.5059,-2.4853,-2.4348,-2.3583,-2.2949,-2.2621,-2.2321,-2.2043,-2.1731,-2.123,-2.0997,-2.0997,-2.0283,-1.9891,-1.9799,-1.9425,-1.9188,-1.9096,-1.8789,-1.8566,-1.8489,-1.8326,-1.8179,-1.8133,-1.8288,-1.8241,-1.7955,-1.8102,-1.8048,-1.7608,-1.7038,-1.7008,-1.7294,-1.722,-1.718,-1.7317,-1.7271,-1.7266,-1.7314,-1.7305,-1.7259,-1.7334,-1.7008,-1.6799,-1.671,-1.6538,-1.6433,-1.6658,-1.6596,-1.6492,-1.6252,-1.6113,-1.5989,-1.5741,-1.5684,-1.5554,-1.5212,-1.533,-1.545,-1.5389,-1.5389,-1.5272,-1.498,-1.5141,-1.5214,-1.4801,-1.4596,-1.4394,-1.4272,-1.3782,-1.3297,-1.3213,-1.2818,-1.2338,-1.2311,-1.2305,-1.2305,-3.7328,-3.6926,-3.573,-3.4991,-3.4652,-3.3722,-3.3601,-3.3915,-3.2989,-3.2628,-3.2721,-3.1812,-3.1511,-3.1726,-3.0356,-2.9595,-2.9331,-2.9123,-2.8575,-2.7935,-2.7955,-2.7572,-2.6921,-2.6602,-2.6362,-2.6112,-2.5888,-2.5616,-2.5333,-2.5039,-2.4932,-2.499,-2.4981,-2.5079,-2.5284,-2.5342,-2.5266,-2.5109,-2.5117,-2.4883,-2.4456,-2.4108,-2.3637,-2.3102,-2.2615,-2.215,-2.1741,-2.1266,-2.0997,-2.0997,-2.0329,-1.9845,-1.9625,-1.9333,-1.905,-1.8874,-1.8781,-1.8697,-1.8527,-1.8481,-1.8381,-1.8179,-1.8141,-1.8133,-1.7994,-1.7908,-1.7861,-1.7994,-1.7686,-1.7608,-1.7652,-1.7584,-1.7569,-1.7615,-1.7436,-1.7335,-1.7243,-1.7198,-1.7086,-1.729,-1.7058,-1.6792,-1.6887,-1.6492,-1.6419,-1.6606,-1.643,-1.6211,-1.6286,-1.6203,-1.5997,-1.5824,-1.5733,-1.5677,-1.5621,-1.5545,-1.5526,-1.5443,-1.533,-1.5258,-1.5068,-1.4915,-1.4885,-1.4772,-1.4421,-1.4227,-1.417,-1.3952,-1.3581,-1.3241,-1.2705,-1.2358,-1.2311,-1.2305,-1.2268,-3.7505,-3.7002,-3.611,-3.5365,-3.4787,-3.4567,-3.4354,-3.4006,-3.3686,-3.3421,-3.3262,-3.2626,-3.2197,-3.1993,-3.146,-3.068,-2.9881,-2.9759,-2.9195,-2.8431,-2.8669,-2.8416,-2.7758,-2.7628,-2.7209,-2.6606,-2.6428,-2.6094,-2.5606,-2.544,-2.5391,-2.5382,-2.5235,-2.5235,-2.5284,-2.5284,-2.5295,-2.5266,-2.5392,-2.542,-2.5177,-2.4706,-2.4228,-2.3704,-2.3011,-2.2303,-2.1696,-2.1428,-2.1195,-2.0997,-2.0645,-2.0155,-1.9625,-1.9204,-1.8912,-1.8827,-1.8781,-1.8781,-1.8697,-1.8566,-1.8481,-1.8381,-1.8179,-1.8048,-1.79,-1.79,-1.7854,-1.7707,-1.7854,-1.79,-1.7721,-1.7721,-1.7628,-1.7481,-1.752,-1.7529,-1.7587,-1.7734,-1.7911,-1.7773,-1.7372,-1.6899,-1.6592,-1.629,-1.6243,-1.6354,-1.6205,-1.6144,-1.6128,-1.5997,-1.5865,-1.5906,-1.5824,-1.565,-1.5484,-1.5492,-1.545,-1.535,-1.525,-1.5056,-1.4881,-1.475,-1.4681,-1.4663,-1.4302,-1.4251,-1.4261,-1.393,-1.3603,-1.2943,-1.2432,-1.2351,-1.2305,-1.2268,-1.2224,-3.7505,-3.7062,-3.6465,-3.5839,-3.5236,-3.5317,-3.492,-3.4306,-3.4205,-3.4003,-3.3607,-3.3231,-3.2768,-3.2291,-3.2077,-3.1505,-3.0614,-3.0491,-2.9942,-2.9138,-2.9308,-2.9093,-2.8478,-2.8043,-2.7622,-2.7132,-2.6923,-2.6615,-2.6152,-2.6016,-2.5947,-2.5908,-2.5527,-2.5333,-2.5382,-2.5294,-2.5245,-2.5382,-2.5538,-2.5577,-2.5596,-2.5064,-2.4565,-2.4153,-2.3467,-2.2676,-2.1876,-2.1526,-2.1293,-2.0997,-2.0781,-2.0346,-1.9671,-1.9204,-1.8874,-1.8827,-1.8781,-1.8781,-1.8781,-1.8651,-1.8574,-1.8481,-1.8234,-1.7994,-1.7721,-1.7807,-1.766,-1.7567,-1.7714,-1.7854,-1.7768,-1.7721,-1.7628,-1.7434,-1.7527,-1.7574,-1.7574,-1.7861,-1.7994,-1.7871,-1.7484,-1.7064,-1.6728,-1.6446,-1.6324,-1.6296,-1.6247,-1.6099,-1.5993,-1.5831,-1.5699,-1.5839,-1.5707,-1.5492,-1.5367,-1.5291,-1.5208,-1.5074,-1.4936,-1.4811,-1.4779,-1.4655,-1.4503,-1.4485,-1.4412,-1.4403,-1.4198,-1.3873,-1.3326,-1.2661,-1.2412,-1.2318,-1.2268,-1.2224,-1.215,-3.7353,-3.7121,-3.6815,-3.638,-3.5941,-3.5704,-3.5307,-3.4787,-3.4519,-3.415,-3.3767,-3.3419,-3.3142,-3.2818,-3.2342,-3.1852,-3.1513,-3.1246,-3.0734,-3.0005,-2.9791,-2.948,-2.8971,-2.8063,-2.7693,-2.7743,-2.7227,-2.6963,-2.6885,-2.6514,-2.6328,-2.623,-2.5624,-2.5391,-2.5645,-2.5215,-2.5215,-2.5499,-2.5469,-2.5459,-2.5586,-2.5148,-2.4676,-2.4326,-2.3954,-2.327,-2.2173,-2.1706,-2.1374,-2.1051,-2.0852,-2.0354,-1.9799,-1.9374,-1.9066,-1.8913,-1.8843,-1.8781,-1.8781,-1.8773,-1.8697,-1.852,-1.828,-1.7994,-1.7768,-1.7527,-1.7426,-1.7574,-1.7675,-1.7682,-1.7675,-1.7675,-1.7636,-1.7675,-1.7481,-1.7426,-1.7326,-1.7326,-1.7426,-1.763,-1.7421,-1.7347,-1.7406,-1.6921,-1.6529,-1.6491,-1.6361,-1.6092,-1.5875,-1.5781,-1.5653,-1.5514,-1.5524,-1.5533,-1.5307,-1.509,-1.4957,-1.4789,-1.4598,-1.4448,-1.4639,-1.4569,-1.4467,-1.4388,-1.4202,-1.4139,-1.375,-1.3404,-1.3163,-1.2643,-1.2458,-1.2311,-1.2268,-1.2187,-1.204,-3.7459,-3.7307,-3.6862,-3.6546,-3.6275,-3.6003,-3.5572,-3.5078,-3.4775,-3.4482,-3.415,-3.3767,-3.3442,-3.3131,-3.2768,-3.2342,-3.1874,-3.1772,-3.1224,-3.0387,-3.0212,-2.9994,-2.9631,-2.9302,-2.8798,-2.8135,-2.7089,-2.6748,-2.6914,-2.6611,-2.6387,-2.6249,-2.5653,-2.5245,-2.5205,-2.5256,-2.5294,-2.5194,-2.5522,-2.573,-2.5674,-2.5186,-2.4781,-2.4526,-2.3981,-2.3312,-2.2704,-2.2391,-2.188,-2.1069,-2.1217,-2.1076,-2.0559,-1.9696,-1.9317,-1.9418,-1.9047,-1.8781,-1.8781,-1.8781,-1.8781,-1.8651,-1.8334,-1.8087,-1.7947,-1.7574,-1.7387,-1.7434,-1.7434,-1.7434,-1.7426,-1.7426,-1.7426,-1.7434,-1.7527,-1.7481,-1.7326,-1.7434,-1.7581,-1.7675,-1.7585,-1.7442,-1.7217,-1.68,-1.6683,-1.6492,-1.6227,-1.6005,-1.603,-1.5915,-1.5797,-1.5649,-1.5668,-1.5587,-1.5317,-1.5126,-1.4972,-1.474,-1.4468,-1.4472,-1.4602,-1.4472,-1.4344,-1.419,-1.4037,-1.3782,-1.3358,-1.3067,-1.2849,-1.263,-1.2392,-1.2281,-1.2268,-1.2114,-1.1929,-3.7631,-3.7459,-3.7168,-3.6815,-3.6499,-3.6228,-3.586,-3.5368,-3.5078,-3.4726,-3.4384,-3.4003,-3.3679,-3.3431,-3.3092,-3.2606,-3.2179,-3.2077,-3.1505,-3.0754,-3.0557,-3.0464,-3.0256,-2.9931,-2.9392,-2.8518,-2.7635,-2.739,-2.7555,-2.7131,-2.6787,-2.6532,-2.5983,-2.5487,-2.5145,-2.532,-2.5336,-2.5225,-2.5505,-2.5774,-2.5632,-2.5214,-2.4867,-2.4697,-2.4205,-2.3588,-2.2959,-2.2963,-2.2381,-2.1324,-2.1162,-2.1079,-2.0816,-1.9961,-1.9503,-1.9554,-1.9198,-1.8883,-1.8986,-1.8915,-1.8907,-1.8893,-1.8559,-1.8277,-1.8176,-1.7792,-1.7479,-1.7308,-1.7333,-1.7286,-1.7286,-1.7286,-1.7286,-1.7286,-1.7434,-1.7481,-1.7372,-1.7426,-1.7574,-1.7628,-1.7613,-1.7416,-1.7291,-1.7071,-1.6856,-1.6511,-1.6256,-1.6053,-1.6133,-1.6038,-1.5956,-1.5918,-1.6043,-1.582,-1.5418,-1.517,-1.5,-1.4692,-1.4399,-1.4599,-1.4821,-1.433,-1.405,-1.3912,-1.3768,-1.3537,-1.3162,-1.302,-1.2833,-1.2556,-1.2284,-1.217,-1.2083,-1.1892,-1.1669,-3.7952,-3.7551,-3.7505,-3.7155,-3.6722,-3.6487,-3.6086,-3.5608,-3.5332,-3.4969,-3.4482,-3.4162,-3.3939,-3.3641,-3.3181,-3.2768,-3.2505,-3.2179,-3.1772,-3.127,-3.0983,-3.0776,-3.0568,-2.9901,-2.9216,-2.8721,-2.8495,-2.8536,-2.8453,-2.7891,-2.7441,-2.6953,-2.6483,-2.6033,-2.5475,-2.5446,-2.5563,-2.5503,-2.5554,-2.5695,-2.586,-2.5239,-2.4873,-2.4845,-2.4571,-2.3971,-2.3233,-2.3165,-2.2649,-2.145,-2.0921,-2.0729,-2.0562,-2.0079,-1.9826,-1.9891,-1.9238,-1.9184,-1.9256,-1.9161,-1.9098,-1.9312,-1.8955,-1.8669,-1.8621,-1.8222,-1.7816,-1.7544,-1.7446,-1.7377,-1.7355,-1.7333,-1.7333,-1.7286,-1.7333,-1.7326,-1.7333,-1.7333,-1.7434,-1.7574,-1.7473,-1.7365,-1.7529,-1.7382,-1.7057,-1.6699,-1.6509,-1.6353,-1.6135,-1.6093,-1.6168,-1.6176,-1.6213,-1.6162,-1.5778,-1.5419,-1.5241,-1.5022,-1.4615,-1.4566,-1.4753,-1.4312,-1.409,-1.3891,-1.3558,-1.3308,-1.3091,-1.2997,-1.2746,-1.2395,-1.2201,-1.2042,-1.1906,-1.1771,-1.164,-3.8057,-3.7795,-3.7564,-3.732,-3.6968,-3.6722,-3.6358,-3.5908,-3.562,-3.5271,-3.4932,-3.4359,-3.4075,-3.3927,-3.3419,-3.3031,-3.2768,-3.2493,-3.2179,-3.1772,-3.1281,-3.0868,-3.0359,-2.958,-2.9186,-2.9162,-2.8643,-2.841,-2.8625,-2.8058,-2.7471,-2.7012,-2.661,-2.6108,-2.5562,-2.5803,-2.5848,-2.5722,-2.5713,-2.5748,-2.5779,-2.5248,-2.4892,-2.4883,-2.4637,-2.4181,-2.3559,-2.2957,-2.2562,-2.2044,-2.1261,-2.1261,-2.1754,-2.0962,-2.0473,-2.0516,-2.02,-1.9814,-1.9766,-1.967,-1.9678,-1.9709,-1.9443,-1.9248,-1.9256,-1.8754,-1.8443,-1.8195,-1.7922,-1.7629,-1.7594,-1.7434,-1.7333,-1.7286,-1.7286,-1.7286,-1.7286,-1.7286,-1.7333,-1.738,-1.7326,-1.738,-1.738,-1.7326,-1.7196,-1.6908,-1.6757,-1.6598,-1.627,-1.6182,-1.6311,-1.6199,-1.6217,-1.627,-1.6139,-1.5741,-1.549,-1.5355,-1.4937,-1.4378,-1.449,-1.4268,-1.4309,-1.4385,-1.3727,-1.3332,-1.318,-1.3034,-1.2679,-1.2336,-1.2273,-1.2184,-1.2063,-1.1903,-1.1795,-3.8304,-3.8011,-3.7861,-3.7598,-3.7261,-3.6968,-3.6593,-3.6181,-3.586,-3.5524,-3.5126,-3.4652,-3.4261,-3.4075,-3.3679,-3.3231,-3.293,-3.2718,-3.2403,-3.1924,-3.1424,-3.0909,-3.0328,-2.9622,-2.9465,-2.9493,-2.887,-2.8615,-2.8605,-2.8196,-2.7767,-2.7353,-2.6939,-2.641,-2.5901,-2.6177,-2.6102,-2.5763,-2.582,-2.5932,-2.5707,-2.5199,-2.497,-2.4843,-2.4637,-2.4282,-2.3741,-2.2974,-2.2477,-2.223,-2.1693,-2.1524,-2.2002,-2.1276,-2.0768,-2.0786,-2.0289,-2.0039,-2.0047,-1.9965,-2.0037,-2.0149,-1.9943,-1.9753,-1.9605,-1.9243,-1.8859,-1.8607,-1.8152,-1.7831,-1.7709,-1.7468,-1.734,-1.7286,-1.7286,-1.7286,-1.7286,-1.7286,-1.7286,-1.7286,-1.7286,-1.7286,-1.7286,-1.7286,-1.7153,-1.6936,-1.6729,-1.6511,-1.6276,-1.6355,-1.6366,-1.6324,-1.6292,-1.6375,-1.6261,-1.5885,-1.533,-1.5218,-1.4866,-1.4328,-1.4143,-1.409,-1.409,-1.4056,-1.3723,-1.34,-1.3187,-1.2994,-1.2764,-1.2509,-1.2454,-1.2291,-1.2139,-1.1987,-1.1883,-3.8639,-3.82,-3.82,-3.7939,-3.7505,-3.7214,-3.6828,-3.6465,-3.6098,-3.5716,-3.5271,-3.4932,-3.4494,-3.4087,-3.379,-3.3442,-3.2942,-3.2891,-3.2505,-3.2059,-3.1581,-3.112,-3.0547,-3.0151,-2.988,-2.9659,-2.929,-2.8963,-2.8771,-2.8422,-2.8047,-2.7623,-2.7307,-2.6893,-2.6352,-2.6555,-2.6265,-2.5727,-2.5806,-2.5769,-2.5456,-2.5109,-2.4892,-2.4794,-2.4597,-2.4291,-2.3822,-2.3242,-2.2761,-2.2507,-2.1957,-2.1735,-2.1668,-2.1194,-2.0842,-2.059,-2.0394,-2.0257,-2.0305,-2.0287,-2.0278,-2.0584,-2.0348,-2.0105,-2.0046,-1.9636,-1.9248,-1.9015,-1.8274,-1.7996,-1.7743,-1.7523,-1.7362,-1.7286,-1.7286,-1.7286,-1.7286,-1.7279,-1.7293,-1.7315,-1.7323,-1.7286,-1.7286,-1.7239,-1.7091,-1.6784,-1.6659,-1.6451,-1.6242,-1.6195,-1.6343,-1.6423,-1.6434,-1.6474,-1.6267,-1.5979,-1.5403,-1.495,-1.4554,-1.4132,-1.3844,-1.3732,-1.3631,-1.3517,-1.3551,-1.3382,-1.3106,-1.2898,-1.2779,-1.2569,-1.237,-1.2299,-1.2203,-1.2013,-1.1851,-3.8639,-3.82,-3.82,-3.7952,-3.7505,-3.7214,-3.6922,-3.6628,-3.6193,-3.5812,-3.5464,-3.5017,-3.4543,-3.4113,-3.3828,-3.3542,-3.3181,-3.298,-3.2566,-3.207,-3.2137,-3.1676,-3.1057,-3.0557,-3.0141,-2.9827,-2.9353,-2.9089,-2.8877,-2.8475,-2.797,-2.7462,-2.7495,-2.7199,-2.6573,-2.6673,-2.6524,-2.5943,-2.5746,-2.5531,-2.5305,-2.5029,-2.4862,-2.4637,-2.4399,-2.4242,-2.4093,-2.3773,-2.3471,-2.3073,-2.2507,-2.2122,-2.2155,-2.1929,-2.1645,-2.1454,-2.1304,-2.1154,-2.1059,-2.0976,-2.0956,-2.0894,-2.091,-2.0907,-2.066,-2.0161,-1.9854,-1.961,-1.9065,-1.8363,-1.7904,-1.753,-1.7428,-1.7374,-1.7203,-1.7102,-1.7088,-1.7088,-1.7283,-1.7417,-1.7297,-1.7113,-1.7239,-1.7106,-1.6925,-1.6683,-1.6494,-1.6353,-1.6211,-1.6076,-1.617,-1.6305,-1.6285,-1.6277,-1.6246,-1.5851,-1.5126,-1.4646,-1.4255,-1.3864,-1.3613,-1.358,-1.3554,-1.3587,-1.3646,-1.3394,-1.2968,-1.2983,-1.2839,-1.2579,-1.2339,-1.234,-1.2322,-1.2107,-1.196,-3.898,-3.8517,-3.844,-3.8181,-3.7802,-3.7446,-3.7108,-3.6875,-3.6499,-3.6038,-3.562,-3.5271,-3.4835,-3.4249,-3.3977,-3.3729,-3.3431,-3.3081,-3.2667,-3.2285,-3.224,-3.1837,-3.1253,-3.0765,-3.0412,-2.9942,-2.9396,-2.9079,-2.8824,-2.8495,-2.813,-2.7757,-2.7781,-2.7492,-2.694,-2.6974,-2.6546,-2.5897,-2.5841,-2.5622,-2.5181,-2.5189,-2.5034,-2.4723,-2.444,-2.4291,-2.4192,-2.3945,-2.3696,-2.3347,-2.2837,-2.2443,-2.2341,-2.2172,-2.1946,-2.167,-2.1678,-2.1528,-2.1327,-2.1373,-2.1404,-2.1275,-2.1318,-2.1216,-2.096,-2.0498,-2.012,-1.9893,-1.9297,-1.8569,-1.8108,-1.7933,-1.7794,-1.7702,-1.7416,-1.7258,-1.7352,-1.7294,-1.7111,-1.7292,-1.7194,-1.7094,-1.7051,-1.6914,-1.669,-1.6454,-1.6353,-1.6211,-1.6015,-1.5927,-1.5933,-1.6028,-1.6021,-1.6028,-1.6121,-1.5661,-1.4781,-1.4348,-1.3949,-1.3655,-1.3353,-1.3444,-1.3591,-1.347,-1.3288,-1.3142,-1.2843,-1.2881,-1.2851,-1.265,-1.2499,-1.2512,-1.2445,-1.2278,-1.2218,-3.9407,-3.8966,-3.8724,-3.8498,-3.8167,-3.7723,-3.74,-3.7155,-3.6815,-3.631,-3.58,-3.5656,-3.5126,-3.4543,-3.4162,-3.3927,-3.3603,-3.338,-3.3022,-3.2667,-3.2423,-3.2035,-3.1495,-3.1006,-3.0568,-3.0047,-2.9406,-2.9036,-2.8771,-2.8451,-2.8208,-2.8165,-2.8057,-2.7678,-2.7394,-2.734,-2.6814,-2.586,-2.6005,-2.5863,-2.5266,-2.5314,-2.5161,-2.481,-2.4669,-2.4424,-2.4257,-2.4076,-2.3836,-2.3406,-2.3206,-2.2745,-2.2307,-2.2079,-2.1933,-2.1495,-2.167,-2.1645,-2.1537,-2.1568,-2.1674,-2.1674,-2.1471,-2.1318,-2.1113,-2.0652,-2.0225,-1.9861,-1.933,-1.8679,-1.8408,-1.824,-1.8198,-1.812,-1.7687,-1.7569,-1.7654,-1.7548,-1.7287,-1.6971,-1.6936,-1.6831,-1.6748,-1.6665,-1.6441,-1.6265,-1.617,-1.6069,-1.5879,-1.5778,-1.5784,-1.5784,-1.5784,-1.5438,-1.5405,-1.5456,-1.4582,-1.4017,-1.3673,-1.3481,-1.3204,-1.327,-1.3313,-1.3003,-1.282,-1.2723,-1.2717,-1.2687,-1.265,-1.2619,-1.2565,-1.248,-1.2438,-1.2456,-1.2395,-3.9496,-3.9203,-3.8966,-3.8607,-3.82,-3.7965,-3.7716,-3.7366,-3.6934,-3.6534,-3.6241,-3.58,-3.532,-3.4738,-3.4261,-3.3828,-3.355,-3.3495,-3.3407,-3.305,-3.2833,-3.2524,-3.1982,-3.1163,-3.0734,-3.0412,-2.9722,-2.9132,-2.893,-2.8558,-2.8291,-2.8067,-2.813,-2.7862,-2.7368,-2.7187,-2.6927,-2.6044,-2.6046,-2.5844,-2.5481,-2.5345,-2.5073,-2.4746,-2.4705,-2.4546,-2.4358,-2.4414,-2.4267,-2.35,-2.3356,-2.3046,-2.2644,-2.2466,-2.2391,-2.2248,-2.2088,-2.1963,-2.1845,-2.176,-2.1725,-2.1623,-2.1479,-2.1318,-2.1165,-2.0763,-2.0351,-1.9907,-1.9367,-1.8825,-1.8708,-1.854,-1.8208,-1.8009,-1.7761,-1.7463,-1.7405,-1.7346,-1.7403,-1.7183,-1.685,-1.6539,-1.6546,-1.6464,-1.6252,-1.6062,-1.5927,-1.5784,-1.5594,-1.5547,-1.5547,-1.5547,-1.5547,-1.5059,-1.4637,-1.4728,-1.4442,-1.3823,-1.3471,-1.3433,-1.3242,-1.3155,-1.3009,-1.279,-1.2662,-1.265,-1.2613,-1.2534,-1.2491,-1.2491,-1.2448,-1.2406,-1.2388,-1.2328,-1.2128,-3.9862,-3.9523,-3.9528,-3.919,-3.8597,-3.853,-3.8385,-3.802,-3.7389,-3.6993,-3.6681,-3.6127,-3.55,-3.4969,-3.4494,-3.3965,-3.3661,-3.3538,-3.3435,-3.3079,-3.2864,-3.2597,-3.2178,-3.1223,-3.09,-3.0505,-2.9869,-2.9237,-2.9079,-2.8717,-2.8344,-2.8237,-2.8237,-2.8023,-2.7584,-2.7422,-2.698,-2.6398,-2.624,-2.6131,-2.5754,-2.5678,-2.5438,-2.5028,-2.4872,-2.4679,-2.4386,-2.4372,-2.413,-2.3606,-2.3556,-2.3239,-2.2857,-2.2748,-2.2791,-2.2586,-2.2434,-2.2182,-2.2021,-2.1827,-2.1827,-2.1522,-2.1377,-2.1318,-2.1165,-2.0814,-2.0359,-1.9893,-1.9642,-1.9192,-1.9089,-1.8869,-1.8724,-1.8426,-1.8007,-1.7663,-1.7404,-1.7259,-1.7302,-1.739,-1.726,-1.6929,-1.6483,-1.6367,-1.6143,-1.5912,-1.575,-1.554,-1.5309,-1.5309,-1.5309,-1.5309,-1.5296,-1.5016,-1.455,-1.4487,-1.434,-1.3718,-1.3399,-1.3318,-1.32,-1.3133,-1.2973,-1.2747,-1.2662,-1.2577,-1.2577,-1.2534,-1.2448,-1.2406,-1.2283,-1.2235,-1.2254,-1.2188,-1.1958,-4.0336,-3.9887,-4.0136,-3.9857,-3.9204,-3.9049,-3.8906,-3.8626,-3.7831,-3.7386,-3.7162,-3.6541,-3.5959,-3.5296,-3.464,-3.4113,-3.3729,-3.3454,-3.3234,-3.3095,-3.2707,-3.2386,-3.2017,-3.1303,-3.0776,-3.0672,-3.0088,-2.9501,-2.9132,-2.8824,-2.8568,-2.8344,-2.8291,-2.8184,-2.7853,-2.7647,-2.7122,-2.6836,-2.6632,-2.6461,-2.6166,-2.6134,-2.5943,-2.5247,-2.5164,-2.4891,-2.4398,-2.4436,-2.4005,-2.3671,-2.3553,-2.3449,-2.2824,-2.2826,-2.2843,-2.2663,-2.2603,-2.2291,-2.203,-2.1878,-2.1776,-2.1471,-2.1267,-2.1267,-2.1173,-2.0814,-2.0308,-1.9887,-1.9665,-1.9546,-1.928,-1.925,-1.9079,-1.8724,-1.8288,-1.7942,-1.7548,-1.738,-1.7264,-1.7336,-1.7486,-1.7231,-1.679,-1.6112,-1.5863,-1.5813,-1.5652,-1.5261,-1.507,-1.5029,-1.5029,-1.5029,-1.5032,-1.4911,-1.4674,-1.4501,-1.4232,-1.3732,-1.3502,-1.3428,-1.3268,-1.3083,-1.2899,-1.2753,-1.2619,-1.2534,-1.2534,-1.2491,-1.2448,-1.2363,-1.216,-1.2075,-1.21,-1.1972,-1.1752,-4.099,-4.031,-4.0477,-4.0341,-3.9893,-3.909,-3.8832,-3.8932,-3.797,-3.7498,-3.7561,-3.7159,-3.6593,-3.5767,-3.4652,-3.4026,-3.3729,-3.3454,-3.3353,-3.3294,-3.2814,-3.2543,-3.2461,-3.135,-3.0911,-3.0734,-3.0256,-2.9669,-2.9237,-2.8887,-2.8568,-2.8344,-2.8291,-2.8184,-2.796,-2.7853,-2.7663,-2.7302,-2.707,-2.6641,-2.6175,-2.6102,-2.5835,-2.5531,-2.5323,-2.5067,-2.4609,-2.4582,-2.4253,-2.3283,-2.339,-2.3219,-2.2739,-2.262,-2.2654,-2.2611,-2.2603,-2.2443,-2.2072,-2.1928,-2.1725,-2.1471,-2.1224,-2.113,-2.1078,-2.0822,-2.0411,-2.0078,-1.9879,-1.9576,-1.9376,-1.9272,-1.9011,-1.8691,-1.8411,-1.8057,-1.7678,-1.7466,-1.7407,-1.7335,-1.7459,-1.732,-1.7021,-1.6272,-1.5597,-1.5566,-1.5496,-1.5153,-1.4831,-1.479,-1.4742,-1.479,-1.4831,-1.4719,-1.4757,-1.459,-1.4325,-1.3842,-1.3658,-1.3554,-1.3367,-1.3183,-1.2922,-1.2782,-1.2636,-1.2454,-1.2363,-1.2363,-1.2406,-1.2283,-1.2037,-1.1995,-1.1995,-1.178,-1.1478,-4.1451,-4.06,-4.0877,-4.055,-3.9918,-3.9631,-3.9385,-3.9084,-3.828,-3.8087,-3.8286,-3.7703,-3.6903,-3.5965,-3.4967,-3.431,-3.3915,-3.363,-3.3473,-3.3304,-3.2842,-3.2566,-3.235,-3.1606,-3.0993,-3.0724,-3.0412,-2.9984,-2.9459,-2.9079,-2.8717,-2.8344,-2.8291,-2.8237,-2.8067,-2.796,-2.7853,-2.7628,-2.7349,-2.7004,-2.6658,-2.653,-2.6266,-2.5782,-2.5754,-2.5372,-2.4921,-2.4596,-2.4276,-2.3512,-2.3531,-2.3236,-2.2816,-2.2715,-2.2758,-2.2333,-2.2493,-2.2342,-2.1928,-2.1928,-2.1674,-2.1369,-2.1173,-2.1121,-2.107,-2.0873,-2.0514,-2.0138,-2.0034,-1.9724,-1.9376,-1.9272,-1.8952,-1.8639,-1.8422,-1.8055,-1.7793,-1.7694,-1.7535,-1.7456,-1.7357,-1.7244,-1.7048,-1.6514,-1.5795,-1.5382,-1.5259,-1.4939,-1.4653,-1.4496,-1.4496,-1.4496,-1.4538,-1.4555,-1.462,-1.4605,-1.4599,-1.4235,-1.389,-1.3752,-1.358,-1.335,-1.3071,-1.2792,-1.261,-1.2433,-1.2258,-1.2155,-1.2198,-1.2037,-1.1914,-1.1871,-1.1828,-1.1435,-1.1176,-4.1639,-4.0915,-4.1325,-4.0944,-4.0076,-4.0309,-4.0175,-3.9634,-3.8839,-3.868,-3.8713,-3.791,-3.6891,-3.6186,-3.5296,-3.4543,-3.4174,-3.3878,-3.363,-3.3281,-3.2857,-3.2555,-3.2245,-3.164,-3.1034,-3.0776,-3.0495,-3.0078,-2.9659,-2.9343,-2.8973,-2.8408,-2.8354,-2.8301,-2.8237,-2.813,-2.796,-2.7853,-2.753,-2.7241,-2.7006,-2.6862,-2.6596,-2.6286,-2.6032,-2.5754,-2.5237,-2.487,-2.4368,-2.3878,-2.3652,-2.3306,-2.285,-2.2825,-2.2656,-2.2316,-2.2434,-2.2342,-2.1979,-2.1768,-2.1564,-2.1267,-2.107,-2.107,-2.0917,-2.0865,-2.066,-2.0138,-1.9983,-1.9732,-1.9428,-1.9272,-1.8959,-1.8639,-1.837,-1.8055,-1.774,-1.7641,-1.7582,-1.7503,-1.739,-1.716,-1.6977,-1.6626,-1.6036,-1.5382,-1.5023,-1.4783,-1.4576,-1.434,-1.4419,-1.4431,-1.4406,-1.4479,-1.4594,-1.4666,-1.4647,-1.4506,-1.4155,-1.3936,-1.3734,-1.3474,-1.3189,-1.2927,-1.2598,-1.2308,-1.2034,-1.2017,-1.1952,-1.1957,-1.1871,-1.1785,-1.1613,-1.1219,-1.0911,-4.1578,-4.1411,-4.1922,-4.1574,-4.0766,-4.0986,-4.0821,-4.03,-3.9382,-3.8991,-3.8843,-3.7638,-3.6968,-3.6465,-3.5563,-3.4786,-3.4347,-3.3915,-3.3729,-3.3419,-3.2958,-3.2606,-3.2252,-3.1732,-3.1148,-3.0829,-3.0589,-3.0193,-2.9711,-2.9522,-2.9152,-2.8727,-2.8514,-2.8354,-2.8291,-2.8237,-2.8121,-2.796,-2.7691,-2.7368,-2.7043,-2.6899,-2.6654,-2.6508,-2.6188,-2.5861,-2.5594,-2.5236,-2.4712,-2.4104,-2.3861,-2.3557,-2.3142,-2.2868,-2.2613,-2.2308,-2.2409,-2.2249,-2.1878,-2.1776,-2.1564,-2.1318,-2.107,-2.0968,-2.0814,-2.0617,-2.0403,-2.0138,-1.9887,-1.9628,-1.9376,-1.922,-1.8966,-1.8541,-1.8272,-1.8062,-1.7799,-1.7641,-1.7582,-1.7523,-1.7423,-1.7239,-1.6938,-1.6626,-1.6218,-1.5581,-1.4979,-1.4728,-1.4546,-1.4413,-1.4479,-1.4479,-1.437,-1.4455,-1.4576,-1.4582,-1.4455,-1.4262,-1.4003,-1.3901,-1.3824,-1.3556,-1.3021,-1.29,-1.2526,-1.2184,-1.1852,-1.1824,-1.1796,-1.1877,-1.1828,-1.1564,-1.13,-1.0949,-1.0733,-4.1577,-4.1482,-4.2287,-4.1833,-4.0572,-4.047,-4.0209,-3.9762,-3.9216,-3.8938,-3.8791,-3.8234,-3.7625,-3.6943,-3.6235,-3.532,-3.4676,-3.4162,-3.3915,-3.3519,-3.3119,-3.2718,-3.2353,-3.198,-3.1555,-3.1187,-3.0841,-3.0559,-3.0281,-2.9686,-2.9258,-2.893,-2.8664,-2.8461,-2.8354,-2.8301,-2.8237,-2.8184,-2.797,-2.7745,-2.7314,-2.7161,-2.6954,-2.6609,-2.6499,-2.6235,-2.5928,-2.5595,-2.5058,-2.4509,-2.4166,-2.3783,-2.3393,-2.3092,-2.2664,-2.2306,-2.2443,-2.2224,-2.1878,-2.1776,-2.1776,-2.1318,-2.107,-2.0814,-2.0712,-2.0573,-2.0256,-1.999,-1.9783,-1.9532,-1.9123,-1.9026,-1.8817,-1.8384,-1.8069,-1.7957,-1.7799,-1.7641,-1.7536,-1.7477,-1.7437,-1.7324,-1.6964,-1.6606,-1.6238,-1.5766,-1.5224,-1.4727,-1.4594,-1.4497,-1.4552,-1.4515,-1.4395,-1.4322,-1.4473,-1.4388,-1.4256,-1.4016,-1.3814,-1.3707,-1.3566,-1.3015,-1.2592,-1.2502,-1.2479,-1.2126,-1.1877,-1.1657,-1.1597,-1.1667,-1.144,-1.1132,-1.0862,-1.0684,-1.0554,-4.1675,-4.1594,-4.2365,-4.1929,-4.0775,-4.0941,-4.0642,-3.9951,-3.9649,-3.9028,-3.8548,-3.8584,-3.8079,-3.7182,-3.6772,-3.5941,-3.509,-3.4506,-3.4174,-3.3729,-3.3281,-3.2869,-3.2505,-3.2121,-3.1647,-3.1335,-3.102,-3.0706,-3.0346,-2.9697,-2.9436,-2.9237,-2.8983,-2.8664,-2.8354,-2.8301,-2.8301,-2.8301,-2.8184,-2.8023,-2.7584,-2.7314,-2.7161,-2.6745,-2.6654,-2.6491,-2.6209,-2.5928,-2.5514,-2.4978,-2.4534,-2.4165,-2.379,-2.3365,-2.2849,-2.2558,-2.2424,-2.2325,-2.186,-2.1776,-2.1725,-2.1224,-2.1019,-2.0814,-2.0668,-2.0522,-2.0197,-1.9939,-1.9732,-1.9383,-1.8928,-1.8928,-1.866,-1.8227,-1.8069,-1.7964,-1.7747,-1.7589,-1.7536,-1.7424,-1.7391,-1.7266,-1.6911,-1.6545,-1.6043,-1.5756,-1.5442,-1.4962,-1.469,-1.4618,-1.4612,-1.4533,-1.4395,-1.4346,-1.4322,-1.4214,-1.4022,-1.3667,-1.3482,-1.3369,-1.3132,-1.2634,-1.2363,-1.2472,-1.2367,-1.2107,-1.1854,-1.1668,-1.1505,-1.1365,-1.1138,-1.0959,-1.0733,-1.0598,-1.0337,-4.1939,-4.1747,-4.2181,-4.1963,-4.1432,-4.2837,-4.2521,-4.1051,-4.0518,-3.9587,-3.8392,-3.84,-3.7865,-3.7026,-3.7008,-3.6366,-3.5405,-3.492,-3.4494,-3.4064,-3.353,-3.3019,-3.2606,-3.2161,-3.179,-3.1015,-3.0807,-3.0569,-3.0181,-2.9888,-2.9732,-2.9448,-2.9132,-2.8761,-2.8344,-2.8301,-2.8301,-2.8237,-2.8067,-2.796,-2.7691,-2.7314,-2.7107,-2.6845,-2.6691,-2.6537,-2.6436,-2.6236,-2.5883,-2.5451,-2.5066,-2.4648,-2.4218,-2.3582,-2.3003,-2.2484,-2.259,-2.2235,-2.1493,-2.1597,-2.142,-2.1078,-2.0917,-2.0822,-2.0763,-2.0447,-2.0086,-1.9835,-1.9532,-1.9227,-1.8981,-1.8824,-1.8443,-1.8174,-1.8016,-1.7859,-1.7641,-1.7589,-1.7529,-1.7318,-1.7166,-1.7067,-1.6789,-1.6396,-1.5956,-1.5631,-1.5503,-1.5221,-1.4871,-1.469,-1.466,-1.4503,-1.4364,-1.4244,-1.4201,-1.4015,-1.3841,-1.3443,-1.3136,-1.3017,-1.2969,-1.2704,-1.2559,-1.251,-1.2354,-1.2164,-1.1908,-1.1709,-1.1568,-1.1428,-1.1121,-1.0873,-1.0689,-1.0502,-1.028,-4.1939,-4.1745,-4.2294,-4.2224,-4.1801,-4.1755,-4.1304,-4.0477,-3.9758,-3.9117,-3.8593,-3.8555,-3.813,-3.7488,-3.7121,-3.6753,-3.5982,-3.5017,-3.464,-3.4506,-3.3866,-3.3269,-3.2757,-3.2426,-3.2039,-3.1542,-3.1124,-3.0852,-3.0736,-3.0212,-2.9784,-2.9501,-2.9142,-2.8664,-2.8398,-2.8301,-2.8301,-2.8301,-2.8184,-2.8023,-2.7647,-2.7368,-2.7098,-2.6791,-2.6691,-2.6591,-2.6591,-2.6418,-2.62,-2.5901,-2.5548,-2.5251,-2.4762,-2.4094,-2.3468,-2.2972,-2.2896,-2.2401,-2.1781,-2.1572,-2.1283,-2.1035,-2.0873,-2.0719,-2.0447,-2.0233,-1.9931,-1.9635,-1.9331,-1.8974,-1.8646,-1.8391,-1.8069,-1.7852,-1.7694,-1.7536,-1.743,-1.7529,-1.7477,-1.716,-1.6955,-1.6802,-1.6537,-1.6371,-1.5921,-1.5658,-1.5517,-1.5336,-1.5016,-1.4769,-1.4648,-1.4461,-1.4286,-1.4171,-1.4081,-1.39,-1.3545,-1.3098,-1.2802,-1.2603,-1.2559,-1.2516,-1.2479,-1.232,-1.2294,-1.2214,-1.2058,-1.1911,-1.1716,-1.1504,-1.1167,-1.0799,-1.0516,-1.0402,-1.0316,-4.2141,-4.1774,-4.2252,-4.2167,-4.1694,-4.1446,-4.088,-4.0018,-3.9226,-3.8832,-3.8754,-3.8774,-3.854,-3.7997,-3.7663,-3.7205,-3.6634,-3.5693,-3.4872,-3.4787,-3.4261,-3.3618,-3.3108,-3.2667,-3.2221,-3.1813,-3.127,-3.0945,-3.0737,-3.0203,-2.9827,-2.9501,-2.9089,-2.8771,-2.8504,-2.8408,-2.8301,-2.8301,-2.8237,-2.8077,-2.7755,-2.7422,-2.7152,-2.6899,-2.6691,-2.6591,-2.6591,-2.6527,-2.6473,-2.6181,-2.5953,-2.5734,-2.5175,-2.4477,-2.3831,-2.3299,-2.2578,-2.2218,-2.184,-2.1575,-2.1275,-2.0968,-2.0857,-2.0624,-2.0248,-2.0086,-1.9828,-1.9472,-1.913,-1.8757,-1.8482,-1.8174,-1.7911,-1.7694,-1.7589,-1.7483,-1.743,-1.7529,-1.7318,-1.7001,-1.669,-1.6537,-1.6324,-1.6211,-1.599,-1.5757,-1.5578,-1.5354,-1.5068,-1.4797,-1.4563,-1.4382,-1.4178,-1.4063,-1.3876,-1.3701,-1.3298,-1.2807,-1.2575,-1.2353,-1.2078,-1.198,-1.2078,-1.217,-1.2255,-1.2278,-1.2283,-1.2117,-1.1833,-1.1509,-1.1135,-1.0751,-1.0391,-1.0268,-1.0312,-4.2489,-4.1846,-4.211,-4.181,-4.1269,-4.1761,-4.1304,-4.0124,-3.9285,-3.8908,-3.8904,-3.8978,-3.8826,-3.8671,-3.8415,-3.789,-3.7142,-3.6333,-3.5597,-3.4969,-3.4543,-3.3904,-3.3408,-3.2969,-3.242,-3.1826,-3.1333,-3.1004,-3.0527,-3.0203,-2.9984,-2.9659,-2.929,-2.8983,-2.8674,-2.8514,-2.8354,-2.8301,-2.8291,-2.813,-2.7809,-2.7539,-2.726,-2.6944,-2.6745,-2.6636,-2.6591,-2.6582,-2.6409,-2.6181,-2.5907,-2.5624,-2.504,-2.4274,-2.3749,-2.3011,-2.2051,-2.1909,-2.1959,-2.1701,-2.1373,-2.1121,-2.0771,-2.0631,-2.0315,-1.9939,-1.9732,-1.9472,-1.9123,-1.8803,-1.8429,-1.8167,-1.7905,-1.7747,-1.7641,-1.7536,-1.7477,-1.7371,-1.7107,-1.6842,-1.653,-1.6324,-1.6105,-1.5939,-1.598,-1.5694,-1.5461,-1.5134,-1.4895,-1.4626,-1.4411,-1.4213,-1.4045,-1.387,-1.3736,-1.3616,-1.3225,-1.2724,-1.242,-1.217,-1.1835,-1.1639,-1.1785,-1.1975,-1.2224,-1.2335,-1.2294,-1.2125,-1.1848,-1.1508,-1.1206,-1.0919,-1.0626,-1.0364,-1.0297,-4.2587,-4.1982,-4.1918,-4.1881,-4.1867,-4.1463,-4.0704,-3.9813,-3.9346,-3.91,-3.8863,-3.8794,-3.8873,-3.8918,-3.8132,-3.7827,-3.7384,-3.6779,-3.6017,-3.5416,-3.4872,-3.4237,-3.3706,-3.3208,-3.2656,-3.2099,-3.1589,-3.1273,-3.0672,-3.0401,-2.9973,-2.9606,-2.9448,-2.9142,-2.8834,-2.8621,-2.8461,-2.8354,-2.8291,-2.813,-2.7906,-2.7584,-2.726,-2.6999,-2.6745,-2.6646,-2.6591,-2.6591,-2.6527,-2.6418,-2.6354,-2.6127,-2.5507,-2.4755,-2.4096,-2.2941,-2.2282,-2.1909,-2.2233,-2.2013,-2.169,-2.1366,-2.1091,-2.049,-2.0128,-1.9851,-1.9658,-1.9501,-1.9253,-1.896,-1.8594,-1.8303,-1.7998,-1.7806,-1.7641,-1.7529,-1.7477,-1.7378,-1.7113,-1.6789,-1.6477,-1.6271,-1.5998,-1.5885,-1.5855,-1.5635,-1.535,-1.5031,-1.4684,-1.4473,-1.4168,-1.3978,-1.3957,-1.3857,-1.3688,-1.3579,-1.3148,-1.2728,-1.2331,-1.1988,-1.1673,-1.1536,-1.1585,-1.1785,-1.2127,-1.2306,-1.2356,-1.2146,-1.191,-1.1647,-1.1333,-1.1118,-1.0876,-1.0576,-1.0353,-4.256,-4.1816,-4.1633,-4.1738,-4.1864,-4.1204,-4.0584,-4.0103,-3.9591,-3.9203,-3.9038,-3.8991,-3.903,-3.9084,-3.8423,-3.8049,-3.8045,-3.7013,-3.6263,-3.5883,-3.5259,-3.4568,-3.404,-3.3557,-3.2958,-3.2375,-3.1976,-3.1663,-3.0891,-3.0308,-2.9879,-2.9774,-2.9606,-2.9248,-2.8877,-2.8664,-2.8461,-2.8354,-2.8237,-2.8121,-2.7906,-2.7584,-2.7314,-2.7053,-2.6745,-2.6646,-2.6591,-2.6591,-2.6591,-2.6582,-2.6527,-2.6181,-2.5553,-2.4825,-2.3927,-2.2909,-2.2425,-2.2264,-2.237,-2.2354,-2.2015,-2.1758,-2.1542,-2.1025,-2.043,-2.0067,-1.99,-1.9747,-1.9423,-1.9159,-1.8801,-1.8446,-1.8099,-1.7813,-1.7701,-1.7536,-1.7483,-1.7437,-1.7113,-1.673,-1.6471,-1.6271,-1.6111,-1.5998,-1.5861,-1.5677,-1.544,-1.5116,-1.4716,-1.4362,-1.3961,-1.3605,-1.3722,-1.3827,-1.3657,-1.3472,-1.3044,-1.2539,-1.2098,-1.1766,-1.1507,-1.1438,-1.1438,-1.1731,-1.2078,-1.2209,-1.2344,-1.2252,-1.2029,-1.1734,-1.1463,-1.1207,-1.0929,-1.0656,-1.0443,-4.2419,-4.1494,-4.1453,-4.1554,-4.1529,-4.1116,-4.0893,-4.078,-3.9772,-3.9292,-3.9311,-3.9323,-3.9348,-3.9382,-3.8753,-3.8491,-3.8149,-3.7326,-3.6581,-3.6358,-3.5644,-3.4969,-3.4372,-3.3892,-3.3358,-3.2864,-3.2405,-3.188,-3.0943,-3.0349,-3.0036,-3.0005,-2.9501,-2.9185,-2.9026,-2.8664,-2.8461,-2.8301,-2.8291,-2.8184,-2.7916,-2.7638,-2.726,-2.7053,-2.6791,-2.6591,-2.6591,-2.6591,-2.6591,-2.6473,-2.6364,-2.6072,-2.5348,-2.4511,-2.3548,-2.3013,-2.2584,-2.2532,-2.2553,-2.2553,-2.2379,-2.223,-2.2119,-2.1587,-2.0974,-2.0394,-2.0234,-2.0011,-1.9744,-1.9531,-1.9237,-1.8912,-1.8574,-1.8156,-1.7908,-1.7675,-1.7543,-1.7384,-1.706,-1.6683,-1.6424,-1.6217,-1.6057,-1.5945,-1.5737,-1.5672,-1.5463,-1.5111,-1.4745,-1.4292,-1.3964,-1.3509,-1.364,-1.3774,-1.3568,-1.3303,-1.292,-1.2404,-1.1969,-1.1555,-1.136,-1.1296,-1.1292,-1.1634,-1.198,-1.217,-1.2262,-1.217,-1.2024,-1.1809,-1.1551,-1.1277,-1.1028,-1.0756,-1.0529,-4.2602,-4.1928,-4.2038,-4.1894,-4.1571,-4.1321,-4.1113,-4.0807,-3.9991,-3.951,-3.9301,-3.9195,-3.9379,-3.9741,-3.8932,-3.8613,-3.8588,-3.76,-3.6857,-3.6465,-3.5943,-3.5356,-3.4775,-3.4335,-3.3755,-3.3192,-3.2656,-3.1969,-3.1079,-3.0496,-3.0183,-2.9994,-2.9606,-2.9343,-2.9079,-2.8717,-2.8514,-2.8291,-2.8291,-2.8237,-2.8077,-2.7701,-2.7323,-2.7161,-2.6954,-2.6636,-2.6591,-2.6591,-2.6591,-2.6582,-2.6527,-2.6037,-2.5253,-2.4127,-2.3498,-2.3127,-2.28,-2.2719,-2.2776,-2.2807,-2.268,-2.2506,-2.2323,-2.1982,-2.1488,-2.094,-2.0533,-2.0321,-2.0143,-1.9935,-1.9671,-1.9356,-1.8979,-1.8529,-1.809,-1.7842,-1.7595,-1.7331,-1.6961,-1.6696,-1.6436,-1.6217,-1.6051,-1.5844,-1.569,-1.5476,-1.5305,-1.5007,-1.4654,-1.4259,-1.4225,-1.3881,-1.3724,-1.3719,-1.3532,-1.3276,-1.2918,-1.2461,-1.2029,-1.1652,-1.1281,-1.1344,-1.1412,-1.1609,-1.1834,-1.1975,-1.2073,-1.2078,-1.1932,-1.1736,-1.1536,-1.1243,-1.1145,-1.0881,-1.0627,-4.2341,-4.1943,-4.211,-4.2148,-4.2022,-4.1828,-4.1636,-4.1332,-4.0522,-3.9844,-3.9557,-3.9627,-3.9744,-3.9874,-3.915,-3.8635,-3.8734,-3.7756,-3.7172,-3.6747,-3.6275,-3.5656,-3.5163,-3.4677,-3.3953,-3.3369,-3.2465,-3.1695,-3.1227,-3.061,-3.0287,-3.0099,-2.9837,-2.9448,-2.9079,-2.8824,-2.8568,-2.8344,-2.8301,-2.8267,-2.815,-2.7701,-2.7431,-2.7269,-2.6954,-2.6691,-2.6591,-2.6591,-2.6591,-2.6527,-2.6418,-2.6082,-2.5411,-2.464,-2.4001,-2.3552,-2.3236,-2.2975,-2.3007,-2.2982,-2.2919,-2.2743,-2.2559,-2.224,-2.1902,-2.1339,-2.1059,-2.0898,-2.0786,-2.0574,-2.0084,-1.9659,-1.9252,-1.8798,-1.8254,-1.7867,-1.7701,-1.7483,-1.7226,-1.6967,-1.6696,-1.643,-1.6211,-1.5945,-1.5737,-1.547,-1.5229,-1.4971,-1.4645,-1.4356,-1.4289,-1.4156,-1.3988,-1.378,-1.3553,-1.3305,-1.3003,-1.2577,-1.2128,-1.1878,-1.1622,-1.1558,-1.1588,-1.1595,-1.1639,-1.1785,-1.1834,-1.1883,-1.1834,-1.1688,-1.1438,-1.1194,-1.1096,-1.0953,-1.0699,-4.1968,-4.1705,-4.1825,-4.2202,-4.25,-4.2251,-4.2102,-4.1984,-4.1152,-4.0278,-3.982,-4.0326,-3.9927,-3.9604,-3.9435,-3.8972,-3.8431,-3.7866,-3.7426,-3.7015,-3.6593,-3.6026,-3.5464,-3.4932,-3.415,-3.3308,-3.2403,-3.2027,-3.1749,-3.102,-3.0464,-3.0329,-2.99,-2.9396,-2.9079,-2.8824,-2.8568,-2.8393,-2.8315,-2.8247,-2.7939,-2.7603,-2.7431,-2.7171,-2.6909,-2.6636,-2.6591,-2.6591,-2.6591,-2.6473,-2.63,-2.599,-2.558,-2.4977,-2.445,-2.3997,-2.3551,-2.3303,-2.3183,-2.307,-2.2998,-2.2942,-2.274,-2.2505,-2.2142,-2.1858,-2.1566,-2.1266,-2.1152,-2.0883,-2.0383,-1.9877,-1.9438,-1.8978,-1.8457,-1.7879,-1.7701,-1.7529,-1.7331,-1.7126,-1.6855,-1.653,-1.6318,-1.6051,-1.5791,-1.5529,-1.5261,-1.4987,-1.468,-1.4489,-1.4358,-1.4219,-1.4087,-1.3814,-1.364,-1.3332,-1.3039,-1.2843,-1.2451,-1.2229,-1.1943,-1.1631,-1.1446,-1.1334,-1.1394,-1.1585,-1.1634,-1.1688,-1.1634,-1.1585,-1.1389,-1.1194,-1.0998,-1.0904,-1.0659,-4.187,-4.148,-4.1496,-4.1908,-4.2446,-4.1978,-4.1887,-4.2074,-4.1452,-4.0617,-4.0018,-4.024,-4.0205,-3.9607,-3.9154,-3.8834,-3.8714,-3.809,-3.7564,-3.7108,-3.6815,-3.631,-3.58,-3.5175,-3.4176,-3.3346,-3.2639,-3.2365,-3.1891,-3.1175,-3.0684,-3.061,-2.9888,-2.9363,-2.8834,-2.8684,-2.8597,-2.8515,-2.8569,-2.8577,-2.8257,-2.786,-2.7342,-2.7053,-2.6736,-2.6636,-2.6591,-2.6591,-2.6591,-2.6527,-2.63,-2.6017,-2.5679,-2.5238,-2.4748,-2.4248,-2.3865,-2.3528,-2.336,-2.3127,-2.3014,-2.3014,-2.2788,-2.2562,-2.2271,-2.1987,-2.1623,-2.118,-2.1057,-2.083,-2.0361,-1.9978,-1.9574,-1.906,-1.8551,-1.792,-1.7549,-1.7384,-1.7226,-1.6961,-1.6696,-1.6477,-1.6324,-1.6057,-1.5791,-1.5523,-1.5256,-1.4982,-1.4821,-1.4606,-1.4396,-1.4261,-1.4116,-1.3992,-1.3798,-1.338,-1.3116,-1.294,-1.2746,-1.2414,-1.2036,-1.1529,-1.1344,-1.1323,-1.1369,-1.1536,-1.1585,-1.1487,-1.1536,-1.1487,-1.134,-1.1145,-1.1002,-1.0806,-1.056]},{"header":{"parameterUnit":"m.s-1","parameterCategory":1,"la1":31.0,"la2":29.5877,"lo1":-88.7671,"lo2":-86.6584,"dy":0.0162,"dx":0.0185,"nx":115,"ny":88,"refTime":"2023-05-10T06:00:00:Z","depth":0,"parameterNumber":3,"parameterNumberName":"V-component_of_WINDS"},"data":[0.0,0.0,0.0,0.0,0.0,0.0,0.0,0.0,0.0,0.0,0.0,0.0,0.0,0.0,0.0,0.0,0.0,0.0,0.0,0.0,0.0,0.0,0.0,0.0,0.0,0.0,0.0,0.0,0.0,0.0,0.0,0.0,0.0,0.0,0.0,0.0,0.0,0.0,0.0,0.0,0.0,0.0,0.0,0.0,0.0,0.0,0.0,0.0,0.0,0.0,0.0,0.0,0.0,0.0,0.0,0.0,0.0,0.0,0.0,0.0,0.0,0.0,0.0,0.0,0.0,0.0,0.0,0.0,0.0,0.0,0.0,0.0,0.0,0.0,0.0,0.0,0.0,0.0,0.0,0.0,0.0,0.0,0.0,0.0,0.0,0.0,0.0,0.0,0.0,0.0,0.0,0.0,0.0,0.0,0.0,0.0,0.0,0.0,0.0,0.0,0.0,0.0,0.0,0.0,0.0,0.0,0.0,0.0,0.0,0.0,0.0,0.0,0.0,0.0,0.0,0.0,0.0,0.0,0.0,0.0,0.0,0.0,0.0,0.0,0.0,0.0,0.0,0.0,0.0,0.0,0.0,0.0,0.0,0.0,0.0,0.0,0.0,0.0,0.0,0.0,0.0,0.0,0.0,0.0,0.0,0.0,0.0,0.0,0.0,0.0,0.0,0.0,0.0,0.0,0.0,0.0,0.0,0.0,0.0,0.0,0.0,0.0,0.0,0.0,0.0,0.0,0.0,0.0,0.0,0.0,0.0,0.0,0.0,0.0,0.0,0.0,0.0,0.0,0.0,0.0,0.0,0.0,0.0,0.0,0.0,0.0,0.0,0.0,0.0,0.0,0.0,0.0,0.0,0.0,0.0,0.0,0.0,0.0,0.0,0.0,0.0,0.0,0.0,0.0,0.0,0.0,0.0,0.0,0.0,0.0,0.0,0.0,0.0,0.0,0.0,0.0,0.0,0.0,0.0,0.0,0.0,0.0,0.0,0.0,0.0,0.0,0.0,0.0,0.0,0.0,0.0,0.0,0.0,0.0,0.0,0.0,0.0,0.0,0.0,0.0,0.0,0.0,0.0,0.0,0.0,0.0,0.0,0.0,0.0,0.0,0.0,0.0,0.0,0.0,0.0,0.0,0.0,0.0,0.0,0.0,0.0,0.0,0.0,0.0,0.0,0.0,0.0,0.0,0.0,0.0,0.0,0.0,0.0,0.0,0.0,0.0,0.0,0.0,0.0,0.0,0.0,0.0,0.0,0.0,0.0,0.0,0.0,0.0,0.0,0.0,0.0,0.0,0.0,0.0,0.0,0.0,0.0,0.0,0.0,0.0,0.0,0.0,0.0,0.0,0.0,0.0,0.0,0.0,0.0,0.0,0.0,0.0,0.0,0.0,0.0,0.0,0.0,0.0,0.0,0.0,0.0,0.0,0.0,0.0,0.0,0.0,0.0,0.0,0.0,0.0,0.0,0.0,0.0,0.0,0.0,0.0,0.0,0.0,0.0,0.0,0.0,0.0,0.0,0.0,0.0,0.0,0.0,0.0,0.0,0.0,0.0,0.0,0.0,0.0,0.0,0.0,0.0,0.0,0.0,0.0,0.0,0.0,0.0,0.0,0.0,0.0,0.0,0.0,0.0,0.0,0.0,0.0,0.0,0.0,0.0,0.0,0.0,0.0,0.0,0.0,0.0,0.0,0.0,0.0,0.0,0.0,0.0,0.0,0.0,0.0,0.0,0.0,0.0,0.0,0.0,0.0,0.0,0.0,0.0,0.0,0.0,0.0,0.0,0.0,0.0,0.0,0.0,0.0,0.0,0.0,0.0,0.0,0.0,0.0,0.0,0.0,0.0,0.0,0.0,0.0,0.0,0.0,0.0,0.0,0.0,0.0,0.0,0.0,0.0,0.0,0.0,0.0,0.0,0.0,0.0,0.0,0.0,0.0,0.0,0.0,0.0,0.0,0.0,0.0,0.0,0.0,0.0,0.0,0.0,0.0,0.0,0.0,0.0,0.0,0.0,0.0,0.0,0.0,0.0,0.0,0.0,0.0,0.0,0.0,0.0,0.0,0.0,0.0,0.0,0.0,0.0,0.0,0.0,0.0,0.0,0.0,0.0,0.0,0.0,0.0,0.0,0.0,0.0,0.0,0.0,0.0,0.0,0.0,0.0,0.0,0.0,0.0,0.0,0.0,0.0,0.0,0.0,0.0,0.0,0.0,0.0,0.0,0.0,0.0,0.0,0.0,0.0,0.0,0.0,0.0,0.0,0.0,0.0,0.0,0.0,0.0,0.0,0.0,0.0,0.0,0.0,0.0,0.0,0.0,0.0,0.0,0.0,0.0,0.0,0.0,0.0,0.0,0.0,0.0,0.0,0.0,0.0,0.0,0.0,0.0,0.0,0.0,0.0,0.0,0.0,0.0,0.0,0.0,0.0,0.0,0.0,0.0,0.0,0.0,0.0,0.0,0.0,0.0,0.0,0.0,0.0,0.0,0.0,0.0,0.0,0.0,0.0,0.0,0.0,0.0,0.0,0.0,0.0,0.0,0.0,0.0,0.0,0.0,0.0,0.0,0.0,0.0,0.0,0.0,0.0,0.0,0.0,0.0,0.0,0.0,0.0,0.0,0.0,0.0,0.0,0.0,0.0,0.0,0.0,0.0,0.0,0.0,0.0,0.0,0.0,0.0,0.0,0.0,0.0,0.0,0.0,0.0,0.0,0.0,0.0,0.0,0.0,0.0,0.0,0.0,0.0,0.0,0.0,0.0,0.0,0.0,0.0,0.0,0.0,0.0,0.0,0.0,0.0,0.0,0.0,0.0,0.0,0.0,0.0,0.0,0.0,0.0,0.0,0.0,0.0,0.0,0.0,0.0,0.0,0.0,0.0,0.0,0.0,0.0,0.0,0.0,0.0,0.0,0.0,0.0,0.0,0.0,0.0,0.0,0.0,0.0,0.0,0.0,0.0,0.0,0.0,0.0,0.0,0.0,0.0,0.0,0.0,0.0,0.0,0.0,0.0,0.0,0.0,0.0,0.0,0.0,0.0,0.0,0.0,0.0,0.0,0.0,0.0,0.0,0.0,0.0,0.0,0.0,0.0,0.0,0.0,0.0,0.0,0.0,0.0,0.0,0.0,0.0,0.0,0.0,0.0,0.0,0.0,0.0,0.0,0.0,0.0,0.0,0.0,0.0,0.0,0.0,0.0,0.0,0.0,0.0,0.0,0.0,0.0,0.0,0.0,0.0,0.0,0.0,0.0,0.0,0.0,0.0,0.0,0.0,0.0,0.0,0.0,0.0,0.0,0.0,0.0,0.0,0.0,0.0,0.0,0.0,0.0,0.0,0.0,0.0,0.0,0.0,0.0,0.0,0.0,0.0,0.0,0.0,0.0,0.0,0.0,0.0,0.0,0.0,0.0,0.0,0.0,0.0,0.0,0.0,0.0,0.0,0.0,0.0,0.0,0.0,0.0,0.0,0.0,0.0,0.0,0.0,0.0,0.0,0.0,0.0,0.0,0.0,0.0,0.0,0.0,0.0,0.0,0.0,0.0,0.0,0.0,0.0,0.0,0.0,0.0,0.0,0.0,0.0,0.0,0.0,0.0,0.0,0.0,0.0,0.0,0.0,0.0,0.0,0.0,0.0,0.0,0.0,0.0,0.0,0.0,0.0,0.0,0.0,0.0,0.0,0.0,0.0,0.0,0.0,0.0,0.0,0.0,0.0,0.0,0.0,0.0,0.0,0.0,0.0,0.0,0.0,0.0,0.0,0.0,0.0,0.0,0.0,0.0,0.0,0.0,0.0,0.0,0.0,0.0,0.0,0.0,0.0,0.0,0.0,0.0,0.0,0.0,0.0,0.0,0.0,0.0,0.0,0.0,0.0,0.0,0.0,0.0,0.0,0.0,0.0,0.0,0.0,0.0,0.0,0.0,0.0,0.0,0.0,0.0,0.0,0.0,0.0,0.0,0.0,0.0,0.0,0.0,0.0,0.0,0.0,0.0,0.0,0.0,0.0,0.0,0.0,0.0,0.0,0.0,0.0,0.0,0.0,0.0,0.0,0.0,0.0,0.0,0.0,0.0,0.0,0.0,0.0,0.0,0.0,0.0,0.0,0.0,0.0,0.0,0.0,0.0,0.0,0.0,0.0,0.0,0.0,0.0,0.0,0.0,0.0,0.0,0.0,0.0,0.0,0.0,0.0,0.0,0.0,0.0,0.0,0.0,0.0,0.0,0.0,0.0,0.0,0.0,0.0,0.0,0.0,0.0,0.0,0.0,0.0,1.6718,0.0,0.0,0.0,0.0,0.0,0.0,0.0,0.0,0.0,0.0,0.0,0.0,0.0,0.0,0.0,0.0,0.0,0.0,0.0,0.0,0.0,0.0,0.0,0.0,0.0,0.0,0.0,0.0,0.0,0.0,0.0,0.0,0.0,0.0,0.0,0.0,0.0,0.0,0.0,0.0,0.0,0.0,0.0,0.0,0.0,0.0,0.0,0.0,0.0,0.0,0.0,0.0,0.0,0.0,0.0,0.0,0.0,0.0,0.0,0.0,0.0,0.0,0.0,0.0,0.0,0.0,0.0,0.0,0.0,0.0,0.0,0.0,0.0,0.0,0.0,0.0,0.0,0.0,0.0,0.0,0.0,0.0,0.0,0.0,0.0,0.0,0.0,0.0,0.0,0.0,0.0,0.0,0.0,0.0,0.0,0.0,0.0,0.0,0.0,0.0,0.0,0.0,0.0,0.0,0.0,0.0,0.0,0.0,0.0,0.0,1.8914,1.9319,1.8462,1.782,1.7393,0.0,0.0,0.0,0.0,0.0,0.0,0.0,0.0,0.0,0.0,0.0,0.0,0.0,0.0,0.0,0.0,0.0,0.0,0.0,0.0,0.0,0.0,0.0,0.0,0.0,0.0,0.0,0.0,0.0,0.0,0.0,0.0,0.0,0.0,0.0,0.0,0.0,0.0,0.0,0.0,0.0,0.0,0.0,0.0,0.0,0.0,0.0,0.0,0.0,0.0,0.0,0.0,0.0,0.0,0.0,0.0,0.0,0.0,0.0,0.0,0.0,0.0,0.0,0.0,0.0,0.0,0.0,0.0,0.0,0.0,0.0,0.0,0.0,0.0,0.0,0.0,0.0,0.0,0.0,0.0,0.0,0.0,0.0,0.0,0.0,0.0,0.0,0.0,0.0,0.0,0.0,0.0,0.0,0.0,0.0,0.0,0.0,0.0,0.0,0.0,0.0,0.0,0.0,0.0,0.0,0.0,0.0,0.0,0.0,0.0,0.0,0.0,1.9246,1.839,1.7988,0.0,0.0,0.0,0.0,0.0,0.0,0.0,0.0,0.0,0.0,0.0,0.0,0.0,0.0,0.0,0.0,0.0,0.0,0.0,0.0,0.0,0.0,0.0,0.0,0.0,0.0,0.0,0.0,0.0,0.0,0.0,0.0,0.0,0.0,0.0,0.0,0.0,0.0,0.0,0.0,0.0,0.0,0.0,0.0,0.0,0.0,0.0,0.0,0.0,0.0,0.0,0.0,0.0,0.0,0.0,0.0,0.0,0.0,0.0,0.0,0.0,0.0,0.0,0.0,0.0,0.0,0.0,0.0,0.0,0.0,0.0,0.0,0.0,0.0,0.0,0.0,0.0,0.0,0.0,0.0,0.0,0.0,0.0,0.0,0.0,0.0,0.0,0.0,0.0,0.0,0.0,0.0,0.0,0.0,0.0,0.0,0.0,0.0,0.0,0.0,0.0,0.0,0.0,0.0,0.0,0.0,0.0,0.0,0.0,0.0,2.0437,2.0488,2.0341,0.0,1.8087,0.0,0.0,0.0,0.0,0.0,0.0,0.0,0.0,0.0,0.0,0.0,0.0,0.0,0.0,0.0,0.0,0.0,0.0,0.0,0.0,0.0,0.0,0.0,0.0,0.0,0.0,0.0,0.0,0.0,0.0,0.0,0.0,0.0,0.0,0.0,0.0,0.0,0.0,0.0,0.0,0.0,0.0,0.0,0.0,0.0,0.0,0.0,0.0,0.0,0.0,0.0,0.0,0.0,0.0,0.0,0.0,0.0,0.0,0.0,0.0,0.0,0.0,0.0,0.0,0.0,0.0,0.0,0.0,0.0,0.0,0.0,0.0,0.0,0.0,0.0,0.0,0.0,0.0,0.0,0.0,0.0,0.0,0.0,0.0,0.0,0.0,0.0,0.0,0.0,0.0,0.0,0.0,0.0,0.0,0.0,0.0,0.0,0.0,0.0,0.0,0.0,0.0,0.0,0.0,0.0,0.0,0.0,0.0,0.0,0.0,2.0511,2.0512,2.0033,1.9479,0.0,0.0,0.0,0.0,0.0,0.0,0.0,0.0,0.0,0.0,0.0,0.0,0.0,0.0,0.0,0.0,0.0,0.0,0.0,0.0,0.0,0.0,0.0,0.0,0.0,0.0,0.0,0.0,0.0,0.0,0.0,0.0,0.0,0.0,0.0,0.0,0.0,0.0,0.0,0.0,0.0,0.0,0.0,0.0,0.0,0.0,0.0,0.0,0.0,0.0,0.0,0.0,0.0,0.0,0.0,0.0,0.0,0.0,0.0,0.0,0.0,0.0,0.0,0.0,0.0,0.0,0.0,0.0,0.0,0.0,0.0,0.0,0.0,0.0,0.0,0.0,0.0,0.0,0.0,0.0,0.0,0.0,0.0,0.0,0.0,0.0,0.0,0.0,0.0,0.0,0.0,0.0,0.0,0.0,0.0,0.0,0.0,0.0,0.0,0.0,0.0,0.0,0.0,0.0,0.0,0.0,0.0,0.0,0.0,0.0,2.0501,2.0509,2.0478,1.9944,1.9564,1.9297,0.0,0.0,0.0,0.0,0.0,0.0,0.0,0.0,0.0,0.0,0.0,0.0,0.0,0.0,0.0,0.0,0.0,0.0,0.0,0.0,0.0,0.0,0.0,0.0,0.0,0.0,0.0,0.0,0.0,0.0,0.0,0.0,0.0,0.0,0.0,0.0,0.0,0.0,0.0,0.0,0.0,0.0,0.0,0.0,0.0,0.0,0.0,0.0,0.0,0.0,0.0,0.0,0.0,0.0,0.0,0.0,0.0,0.0,0.0,0.0,0.0,0.0,0.0,0.0,0.0,0.0,0.0,0.0,0.0,0.0,0.0,0.0,0.0,0.0,0.0,0.0,0.0,0.0,0.0,0.0,0.0,0.0,0.0,0.0,0.0,0.0,0.0,0.0,0.0,0.0,0.0,0.0,0.0,0.0,0.0,0.0,0.0,0.0,0.0,0.0,0.0,0.0,0.0,0.0,0.0,0.0,0.0,0.0,2.0509,2.0515,2.051,2.0517,2.0517,2.0152,0.0,0.0,0.0,0.0,0.0,0.0,0.0,0.0,0.0,0.0,0.0,0.0,0.0,0.0,0.0,0.0,0.0,0.0,0.0,0.0,0.0,0.0,0.0,0.0,0.0,0.0,0.0,0.0,0.0,0.0,0.0,0.0,0.0,0.0,0.0,0.0,0.0,0.0,0.0,0.0,0.0,0.0,0.0,0.0,0.0,0.0,0.0,0.0,0.0,0.0,0.0,0.0,0.0,0.0,0.0,0.0,0.0,0.0,0.0,0.0,0.0,0.0,0.0,0.0,0.0,0.0,0.0,0.0,0.0,0.0,0.0,0.0,0.0,0.0,0.0,0.0,0.0,0.0,0.0,0.0,0.0,0.0,0.0,0.0,0.0,0.0,0.0,0.0,0.0,0.0,0.0,0.0,0.0,0.0,0.0,0.0,0.0,0.0,0.0,0.0,0.0,0.0,0.0,0.0,0.0,0.0,0.0,0.0,0.0,2.0508,2.0513,2.0511,2.0504,2.0576,2.0447,0.0,0.0,0.0,0.0,0.0,0.0,0.0,0.0,0.0,0.0,0.0,0.0,0.0,0.0,0.0,0.0,0.0,0.0,0.0,0.0,0.0,0.0,0.0,0.0,0.0,0.0,0.0,0.0,0.0,0.0,0.0,0.0,0.0,0.0,0.0,0.0,0.0,0.0,0.0,0.0,0.0,0.0,0.0,0.0,0.0,0.0,0.0,0.0,0.0,0.0,0.0,0.0,0.0,0.0,0.0,0.0,0.0,0.0,0.0,0.0,0.0,0.0,0.0,0.0,0.0,0.0,0.0,0.0,0.0,0.0,0.0,0.0,0.0,0.0,0.0,0.0,0.0,0.0,0.0,0.0,0.0,0.0,0.0,0.0,0.0,0.0,0.0,0.0,0.0,0.0,0.0,0.0,0.0,0.0,0.0,0.0,0.0,0.0,0.0,0.0,0.0,0.0,0.0,0.0,0.0,0.0,0.0,0.0,0.0,2.0889,0.0,2.1056,0.0,2.11,2.0973,0.0,0.0,0.0,0.0,0.0,0.0,0.0,0.0,0.0,0.0,0.0,0.0,0.0,0.0,0.0,0.0,0.0,0.0,0.0,0.0,0.0,0.0,0.0,0.0,0.0,0.0,0.0,0.0,0.0,0.0,0.0,0.0,0.0,0.0,0.0,0.0,0.0,0.0,0.0,0.0,0.0,0.0,0.0,0.0,0.0,0.0,0.0,0.0,0.0,0.0,0.0,0.0,0.0,0.0,0.0,0.0,0.0,0.0,0.0,0.0,0.0,0.0,0.0,0.0,0.0,0.0,0.0,0.0,0.0,0.0,0.0,0.0,0.0,0.0,0.0,0.0,0.0,0.0,0.0,0.0,0.0,0.0,0.0,0.0,0.0,0.0,0.0,0.0,0.0,0.0,0.0,0.0,0.0,0.0,0.0,0.0,0.0,0.0,0.0,0.0,0.0,0.0,0.0,0.0,0.0,0.0,0.0,0.0,2.0906,2.1755,2.1808,2.2177,2.3025,2.2209,2.1771,0.0,0.0,0.0,0.0,0.0,0.0,0.0,0.0,0.0,0.0,0.0,0.0,0.0,0.0,0.0,0.0,0.0,0.0,0.0,0.0,0.0,0.0,0.0,0.0,0.0,0.0,0.0,0.0,0.0,0.0,0.0,0.0,0.0,0.0,0.0,0.0,0.0,0.0,0.0,0.0,0.0,0.0,0.0,0.0,0.0,0.0,0.0,0.0,0.0,0.0,0.0,0.0,0.0,0.0,0.0,0.0,0.0,0.0,0.0,0.0,0.0,0.0,0.0,0.0,0.0,0.0,0.0,0.0,0.0,0.0,0.0,0.0,0.0,0.0,0.0,0.0,0.0,0.0,0.0,0.0,0.0,0.0,0.0,0.0,0.0,0.0,0.0,0.0,0.0,0.0,0.0,0.0,0.0,0.0,0.0,0.0,0.0,0.0,0.0,0.0,0.0,0.0,0.0,0.0,0.0,0.0,0.0,0.0,0.0,2.2613,2.2663,2.2799,2.2991,2.2241,2.1788,0.0,0.0,0.0,0.0,0.0,0.0,0.0,0.0,0.0,0.0,0.0,0.0,0.0,0.0,0.0,0.0,0.0,0.0,0.0,0.0,0.0,0.0,0.0,0.0,0.0,0.0,0.0,0.0,0.0,0.0,0.0,0.0,0.0,0.0,0.0,0.0,0.0,0.0,0.0,0.0,0.0,0.0,0.0,0.0,0.0,0.0,0.0,0.0,0.0,0.0,0.0,0.0,0.0,0.0,0.0,0.0,0.0,0.0,0.0,0.0,0.0,0.0,0.0,0.0,0.0,0.0,0.0,0.0,0.0,0.0,0.0,0.0,0.0,0.0,0.0,0.0,0.0,0.0,0.0,0.0,0.0,0.0,0.0,0.0,0.0,0.0,0.0,0.0,0.0,0.0,0.0,0.0,0.0,0.0,0.0,0.0,0.0,0.0,0.0,0.0,0.0,0.0,0.0,0.0,0.0,0.0,0.0,0.0,0.0,2.4027,2.3573,2.3447,2.3702,2.2965,2.2452,2.2269,0.0,0.0,0.0,0.0,0.0,0.0,0.0,0.0,0.0,0.0,0.0,0.0,0.0,0.0,0.0,0.0,0.0,0.0,0.0,0.0,0.0,0.0,0.0,0.0,0.0,0.0,0.0,0.0,0.0,0.0,0.0,0.0,0.0,0.0,0.0,0.0,0.0,0.0,0.0,0.0,0.0,0.0,0.0,0.0,0.0,0.0,0.0,0.0,0.0,0.0,0.0,0.0,0.0,0.0,0.0,0.0,0.0,0.0,0.0,0.0,0.0,0.0,0.0,0.0,0.0,0.0,0.0,0.0,0.0,0.0,0.0,0.0,0.0,0.0,0.0,0.0,0.0,0.0,0.0,0.0,0.0,0.0,0.0,0.0,0.0,0.0,0.0,0.0,0.0,0.0,0.0,0.0,0.0,0.0,0.0,0.0,0.0,0.0,0.0,0.0,0.0,0.0,0.0,0.0,0.0,0.0,0.0,0.0,2.5761,2.4486,2.4173,2.4845,2.4218,2.3625,0.0,0.0,0.0,0.0,0.0,0.0,0.0,0.0,0.0,0.0,0.0,0.0,0.0,0.0,0.0,0.0,0.0,0.0,0.0,0.0,0.0,0.0,0.0,0.0,0.0,0.0,0.0,0.0,0.0,0.0,0.0,0.0,0.0,0.0,0.0,0.0,0.0,0.0,0.0,0.0,0.0,0.0,0.0,0.0,0.0,0.0,0.0,0.0,0.0,0.0,0.0,0.0,0.0,0.0,0.0,0.0,0.0,0.0,0.0,0.0,0.0,0.0,0.0,0.0,0.0,0.0,0.0,0.0,0.0,0.0,0.0,0.0,0.0,0.0,0.0,0.0,0.0,0.0,0.0,0.0,0.0,0.0,0.0,0.0,0.0,0.0,0.0,0.0,0.0,0.0,0.0,0.0,0.0,0.0,0.0,0.0,0.0,0.0,0.0,0.0,0.0,0.0,0.0,0.0,0.0,0.0,0.0,0.0,0.0,2.5291,2.5268,2.5208,2.5113,2.479,2.4268,0.0,0.0,0.0,0.0,0.0,0.0,0.0,0.0,0.0,0.0,0.0,0.0,0.0,0.0,0.0,0.0,0.0,0.0,0.0,0.0,0.0,0.0,0.0,0.0,0.0,0.0,0.0,0.0,0.0,0.0,0.0,0.0,0.0,0.0,0.0,0.0,0.0,0.0,0.0,0.0,0.0,0.0,0.0,0.0,0.0,0.0,0.0,0.0,0.0,0.0,0.0,0.0,0.0,0.0,0.0,0.0,0.0,0.0,0.0,0.0,0.0,0.0,0.0,0.0,0.0,0.0,0.0,0.0,0.0,0.0,0.0,0.0,0.0,0.0,0.0,0.0,0.0,0.0,0.0,0.0,0.0,0.0,0.0,0.0,0.0,0.0,0.0,0.0,0.0,0.0,0.0,0.0,0.0,0.0,0.0,0.0,0.0,0.0,0.0,0.0,0.0,0.0,0.0,0.0,0.0,0.0,0.0,0.0,2.6302,2.6125,2.6283,2.6152,2.564,2.5668,2.5086,0.0,0.0,0.0,0.0,0.0,0.0,0.0,0.0,0.0,0.0,0.0,0.0,0.0,0.0,0.0,0.0,0.0,0.0,0.0,0.0,0.0,0.0,0.0,0.0,0.0,0.0,0.0,0.0,0.0,0.0,0.0,0.0,0.0,0.0,0.0,0.0,0.0,0.0,0.0,0.0,0.0,0.0,0.0,0.0,0.0,0.0,0.0,0.0,0.0,0.0,0.0,0.0,0.0,0.0,0.0,0.0,0.0,0.0,0.0,0.0,0.0,0.0,0.0,0.0,0.0,0.0,0.0,0.0,0.0,0.0,0.0,0.0,0.0,0.0,0.0,0.0,0.0,0.0,0.0,0.0,0.0,0.0,0.0,0.0,0.0,0.0,0.0,0.0,0.0,0.0,0.0,0.0,0.0,0.0,0.0,0.0,0.0,0.0,0.0,0.0,0.0,0.0,0.0,0.0,0.0,0.0,0.0,0.0,2.7284,2.7391,2.7296,2.6914,2.6244,2.6588,2.592,0.0,0.0,0.0,0.0,0.0,0.0,0.0,0.0,0.0,0.0,0.0,0.0,0.0,0.0,0.0,0.0,0.0,0.0,0.0,0.0,0.0,0.0,0.0,0.0,0.0,0.0,0.0,0.0,0.0,0.0,0.0,0.0,0.0,0.0,0.0,0.0,0.0,0.0,0.0,0.0,0.0,0.0,0.0,0.0,0.0,0.0,0.0,0.0,0.0,0.0,0.0,0.0,0.0,0.0,0.0,0.0,0.0,0.0,0.0,0.0,0.0,0.0,0.0,0.0,0.0,0.0,0.0,0.0,0.0,0.0,0.0,0.0,0.0,0.0,0.0,0.0,0.0,0.0,0.0,0.0,0.0,0.0,0.0,0.0,0.0,0.0,0.0,0.0,0.0,0.0,0.0,0.0,0.0,0.0,0.0,0.0,0.0,0.0,0.0,0.0,0.0,0.0,0.0,0.0,0.0,0.0,0.0,0.0,2.7186,2.6813,2.7166,2.6993,2.6232,2.6527,2.6226,0.0,0.0,0.0,0.0,0.0,0.0,0.0,0.0,0.0,0.0,0.0,0.0,0.0,0.0,0.0,0.0,0.0,0.0,0.0,0.0,0.0,0.0,0.0,0.0,0.0,0.0,0.0,0.0,0.0,0.0,0.0,0.0,0.0,0.0,0.0,0.0,0.0,0.0,0.0,0.0,0.0,0.0,0.0,0.0,0.0,0.0,0.0,0.0,2.0033,0.0,0.0,0.0,0.0,0.0,0.0,0.0,0.0,0.0,0.0,0.0,0.0,0.0,0.0,0.0,0.0,0.0,0.0,0.0,0.0,0.0,0.0,0.0,0.0,0.0,0.0,0.0,0.0,0.0,0.0,0.0,0.0,0.0,0.0,0.0,0.0,0.0,0.0,0.0,0.0,0.0,0.0,0.0,0.0,0.0,0.0,0.0,0.0,0.0,0.0,0.0,0.0,0.0,0.0,0.0,0.0,0.0,0.0,0.0,2.845,2.8328,2.8067,2.7717,2.7361,2.7103,2.6516,0.0,0.0,0.0,0.0,0.0,0.0,0.0,0.0,0.0,0.0,0.0,0.0,0.0,0.0,0.0,0.0,0.0,0.0,0.0,0.0,0.0,0.0,0.0,0.0,0.0,0.0,0.0,0.0,0.0,0.0,0.0,0.0,0.0,0.0,0.0,0.0,0.0,0.0,0.0,0.0,0.0,0.0,0.0,0.0,0.0,0.0,0.0,0.0,0.0,0.0,0.0,0.0,0.0,0.0,0.0,0.0,0.0,0.0,0.0,0.0,0.0,0.0,0.0,0.0,0.0,0.0,0.0,0.0,0.0,0.0,0.0,0.0,0.0,0.0,0.0,0.0,0.0,0.0,0.0,0.0,0.0,0.0,0.0,0.0,0.0,0.0,0.0,0.0,0.0,0.0,0.0,0.0,0.0,0.0,0.0,0.0,0.0,0.0,0.0,0.0,0.0,0.0,0.0,0.0,0.0,0.0,0.0,2.9129,2.9794,2.9962,2.9031,2.8531,2.8575,2.7632,2.6681,2.5729,0.0,0.0,0.0,0.0,0.0,0.0,0.0,0.0,0.0,0.0,0.0,0.0,0.0,0.0,0.0,0.0,0.0,0.0,0.0,0.0,0.0,0.0,0.0,0.0,0.0,0.0,0.0,0.0,0.0,0.0,0.0,0.0,0.0,0.0,0.0,0.0,0.0,0.0,1.9871,2.0633,0.0,0.0,0.0,0.0,0.0,0.0,0.0,0.0,2.0881,0.0,0.0,0.0,0.0,0.0,0.0,0.0,0.0,0.0,0.0,0.0,0.0,0.0,0.0,0.0,0.0,0.0,0.0,0.0,0.0,0.0,0.0,0.0,0.0,0.0,0.0,0.0,0.0,0.0,0.0,0.0,0.0,0.0,0.0,0.0,0.0,0.0,0.0,0.0,0.0,0.0,0.0,0.0,0.0,0.0,0.0,0.0,0.0,0.0,0.0,0.0,0.0,0.0,0.0,0.0,0.0,2.7519,2.9003,2.944,2.8735,2.8631,2.8595,2.8556,2.7107,2.6344,2.6414,0.0,0.0,0.0,0.0,0.0,0.0,0.0,0.0,0.0,0.0,0.0,0.0,0.0,0.0,0.0,0.0,0.0,0.0,0.0,0.0,0.0,0.0,0.0,0.0,0.0,0.0,0.0,0.0,0.0,0.0,0.0,0.0,0.0,0.0,0.0,0.0,0.0,0.0,0.0,2.0026,2.0506,0.0,0.0,0.0,0.0,0.0,0.0,0.0,0.0,2.1069,0.0,0.0,0.0,0.0,0.0,0.0,0.0,0.0,0.0,0.0,0.0,0.0,0.0,0.0,0.0,0.0,0.0,0.0,0.0,0.0,0.0,0.0,0.0,0.0,0.0,0.0,0.0,0.0,0.0,0.0,0.0,0.0,0.0,0.0,0.0,0.0,0.0,0.0,0.0,0.0,0.0,0.0,0.0,0.0,0.0,0.0,0.0,0.0,0.0,0.0,0.0,0.0,0.0,0.0,0.0,2.796,2.9378,2.9754,2.9022,2.9121,2.9043,2.864,2.7799,2.7134,0.0,0.0,0.0,0.0,0.0,0.0,0.0,0.0,0.0,0.0,0.0,0.0,0.0,0.0,0.0,0.0,0.0,0.0,0.0,0.0,0.0,0.0,0.0,0.0,0.0,0.0,0.0,0.0,0.0,0.0,0.0,0.0,0.0,0.0,0.0,0.0,0.0,0.0,0.0,0.0,2.0144,2.0594,2.0941,0.0,0.0,0.0,0.0,0.0,0.0,2.1259,2.1675,0.0,0.0,0.0,0.0,0.0,0.0,0.0,0.0,0.0,0.0,0.0,0.0,0.0,0.0,0.0,0.0,0.0,0.0,0.0,0.0,0.0,0.0,0.0,0.0,0.0,0.0,0.0,0.0,0.0,0.0,0.0,0.0,0.0,0.0,0.0,0.0,0.0,0.0,0.0,0.0,0.0,0.0,0.0,0.0,0.0,0.0,0.0,0.0,0.0,0.0,0.0,0.0,0.0,0.0,0.0,2.8407,2.9689,3.0172,2.9782,2.9953,2.9687,2.8965,2.8699,2.805,0.0,0.0,0.0,0.0,0.0,0.0,0.0,0.0,0.0,0.0,0.0,0.0,0.0,0.0,0.0,0.0,0.0,0.0,0.0,0.0,0.0,0.0,0.0,0.0,0.0,0.0,0.0,0.0,0.0,0.0,0.0,0.0,0.0,0.0,0.0,0.0,0.0,0.0,0.0,0.0,0.0,2.1192,2.1297,2.2605,0.0,0.0,0.0,0.0,2.2737,2.2256,0.0,0.0,0.0,0.0,0.0,0.0,0.0,0.0,0.0,0.0,0.0,0.0,0.0,0.0,0.0,0.0,0.0,0.0,0.0,0.0,0.0,0.0,0.0,0.0,0.0,0.0,0.0,0.0,0.0,0.0,0.0,0.0,0.0,0.0,0.0,0.0,0.0,0.0,0.0,0.0,0.0,0.0,0.0,0.0,0.0,0.0,0.0,0.0,0.0,0.0,0.0,0.0,0.0,0.0,0.0,0.0,2.8395,2.9608,3.0376,3.0647,3.0716,3.0453,2.9783,2.9166,2.8478,0.0,0.0,0.0,0.0,0.0,0.0,0.0,0.0,0.0,0.0,0.0,0.0,0.0,0.0,0.0,0.0,0.0,0.0,0.0,0.0,0.0,0.0,0.0,0.0,0.0,0.0,0.0,0.0,0.0,0.0,0.0,0.0,0.0,0.0,0.0,0.0,0.0,0.0,0.0,0.0,0.0,2.2211,2.2929,2.3347,2.3582,0.0,0.0,2.3272,2.2625,2.2942,0.0,0.0,0.0,0.0,0.0,0.0,0.0,0.0,0.0,0.0,0.0,0.0,0.0,0.0,0.0,0.0,0.0,0.0,0.0,0.0,0.0,0.0,0.0,0.0,0.0,0.0,0.0,0.0,0.0,0.0,0.0,0.0,0.0,0.0,0.0,0.0,0.0,0.0,0.0,0.0,0.0,0.0,0.0,0.0,0.0,0.0,0.0,0.0,0.0,0.0,0.0,0.0,0.0,0.0,0.0,2.7646,2.8945,3.0011,3.0417,3.0196,3.0647,3.0592,2.9972,2.9717,2.9241,0.0,0.0,0.0,0.0,0.0,0.0,0.0,0.0,0.0,0.0,0.0,0.0,0.0,0.0,0.0,0.0,0.0,0.0,0.0,0.0,0.0,0.0,0.0,0.0,0.0,0.0,0.0,0.0,0.0,0.0,0.0,0.0,0.0,0.0,0.0,0.0,0.0,0.0,0.0,0.0,0.0,0.0,2.3134,2.3654,0.0,0.0,0.0,2.3779,2.4585,0.0,0.0,0.0,0.0,0.0,0.0,0.0,0.0,0.0,0.0,0.0,0.0,0.0,0.0,0.0,0.0,0.0,0.0,0.0,0.0,0.0,0.0,0.0,0.0,0.0,0.0,0.0,0.0,0.0,0.0,0.0,0.0,0.0,0.0,0.0,0.0,0.0,0.0,0.0,0.0,0.0,0.0,0.0,0.0,0.0,0.0,0.0,0.0,0.0,0.0,0.0,0.0,0.0,0.0,0.0,0.0,0.0,2.9685,3.041,3.0612,3.0283,3.0872,3.0905,3.0303,3.0265,0.0,0.0,0.0,0.0,0.0,0.0,0.0,0.0,0.0,0.0,0.0,0.0,0.0,0.0,0.0,0.0,0.0,0.0,0.0,0.0,0.0,0.0,0.0,0.0,0.0,0.0,0.0,1.8471,0.0,0.0,0.0,0.0,0.0,0.0,0.0,0.0,0.0,0.0,0.0,0.0,0.0,0.0,2.3566,2.3665,2.4393,2.5178,0.0,0.0,2.4516,2.5968,2.4696,2.3902,0.0,0.0,0.0,0.0,0.0,0.0,0.0,0.0,0.0,0.0,0.0,0.0,0.0,0.0,0.0,0.0,0.0,0.0,0.0,0.0,0.0,0.0,0.0,0.0,0.0,0.0,0.0,0.0,0.0,0.0,0.0,0.0,0.0,0.0,0.0,0.0,0.0,0.0,0.0,0.0,0.0,0.0,0.0,0.0,0.0,0.0,0.0,0.0,0.0,0.0,0.0,0.0,0.0,0.0,0.0,3.0446,3.064,3.1043,3.1704,3.1933,3.1725,3.1042,3.0796,3.0432,0.0,0.0,0.0,0.0,0.0,0.0,0.0,0.0,0.0,0.0,0.0,0.0,0.0,0.0,0.0,0.0,0.0,0.0,0.0,0.0,0.0,0.0,0.0,0.0,0.0,0.0,0.0,0.0,0.0,0.0,0.0,0.0,0.0,0.0,0.0,0.0,0.0,0.0,0.0,0.0,0.0,2.524,2.5252,2.6041,2.6588,0.0,0.0,2.5643,2.5647,2.481,2.4342,2.4839,0.0,0.0,0.0,0.0,0.0,0.0,0.0,0.0,0.0,0.0,0.0,0.0,0.0,0.0,0.0,0.0,0.0,0.0,0.0,0.0,0.0,0.0,0.0,0.0,0.0,0.0,0.0,0.0,0.0,0.0,0.0,0.0,0.0,0.0,0.0,0.0,0.0,0.0,0.0,0.0,0.0,0.0,0.0,0.0,0.0,0.0,0.0,0.0,0.0,0.0,0.0,0.0,0.0,2.9297,3.0454,3.1062,3.1544,3.1894,3.202,3.1987,3.1777,3.1507,3.1155,0.0,0.0,0.0,0.0,0.0,0.0,0.0,0.0,0.0,0.0,0.0,0.0,0.0,0.0,0.0,0.0,0.0,0.0,0.0,0.0,0.0,0.0,0.0,0.0,0.0,0.0,0.0,0.0,2.0529,2.0773,2.1313,0.0,0.0,0.0,0.0,0.0,0.0,0.0,0.0,0.0,0.0,2.5981,2.5906,2.6237,0.0,0.0,2.6712,2.6544,2.7275,2.6488,2.5984,2.6483,2.6618,0.0,0.0,0.0,0.0,0.0,0.0,0.0,0.0,0.0,0.0,0.0,0.0,0.0,0.0,0.0,0.0,0.0,0.0,0.0,0.0,0.0,0.0,0.0,0.0,0.0,0.0,0.0,0.0,0.0,0.0,0.0,0.0,0.0,0.0,0.0,0.0,0.0,0.0,0.0,0.0,0.0,0.0,0.0,0.0,0.0,0.0,0.0,0.0,0.0,0.0,0.0,0.0,2.973,3.0341,3.1533,3.2165,3.2187,3.2348,3.2439,3.2475,3.1918,3.1488,0.0,0.0,0.0,0.0,0.0,0.0,0.0,0.0,0.0,0.0,0.0,0.0,0.0,0.0,0.0,0.0,0.0,0.0,0.0,0.0,0.0,0.0,0.0,0.0,0.0,0.0,0.0,0.0,2.1793,2.2047,2.2745,0.0,0.0,0.0,0.0,0.0,0.0,0.0,0.0,0.0,0.0,2.641,2.6636,2.6929,2.749,2.8433,2.7742,2.753,2.8631,2.7708,2.6998,2.7428,0.0,0.0,0.0,0.0,0.0,0.0,0.0,0.0,0.0,0.0,0.0,0.0,0.0,0.0,0.0,0.0,0.0,0.0,0.0,0.0,0.0,0.0,0.0,0.0,0.0,0.0,0.0,0.0,0.0,0.0,2.0688,0.0,0.0,0.0,0.0,0.0,0.0,0.0,0.0,0.0,0.0,0.0,0.0,0.0,0.0,0.0,0.0,0.0,0.0,0.0,0.0,0.0,0.0,3.0205,3.0258,3.1985,3.2886,3.2886,3.3017,3.3111,3.317,3.1847,3.131,3.1678,0.0,0.0,0.0,0.0,0.0,0.0,0.0,0.0,0.0,0.0,0.0,0.0,0.0,0.0,0.0,0.0,0.0,0.0,0.0,0.0,0.0,0.0,0.0,0.0,0.0,0.0,2.4933,2.4996,2.4908,0.0,0.0,0.0,0.0,0.0,0.0,0.0,0.0,0.0,0.0,2.6414,2.6622,2.7669,2.8496,2.9337,3.0183,2.9231,2.8641,2.9363,2.8138,2.7069,0.0,0.0,0.0,0.0,0.0,0.0,0.0,0.0,0.0,0.0,0.0,0.0,0.0,0.0,0.0,0.0,0.0,0.0,0.0,0.0,0.0,0.0,0.0,0.0,0.0,0.0,0.0,2.3473,2.3538,0.0,0.0,0.0,0.0,0.0,0.0,0.0,0.0,0.0,0.0,0.0,2.8445,2.7963,0.0,0.0,0.0,0.0,0.0,0.0,0.0,0.0,0.0,0.0,0.0,0.0,3.1495,3.1582,3.2862,3.3581,3.3564,3.3721,3.3875,3.397,3.3104,3.235,3.1793,0.0,0.0,0.0,0.0,0.0,0.0,0.0,0.0,0.0,0.0,0.0,0.0,0.0,0.0,0.0,0.0,0.0,0.0,0.0,0.0,0.0,0.0,0.0,0.0,0.0,2.4614,0.0,0.0,0.0,0.0,0.0,0.0,0.0,0.0,0.0,0.0,0.0,2.7904,2.8079,2.9078,2.9878,3.0152,3.0468,3.0625,0.0,0.0,0.0,0.0,0.0,0.0,0.0,0.0,0.0,0.0,0.0,0.0,0.0,0.0,2.9099,2.7805,2.7516,2.7376,2.709,0.0,0.0,0.0,0.0,0.0,0.0,0.0,0.0,0.0,0.0,0.0,0.0,0.0,0.0,2.4832,0.0,2.4639,0.0,0.0,0.0,0.0,0.0,0.0,0.0,0.0,2.7913,2.9128,3.0715,3.049,3.106,0.0,3.1252,2.9677,0.0,0.0,0.0,0.0,0.0,0.0,0.0,0.0,3.2144,3.2196,3.36,3.4318,3.4315,3.4441,3.4597,3.4695,3.387,3.2984,3.2117,3.1123,3.0347,0.0,0.0,0.0,0.0,0.0,0.0,0.0,0.0,0.0,0.0,0.0,0.0,0.0,0.0,0.0,0.0,0.0,0.0,0.0,0.0,0.0,0.0,0.0,2.592,0.0,0.0,0.0,0.0,0.0,0.0,0.0,0.0,0.0,2.7482,2.8239,2.8943,2.9156,2.9942,3.0772,3.1444,0.0,0.0,0.0,0.0,0.0,0.0,0.0,3.2396,3.2526,3.2559,3.2333,3.167,3.1148,3.086,3.0981,0.0,0.0,2.8584,2.8183,2.8068,2.775,2.7944,2.8156,2.8135,2.8318,2.8495,0.0,0.0,0.0,0.0,0.0,0.0,0.0,0.0,2.7081,2.6749,0.0,2.6374,0.0,0.0,0.0,0.0,0.0,2.7304,0.0,0.0,3.1914,3.2878,3.3074,3.3818,3.3859,3.3297,3.3151,3.2679,3.1922,3.0647,0.0,0.0,0.0,0.0,0.0,0.0,3.2213,3.2191,3.4187,3.5153,3.5032,3.5153,3.5258,3.5235,3.411,3.3248,3.2644,3.2038,3.1482,3.0948,3.0527,0.0,0.0,0.0,0.0,0.0,0.0,0.0,0.0,0.0,0.0,0.0,0.0,0.0,0.0,0.0,0.0,0.0,0.0,0.0,0.0,2.7452,0.0,0.0,0.0,0.0,0.0,0.0,0.0,0.0,0.0,0.0,2.9827,2.9102,2.8889,2.9924,0.0,0.0,0.0,0.0,3.1221,3.3288,3.2958,3.2775,3.3603,3.3038,3.2429,3.2248,0.0,0.0,3.2035,3.2241,3.2389,3.2453,3.2269,3.1585,2.9417,2.9119,2.8881,2.8063,2.8601,2.9041,2.9063,2.9692,3.0157,3.3135,0.0,0.0,0.0,0.0,2.998,2.9609,2.9334,2.9144,2.9109,2.9197,2.9079,0.0,0.0,0.0,0.0,0.0,0.0,3.0804,3.2466,3.309,3.4312,3.6053,3.6362,3.6684,3.702,3.6443,3.6059,3.5839,3.4913,3.3121,3.0577,0.0,0.0,0.0,0.0,3.3643,3.4048,3.5158,3.5758,3.5715,3.5907,3.5739,3.5304,3.5122,3.4472,3.3284,3.2679,3.2107,3.1624,3.1011,0.0,0.0,0.0,0.0,0.0,0.0,0.0,0.0,0.0,0.0,0.0,0.0,0.0,0.0,0.0,0.0,0.0,0.0,0.0,2.8253,2.7929,2.7967,0.0,0.0,0.0,0.0,0.0,0.0,0.0,0.0,0.0,3.1837,3.1509,3.152,0.0,0.0,3.321,3.518,3.4085,3.3352,3.4075,0.0,0.0,0.0,3.3648,3.3896,3.3876,3.3738,3.3444,3.2933,3.2793,3.2593,3.2125,3.1994,3.1781,3.1251,3.1137,3.0897,3.0193,3.0608,3.1165,3.1148,3.1271,3.1147,3.591,3.5213,3.3675,3.2902,3.259,3.2111,3.1797,3.1619,3.175,3.1818,3.1886,3.205,3.1907,3.1545,3.1309,0.0,0.0,0.0,3.3379,3.4817,3.5231,3.6232,3.7705,3.8104,3.8394,3.8594,3.8444,3.8237,3.7927,3.7146,3.5645,3.3438,0.0,0.0,3.3143,3.3962,3.4528,3.4806,3.5583,3.6014,3.5997,3.6212,3.6118,3.5772,3.5675,3.5079,3.393,3.3301,3.2713,3.2188,3.1518,3.1303,0.0,0.0,0.0,0.0,0.0,0.0,0.0,0.0,0.0,0.0,0.0,2.7027,0.0,0.0,0.0,0.0,2.8551,2.8834,2.981,2.9138,0.0,0.0,0.0,0.0,0.0,0.0,0.0,3.2548,3.1891,3.1689,3.2773,3.2766,3.2737,3.2964,3.3204,3.3908,3.5452,0.0,3.3716,3.4237,3.4302,3.4127,3.3721,3.4083,3.4405,3.433,3.4244,3.4005,3.3576,3.3394,3.3173,3.2802,3.2713,3.2667,3.234,3.2642,3.2601,3.1551,3.1682,3.1998,3.193,3.1853,3.1618,3.8168,3.7194,3.5351,3.4604,3.4627,3.41,3.4018,3.4304,3.4537,3.4554,3.4446,3.4969,3.4629,3.3597,3.306,0.0,3.433,3.513,3.6043,3.7103,3.7922,3.8396,3.8614,3.9335,3.9353,3.8824,3.9526,3.9508,3.8789,3.8116,3.7649,3.743,3.6126,3.5335,3.5077,3.5077,3.5048,3.4994,3.5651,3.6053,3.6104,3.6281,3.6446,3.6551,3.5925,3.5279,3.4607,3.4001,3.3371,3.2713,3.2161,3.1951,3.2046,0.0,0.0,0.0,0.0,0.0,0.0,0.0,0.0,0.0,0.0,0.0,0.0,0.0,0.0,0.0,3.0765,0.0,3.1453,3.079,0.0,0.0,0.0,3.0656,3.1586,3.1558,3.1841,3.2807,0.0,0.0,3.3069,0.0,3.2937,3.2249,3.226,3.2724,3.384,3.329,3.2989,3.4142,3.4246,3.4262,3.4284,3.436,3.434,3.4157,3.3992,3.4023,3.3987,3.3884,3.3959,3.3862,3.4036,3.3833,3.3118,3.3616,3.3827,3.2426,3.2205,3.2173,3.2117,3.2078,3.1982,3.8647,3.8717,3.7864,3.7057,3.629,3.5706,3.5577,3.5768,3.5863,3.5952,3.6116,3.627,3.6323,3.6348,3.6313,3.6475,3.6834,3.7026,3.7617,3.8495,3.8819,3.9337,4.0021,4.0732,4.082,4.0422,4.0999,4.0982,4.0377,4.0187,3.9692,3.8898,3.7991,3.6965,3.5809,3.5805,3.6036,3.64,3.6137,3.6314,3.6967,3.7133,3.7236,3.7258,3.662,3.596,3.5277,3.5241,3.4689,3.3512,3.3399,3.3205,3.277,3.23,0.0,0.0,0.0,0.0,0.0,0.0,0.0,0.0,0.0,3.0389,3.0532,0.0,3.1016,0.0,3.1601,3.1773,3.2478,3.1762,0.0,0.0,3.2099,3.2047,3.2321,3.1809,3.2035,3.3602,3.326,3.3164,3.3898,3.3908,3.3589,3.2896,3.3056,3.3824,3.5264,3.4256,3.3684,3.4504,3.4214,3.3807,3.3955,3.4447,3.4802,3.477,3.4679,3.4665,3.4651,3.4096,3.3712,3.3748,3.3815,3.3808,3.3663,3.39,3.3944,3.3617,3.3597,3.3633,3.35,3.3388,3.3132,3.9113,3.8978,3.9093,3.8557,3.7555,3.7138,3.7222,3.7612,3.7739,3.8095,3.8619,3.8712,3.8751,3.8681,3.8759,3.8714,3.8572,3.8581,3.8916,3.9486,3.9644,3.9963,4.0446,4.1229,4.149,4.1333,4.1975,4.2112,4.1773,4.1543,4.102,4.0292,3.9631,3.8668,3.7439,3.6461,3.6137,3.6502,3.6478,3.6869,3.766,3.7823,3.7663,3.7119,3.679,3.6013,3.4755,3.5202,3.4836,3.3505,3.38,3.3718,3.3075,3.2823,3.2756,0.0,0.0,0.0,0.0,0.0,0.0,0.0,0.0,0.0,0.0,0.0,3.2585,3.356,3.3546,3.3709,3.4349,3.3709,3.3373,3.3715,3.34,3.303,3.2805,3.2346,3.2467,3.3455,3.3168,3.3093,3.3602,3.3641,3.345,3.3001,3.3193,3.3709,3.4476,3.3971,3.3669,3.4195,3.3893,3.3723,3.4104,3.4609,3.5076,3.5345,3.5115,3.4863,3.4863,3.4454,3.4025,3.3752,3.3712,3.3748,3.382,3.3881,3.3947,3.3959,3.4011,3.4036,3.3991,3.3868,3.3628,3.9612,3.8849,3.9641,3.9484,3.8713,3.848,3.8621,3.9095,3.9469,4.0156,4.1012,4.1283,4.1049,4.0514,4.0542,4.033,3.9953,3.9962,4.0051,4.024,4.0366,4.0365,4.0364,4.1298,4.1766,4.1847,4.2653,4.2997,4.2919,4.2383,4.183,4.1274,4.0719,4.0002,3.9013,3.7069,3.6082,3.6146,3.6961,3.7667,3.8196,3.8283,3.7779,3.6831,3.6696,3.5806,3.4094,3.4677,3.446,3.3234,3.389,3.401,3.3286,3.3509,3.3671,0.0,3.3786,0.0,0.0,0.0,0.0,0.0,0.0,0.0,0.0,3.3615,3.4527,3.5686,3.5715,3.5854,3.631,3.5756,3.5342,3.522,3.4457,3.3727,3.323,3.3001,3.29,3.29,3.29,3.29,3.2952,3.2963,3.2979,3.2948,3.3039,3.3183,3.3168,3.328,3.3385,3.3481,3.3495,3.3793,3.4557,3.4921,3.5334,3.5903,3.5669,3.5053,3.4998,3.4852,3.4506,3.381,3.3629,3.3684,3.3684,3.3793,3.391,3.4034,3.3997,3.3881,3.3895,3.3847,3.3766,4.0074,4.0124,3.991,3.9883,3.9912,3.9471,3.8904,3.8434,3.904,3.992,4.0996,4.1157,4.1234,4.1226,4.121,4.1244,4.1327,4.1448,4.1248,4.0819,4.0975,4.0782,4.0407,4.1673,4.2151,4.1915,4.3203,4.3623,4.3122,4.2892,4.202,4.0683,4.0455,3.9632,3.8282,0.0,0.0,0.0,3.8201,3.8772,3.8385,3.7969,3.7715,3.7568,3.6434,0.0,3.5428,3.5063,3.45,3.382,3.4544,0.0,0.0,0.0,0.0,0.0,0.0,0.0,0.0,0.0,0.0,0.0,3.5359,3.517,3.5422,3.5991,3.6465,3.6707,3.6561,3.6549,3.6691,3.6041,3.5557,3.5437,3.4724,3.4153,3.3958,3.3341,3.29,3.29,3.29,3.2916,3.2999,3.2979,3.3028,3.3113,3.3086,3.3132,3.3247,3.3313,3.3322,3.3411,3.3521,3.3866,3.467,3.537,3.6045,3.669,3.6843,3.6394,3.5757,3.5124,3.4469,3.3669,3.3577,3.3619,3.3619,3.3629,3.3867,3.4563,3.4161,3.378,3.3868,3.3807,3.3698,3.998,0.0,4.0117,4.005,0.0,3.9829,3.9408,3.8902,3.9845,4.0899,4.2032,4.2226,4.2175,4.1926,4.1955,4.183,4.1688,4.1755,4.172,4.155,4.1683,4.1585,4.1324,4.2584,4.3056,4.2877,4.4052,4.4474,4.4174,4.3718,4.286,4.1579,4.1095,4.0271,3.9166,3.9084,3.8703,3.8061,3.8881,3.9303,3.9317,3.9082,3.8716,3.8261,0.0,0.0,0.0,0.0,0.0,0.0,0.0,0.0,0.0,0.0,0.0,3.6065,3.5804,3.5847,3.6293,3.6048,3.6072,3.65,3.6947,3.703,3.6675,3.6885,3.7241,3.7588,3.7475,3.7355,3.737,3.7012,3.66,3.6136,3.5741,3.5331,3.4836,3.4411,3.3934,3.3477,3.3457,3.3491,3.3457,3.3538,3.3765,3.4051,3.388,3.371,3.3756,3.3496,3.334,3.3433,3.4228,3.4836,3.5254,3.5994,3.6791,3.7451,3.733,3.6751,3.5973,3.5538,3.4869,3.3778,3.3509,3.3549,3.3563,3.3577,3.3743,3.4142,3.3973,3.3739,3.3815,3.3766,3.3684,3.9768,3.996,4.0207,4.0178,3.9926,4.0095,4.0096,3.9977,0.0,0.0,0.0,4.3235,4.3102,4.2659,4.2688,4.246,4.2059,4.2087,4.2128,4.2209,4.2389,4.2385,4.231,4.3367,4.3902,4.3945,4.478,4.5203,4.5213,4.4602,4.3837,4.2928,4.2184,4.1359,4.051,4.0366,3.9968,3.9389,3.9261,3.9489,4.0092,4.0039,3.959,3.8706,3.8611,3.8129,3.7216,3.7796,3.7633,3.6558,3.7254,3.7149,3.5945,3.6037,3.6413,3.7001,3.6638,3.6723,3.7371,3.6854,3.6715,3.7205,3.7956,3.8093,3.7453,3.7355,3.7598,3.8234,3.8121,3.7983,3.8001,3.7933,3.7647,3.6999,3.6802,3.6374,3.5749,3.5448,3.497,3.43,3.4209,3.426,3.414,3.4292,3.4607,3.5022,3.4781,3.4519,3.4427,3.3839,3.3337,3.3484,3.4486,3.5571,3.5887,3.6481,3.7332,3.7954,3.7629,3.6959,3.6254,3.5892,3.5256,3.3936,3.3579,3.3495,3.3477,3.3538,3.366,3.3858,3.3776,3.3748,3.3931,3.3826,3.3712,3.9568,3.9768,4.0156,4.0339,4.042,4.0777,4.1166,4.1532,4.1388,4.1846,4.268,4.3005,4.3185,4.3284,4.3373,4.3429,4.333,4.3539,4.326,0.0,4.2937,4.2711,4.221,4.3206,4.3795,4.3962,4.478,4.5274,4.5327,4.5127,4.4609,4.3809,4.3496,4.2581,4.1196,4.1035,4.0688,3.9985,3.9474,3.9299,3.9423,3.9037,3.8813,3.8676,3.8281,3.7955,3.779,3.7499,3.7216,3.7118,3.7999,3.8129,3.7345,3.8579,3.919,3.8689,3.9193,3.9643,3.9842,3.9174,3.8487,3.7945,3.8101,3.8236,3.8239,3.8174,3.818,3.8309,3.8157,3.8001,3.8001,3.8005,3.7934,3.7787,3.7109,3.6591,3.6482,3.5823,3.524,3.4976,3.501,3.5027,3.4976,3.5096,3.5268,3.5375,3.539,3.5344,3.5139,3.4259,3.3472,3.3502,3.4154,3.4987,3.5711,3.6506,3.7337,3.8082,3.81,3.7683,3.685,3.632,3.5577,3.4588,3.3941,3.3557,3.3441,3.3466,3.3742,3.4204,3.4035,3.3899,3.4403,3.4156,3.3758,3.9865,4.0646,4.0177,4.0319,4.0892,4.1038,4.1505,4.2157,4.2285,4.2413,4.2634,4.2867,4.3129,4.3402,4.3479,4.3539,4.3598,4.3687,4.361,4.3381,4.3526,4.3484,4.3334,4.3876,4.4238,4.4409,4.4942,4.523,4.5291,4.5167,4.4763,4.4095,4.3484,4.2685,4.1873,4.1796,4.1424,4.0679,4.0044,3.9704,3.9736,3.96,3.9579,3.9686,3.9502,3.9477,3.9527,3.9399,3.9186,3.8831,3.9411,3.9392,3.8723,3.9462,3.9966,4.0019,4.0101,4.0377,4.0921,4.0275,3.9698,3.9355,3.9301,3.9336,3.9459,3.8731,3.8604,3.9348,3.8611,3.8397,3.9227,3.8904,3.8616,3.8633,3.8239,3.7809,3.729,3.6879,3.6345,3.5865,3.5811,3.5829,3.5759,3.5864,3.6148,3.6451,3.6324,3.5978,3.5661,3.5058,3.4455,3.4229,3.5077,3.5729,3.5894,3.6888,3.772,3.8156,3.8192,3.7883,3.7176,3.6665,3.5996,3.4878,3.4292,3.393,3.3538,3.3422,3.3651,3.3851,3.3887,3.388,3.4101,3.3959,3.3748,4.0293,4.1445,4.0383,4.0446,4.1219,4.1143,4.1687,4.2614,4.3013,4.3121,4.2992,4.3084,4.3201,4.3298,4.3342,4.3462,4.3539,4.3598,4.3687,4.3822,4.3868,4.4027,4.4253,4.4378,4.4592,4.4803,4.5005,4.514,4.5194,4.5086,4.4875,4.4449,4.3631,4.2993,4.2627,4.2567,4.2117,4.1238,4.0646,4.0282,4.0096,4.0213,4.0362,4.051,4.0614,4.0769,4.0912,4.1088,4.0976,4.049,4.0735,4.0591,3.9931,4.0199,4.0562,4.0956,4.0792,4.0839,4.1314,4.0941,4.0563,4.0365,4.0292,4.0345,4.0491,3.9444,3.9171,4.013,3.9318,3.912,4.0077,3.986,3.9463,3.9445,3.9463,3.9013,3.8205,3.8008,3.7667,3.6809,3.6649,3.6667,3.6631,3.6649,3.6899,3.7309,3.7005,3.6393,3.6116,3.5986,3.5636,3.5521,3.6218,3.6669,3.6254,3.7214,3.8064,3.8209,3.8209,3.7955,3.7448,3.7176,3.6633,3.5439,3.4839,3.4404,3.3824,3.3756,3.3731,3.3706,3.381,3.3945,3.3817,3.3776,3.3698,4.0861,4.109,4.077,4.0942,4.1392,4.1224,4.1969,4.3198,4.3236,4.3517,4.3984,4.3929,4.3582,4.3041,4.3284,4.3435,4.3482,4.3539,4.3645,4.3674,4.3839,4.3969,4.4126,4.4253,4.448,4.4748,4.4831,4.4995,4.5167,4.5194,4.5142,4.5091,4.478,4.4225,4.361,4.3389,4.2625,4.1238,4.1136,4.0764,4.0146,4.0238,4.0362,4.051,4.0631,4.0769,4.0912,4.1071,4.1174,4.115,4.1569,4.1488,4.0875,4.154,4.177,4.1179,4.1835,4.2042,4.1493,4.1464,4.114,4.0327,4.0418,4.0706,4.1226,4.0635,4.0257,4.0474,4.033,4.0203,4.0384,4.0311,4.0238,4.0275,4.0257,3.9895,3.9121,3.8977,3.8582,3.7595,3.7578,3.7542,3.7506,3.7434,3.747,3.7559,3.713,3.6895,3.72,3.6945,3.6651,3.6593,3.6911,3.6961,3.6941,3.7576,3.8136,3.8209,3.8209,3.8064,3.781,3.7393,3.6832,3.6216,3.5522,3.4724,3.4631,3.459,3.4331,3.3913,3.414,3.4573,3.4014,3.3793,3.3739,4.1214,4.2104,4.13,4.1053,4.1265,4.184,4.2474,4.3129,4.3816,4.4315,4.4676,4.4878,4.4642,4.4088,4.3446,4.342,4.3967,4.4092,4.3935,4.3664,4.4119,4.4281,4.4131,4.4155,4.4355,4.4682,4.4765,4.4858,4.4951,4.5015,4.5005,4.4858,4.4803,4.4595,4.4258,4.4169,4.3572,4.253,4.2523,4.2151,4.1399,4.0671,4.0379,4.051,4.0648,4.0769,4.0912,4.1088,4.1209,4.1232,4.1648,4.1743,4.1407,4.1902,4.2041,4.1742,4.2188,4.236,4.2079,4.2142,4.2037,4.1619,4.1636,4.1799,4.2165,4.1854,4.1695,4.1776,4.1035,4.08,4.165,4.1432,4.1106,4.1124,4.1087,4.0706,3.9802,3.9713,3.9514,3.9099,3.8688,3.8438,3.8384,3.799,3.7685,3.7613,3.7345,3.7399,3.7739,3.7593,3.75,3.7479,3.7565,3.7398,3.7196,3.7683,3.8118,3.8209,3.8209,3.8136,3.7593,3.7774,3.7466,3.6526,3.5779,3.5326,3.5331,3.453,3.3982,3.4018,3.3986,3.4174,3.3862,3.3807,3.378,4.1685,4.2678,4.1885,4.1535,4.1611,4.2365,4.304,4.3578,4.4358,4.4934,4.5304,4.5527,4.5561,4.5259,4.4041,4.392,4.4582,4.4725,4.4453,4.3995,4.4456,4.4457,4.406,4.4114,4.4241,4.4497,4.4682,4.4765,4.4803,4.4923,4.4913,4.4765,4.4803,4.4776,4.4682,4.4654,4.4253,4.347,4.3403,4.3047,4.2279,4.1367,4.0873,4.081,4.0686,4.0704,4.0871,4.1111,4.1209,4.1209,4.1587,4.1819,4.1862,4.2016,4.2103,4.2145,4.2325,4.2445,4.2521,4.2528,4.257,4.2589,4.2566,4.2586,4.2686,4.2645,4.2647,4.264,4.1776,4.1704,4.2537,4.2356,4.1993,4.1936,4.1955,4.1556,4.0667,4.0522,4.0414,4.0105,3.9587,3.9337,3.9247,3.8492,3.7793,3.7971,3.7828,3.7703,3.7828,3.7845,3.7898,3.8002,3.7983,3.7783,3.7416,3.7706,3.8121,3.8209,3.8209,3.7919,3.7194,3.7593,3.7774,3.6635,3.6127,3.5851,3.5774,3.4876,3.4415,3.4761,3.4513,3.3899,3.3825,3.3807,3.3807,4.247,4.2666,4.2581,4.2636,4.2887,4.268,4.3494,4.4802,4.4787,4.5219,4.5873,4.575,4.5957,4.6378,4.5324,4.5032,4.5274,4.5385,4.5179,4.4705,4.4738,4.4447,4.3931,4.4056,4.42,4.4439,4.4615,4.4705,4.4776,4.494,4.4978,4.4968,4.4951,4.4896,4.4803,4.4793,4.4319,4.3599,4.3504,4.3098,4.2465,4.2394,4.2099,4.157,4.0903,4.069,4.0888,4.1071,4.1209,4.1209,4.1565,4.1841,4.1966,4.2058,4.2166,4.2267,4.2308,4.2366,4.2483,4.2503,4.2526,4.257,4.2607,4.2589,4.2649,4.2706,4.2725,4.2649,4.2566,4.264,4.2749,4.2714,4.2678,4.2658,4.2753,4.2372,4.1629,4.152,4.1123,4.0486,4.0309,4.0166,4.0148,3.8852,3.8331,3.842,3.8241,3.7846,3.7793,3.7828,3.7916,3.7967,3.7984,3.7965,3.7946,3.7998,3.8069,3.8103,3.8064,3.7883,3.7412,3.7031,3.6959,3.6794,3.6261,3.6002,3.6087,3.6109,3.6083,3.5772,3.4555,3.3954,3.3825,3.3807,3.382,4.2392,4.2754,4.3129,4.3188,4.3054,4.3456,4.3872,4.4217,4.4804,4.5269,4.5676,4.5845,4.6196,4.655,4.6205,4.6024,4.6012,4.6044,4.5826,4.55,4.5881,4.5808,4.5296,4.5307,4.5172,4.5055,4.5091,4.497,4.4688,4.4737,4.4765,4.4748,4.4831,4.4831,4.4803,4.4803,4.4595,4.4319,4.4202,4.4028,4.3718,4.3447,4.2932,4.2219,4.1621,4.1184,4.0912,4.1053,4.1152,4.1209,4.1408,4.167,4.1966,4.2139,4.2228,4.2287,4.2308,4.2308,4.2366,4.2445,4.2503,4.2526,4.257,4.2647,4.2688,4.2688,4.2707,4.2747,4.2707,4.2688,4.2783,4.2783,4.2822,4.2861,4.2824,4.2715,4.2459,4.2291,4.2068,4.1745,4.1427,4.0799,3.9932,3.9085,3.8617,3.8295,3.8061,3.7917,3.7881,3.7916,3.795,3.7933,3.7967,3.8018,3.8086,3.8104,3.8121,3.7993,3.7865,3.75,3.7065,3.6971,3.6914,3.6753,3.6308,3.6412,3.6555,3.6055,3.6263,3.532,3.4156,3.3935,3.3807,3.382,3.3815,4.2392,4.2729,4.3265,4.338,4.3319,4.3906,4.4098,4.4009,4.4778,4.5225,4.552,4.5844,4.6152,4.6439,4.6563,4.6599,4.6583,4.6617,4.6438,4.607,4.6563,4.6445,4.5908,4.5763,4.5745,4.5719,4.582,4.5638,4.5297,4.506,4.4942,4.4987,4.489,4.4776,4.4748,4.482,4.4848,4.4748,4.4682,4.4637,4.4558,4.43,4.3751,4.3019,4.2663,4.1982,4.0927,4.1023,4.1123,4.1209,4.134,4.16,4.1945,4.2139,4.2267,4.2287,4.2308,4.2308,4.2308,4.2387,4.2463,4.2503,4.2568,4.2649,4.2783,4.2727,4.2767,4.2805,4.2765,4.2707,4.2764,4.2783,4.2822,4.288,4.2842,4.2823,4.2823,4.2725,4.2649,4.2488,4.1951,4.1196,4.051,3.995,3.9409,3.8743,3.851,3.8275,3.8023,3.7985,3.8019,3.8003,3.8037,3.8104,3.8154,3.8206,3.8239,3.8145,3.7675,3.7241,3.7043,3.6967,3.6817,3.6656,3.6705,3.6919,3.6747,3.614,3.5407,3.455,3.41,3.3844,3.382,3.3815,3.3842,4.25,4.2703,4.2915,4.326,4.36,4.3895,4.4189,4.4526,4.4783,4.5114,4.5426,4.5682,4.5932,4.6116,4.6404,4.6671,4.683,4.6984,4.6878,4.6536,4.665,4.6386,4.5806,4.5682,4.5862,4.6287,4.657,4.6701,4.6566,4.5923,4.5602,4.5546,4.506,4.4765,4.4643,4.4909,4.4909,4.4726,4.4788,4.4771,4.4654,4.479,4.4517,4.3885,4.3889,4.2971,4.0944,4.1039,4.1169,4.1203,4.137,4.1617,4.21,4.2147,4.2202,4.2356,4.2323,4.2308,4.2308,4.229,4.2366,4.2465,4.2548,4.2649,4.2764,4.2842,4.2862,4.2823,4.2803,4.2821,4.2803,4.2803,4.284,4.2803,4.2861,4.2862,4.2882,4.2882,4.2862,4.2694,4.2189,4.2008,4.2153,4.136,4.0402,4.0059,3.9499,3.885,3.8326,3.8217,3.8143,3.8158,3.8302,3.8445,3.8368,3.8307,3.8338,3.8277,3.766,3.7153,3.7162,3.7105,3.6726,3.6526,3.6285,3.6477,3.6291,3.5733,3.5322,3.4619,3.4229,3.3825,3.382,3.3829,3.3881,4.2433,4.2541,4.2875,4.317,4.3423,4.3675,4.4026,4.4396,4.461,4.4836,4.5114,4.5426,4.5714,4.5916,4.6152,4.6404,4.6703,4.6772,4.6952,4.7243,4.7309,4.7309,4.7191,4.7121,4.711,4.694,4.6334,4.6329,4.6616,4.6092,4.5703,4.5579,4.5111,4.4848,4.4892,4.5446,4.5514,4.4988,4.5341,4.5247,4.4694,4.4858,4.4592,4.3907,4.4052,4.3614,4.2477,4.1891,4.1477,4.1238,4.1754,4.2503,4.3102,4.2601,4.2388,4.2857,4.2531,4.2308,4.2308,4.2308,4.2308,4.2387,4.2546,4.2609,4.2668,4.2823,4.2899,4.288,4.288,4.288,4.2862,4.2862,4.2862,4.288,4.2842,4.2861,4.2882,4.288,4.2841,4.2803,4.2586,4.2371,4.2083,4.1451,4.1162,4.0565,3.9913,3.9244,3.8939,3.8902,3.8612,3.8251,3.8538,3.8824,3.8637,3.8523,3.85,3.8275,3.769,3.7458,3.7428,3.6976,3.6648,3.6373,3.6097,3.5903,3.5729,3.542,3.5064,3.4582,3.4045,3.3857,3.382,3.3855,3.3921,4.2254,4.2433,4.2662,4.2915,4.321,4.3463,4.3793,4.4166,4.4396,4.4648,4.4911,4.5225,4.5515,4.5698,4.5968,4.6243,4.6493,4.6563,4.6929,4.7471,4.7621,4.7704,4.7836,4.8017,4.7846,4.7462,4.7033,4.7085,4.7487,4.6874,4.6397,4.607,4.5462,4.5048,4.5015,4.5678,4.5826,4.5507,4.5776,4.5671,4.519,4.5022,4.4746,4.4326,4.4464,4.413,4.3293,4.2848,4.2427,4.1963,4.2329,4.298,4.352,4.293,4.2797,4.3031,4.2742,4.2412,4.2644,4.2483,4.2465,4.2685,4.2938,4.3059,4.308,4.3219,4.3262,4.2973,4.29,4.2919,4.2919,4.2919,4.2919,4.2919,4.288,4.2861,4.2863,4.2862,4.2823,4.2822,4.2786,4.2571,4.2264,4.2121,4.185,4.1125,4.0618,4.011,3.993,3.9821,3.937,3.9153,3.9461,3.9404,3.8891,3.8758,3.8698,3.8273,3.7758,3.7785,3.7867,3.6968,3.6364,3.6125,3.5866,3.5849,3.5677,3.5292,3.4903,3.438,3.3981,3.3897,3.3887,3.3934,3.4011,4.1966,4.2351,4.2392,4.2648,4.2996,4.3195,4.3581,4.3972,4.422,4.4458,4.4836,4.5129,4.5346,4.5568,4.588,4.6152,4.6314,4.6493,4.6772,4.7132,4.7369,4.7504,4.7637,4.7852,4.7793,4.7682,4.8135,4.8565,4.8546,4.7946,4.753,4.6684,4.5986,4.5433,4.5256,4.5787,4.6236,4.6246,4.6219,4.6118,4.5824,4.5299,4.4988,4.4937,4.502,4.4612,4.381,4.3913,4.3742,4.2905,4.3014,4.3215,4.323,4.3306,4.3379,4.3521,4.2831,4.2962,4.3251,4.3036,4.2894,4.3504,4.3724,4.3847,4.3868,4.3992,4.3821,4.3152,4.3044,4.3009,4.2955,4.29,4.29,4.2919,4.29,4.2882,4.29,4.29,4.288,4.2823,4.2843,4.2845,4.2715,4.2754,4.2485,4.2123,4.1778,4.1252,4.096,4.0724,4.0653,4.0545,4.0382,4.0129,3.9673,3.9143,3.9066,3.8753,3.8198,3.807,3.8061,3.7163,3.6705,3.6425,3.5904,3.5831,3.5724,3.5467,3.5018,3.4522,3.4218,3.4005,3.4094,3.4306,3.4413,4.1897,4.216,4.2366,4.2555,4.2809,4.2996,4.3329,4.3754,4.3988,4.4243,4.4511,4.498,4.522,4.5331,4.5682,4.5988,4.6152,4.6298,4.6493,4.6772,4.7149,4.742,4.7539,4.7453,4.7628,4.794,4.8025,4.8231,4.8717,4.8233,4.7581,4.6786,4.6206,4.5795,4.5879,4.6549,4.6993,4.7129,4.7112,4.6691,4.5914,4.5316,4.5022,4.5005,4.514,4.512,4.4897,4.4813,4.4642,4.4334,4.3956,4.4325,4.4976,4.4445,4.4156,4.4502,4.4196,4.3985,4.4135,4.405,4.4068,4.4268,4.4449,4.4534,4.4552,4.4723,4.4387,4.3792,4.3672,4.3497,4.3005,4.288,4.29,4.2919,4.2919,4.2919,4.2919,4.2919,4.29,4.2881,4.2882,4.2881,4.2881,4.2882,4.2829,4.265,4.2268,4.1869,4.1704,4.1613,4.1541,4.1124,4.0907,4.078,4.0454,3.9834,3.9451,3.9231,3.8786,3.8329,3.812,3.7536,3.752,3.7596,3.6592,3.6259,3.6211,3.6056,3.5437,3.4957,3.5145,3.5259,3.5032,3.5066,3.5123,4.1619,4.1939,4.2049,4.231,4.2581,4.2809,4.313,4.3503,4.3793,4.4065,4.4358,4.4754,4.5055,4.522,4.5515,4.5844,4.606,4.6187,4.6385,4.6668,4.703,4.737,4.7605,4.752,4.7732,4.8127,4.8048,4.8337,4.8683,4.847,4.7973,4.7378,4.6895,4.668,4.6607,4.7347,4.77,4.7573,4.7431,4.6902,4.6021,4.5343,4.5046,4.5049,4.514,4.531,4.5485,4.509,4.4838,4.483,4.4724,4.5,4.5615,4.4858,4.4536,4.4959,4.4392,4.4098,4.4502,4.4581,4.4741,4.4991,4.519,4.5294,4.5358,4.5471,4.5251,4.4509,4.4233,4.3857,4.3422,4.3099,4.2918,4.2919,4.2919,4.2919,4.2919,4.2919,4.2919,4.2919,4.2919,4.2919,4.2919,4.2919,4.2994,4.2995,4.2741,4.2595,4.2539,4.2467,4.2358,4.1977,4.1759,4.1705,4.1414,4.0848,3.9806,3.9515,3.898,3.8578,3.8208,3.7811,3.7811,3.772,3.7073,3.6692,3.6728,3.6693,3.6422,3.62,3.6426,3.6337,3.6017,3.5697,3.5773,4.1254,4.1688,4.1688,4.1951,4.2392,4.2622,4.293,4.3265,4.3596,4.391,4.4243,4.4511,4.4852,4.5235,4.5457,4.5714,4.6076,4.6112,4.6314,4.6647,4.7042,4.7466,4.7605,4.7787,4.7934,4.8163,4.8388,4.8562,4.8721,4.8858,4.8578,4.7966,4.7899,4.7775,4.754,4.803,4.8123,4.7881,4.7528,4.697,4.6161,4.5415,4.5022,4.5076,4.5184,4.5327,4.5399,4.5128,4.4913,4.5019,4.5268,4.544,4.5429,4.4811,4.4696,4.4791,4.4494,4.4321,4.4685,4.5036,4.5147,4.5695,4.5971,4.61,4.6104,4.6259,4.6041,4.5207,4.4668,4.4402,4.3914,4.3371,4.2973,4.2919,4.2919,4.2919,4.2919,4.2901,4.2937,4.2992,4.301,4.2919,4.2919,4.2938,4.2976,4.316,4.2978,4.2995,4.3012,4.303,4.2995,4.2922,4.2813,4.2777,4.2376,4.19,4.0656,3.9721,3.9056,3.8566,3.8297,3.7985,3.7834,3.7647,3.7614,3.7529,3.7399,3.7326,3.7244,3.7026,3.697,3.6891,3.6737,3.643,3.6339,4.1254,4.1688,4.1688,4.1966,4.2392,4.2622,4.285,4.3076,4.3518,4.3832,4.4089,4.4419,4.4814,4.5167,4.5405,4.5641,4.588,4.6024,4.6294,4.6663,4.7421,4.7519,4.7483,4.7621,4.7886,4.8082,4.8373,4.8532,4.8658,4.8827,4.869,4.8171,4.8107,4.8073,4.8311,4.8367,4.8471,4.8408,4.7916,4.7144,4.6244,4.5504,4.5083,4.514,4.5291,4.5353,4.5432,4.5425,4.545,4.5653,4.5891,4.5991,4.5932,4.5846,4.5764,4.5747,4.5816,4.5886,4.6209,4.6161,4.6384,4.6519,4.6555,4.6684,4.6816,4.6926,4.6633,4.6058,4.5884,4.5307,4.4313,4.3389,4.3136,4.3137,4.3121,4.314,4.3104,4.3104,4.332,4.3519,4.3356,4.303,4.2938,4.3012,4.3105,4.3178,4.3251,4.3304,4.3358,4.3429,4.3394,4.3322,4.3267,4.3103,4.2739,4.2116,4.0864,3.9834,3.9166,3.8747,3.8442,3.835,3.8276,3.8368,3.8534,3.8354,3.8066,3.8247,3.8234,3.7868,3.7556,3.77,3.7644,3.7262,3.7084,4.0986,4.1395,4.1493,4.1758,4.2075,4.2418,4.2688,4.289,4.321,4.3621,4.3988,4.4243,4.4587,4.5039,4.5294,4.5478,4.5698,4.5952,4.6223,4.6538,4.702,4.72,4.7331,4.7487,4.7737,4.8033,4.8324,4.8515,4.869,4.8861,4.8846,4.8565,4.8484,4.8715,4.8978,4.8915,4.8637,4.8322,4.8219,4.7561,4.6378,4.5795,4.5279,4.5182,4.5247,4.5327,4.538,4.5511,4.5641,4.5821,4.6055,4.627,4.6189,4.5967,4.5881,4.5947,4.5965,4.6035,4.6129,4.6495,4.6695,4.6819,4.6778,4.6824,4.6939,4.7143,4.7114,4.6723,4.6444,4.5961,4.482,4.4385,4.4041,4.3952,4.3793,4.3813,4.4049,4.3904,4.3577,4.3758,4.365,4.3395,4.3286,4.3214,4.3196,4.3287,4.3304,4.3358,4.341,4.3463,4.3481,4.3446,4.3428,4.33,4.2974,4.2166,4.0887,3.9963,3.9255,3.8966,3.8781,3.877,3.8781,3.8844,3.8865,3.8853,3.8665,3.892,3.8971,3.8646,3.8469,3.865,3.859,3.8213,3.817,4.063,4.0972,4.1255,4.1465,4.1744,4.2172,4.2459,4.2648,4.2915,4.3369,4.3817,4.3934,4.4358,4.4814,4.5129,4.5331,4.562,4.6049,4.6402,4.6653,4.6847,4.716,4.7359,4.7517,4.7637,4.7968,4.834,4.8564,4.8721,4.8909,4.8981,4.9029,4.909,4.9171,4.9419,4.9449,4.9003,4.8253,4.8397,4.8008,4.6777,4.6261,4.5744,4.5223,4.5434,4.5455,4.55,4.564,4.5788,4.5812,4.5914,4.6122,4.6119,4.5774,4.5345,4.5576,4.5688,4.5764,4.5923,4.6253,4.6613,4.6613,4.6708,4.6778,4.687,4.7075,4.7218,4.7075,4.681,4.6232,4.5562,4.5146,4.5184,4.5131,4.4757,4.4887,4.5252,4.4979,4.4599,4.3925,4.3834,4.3561,4.3488,4.3415,4.3396,4.3358,4.3394,4.341,4.348,4.3496,4.3515,4.3515,4.3515,4.2851,4.2468,4.2179,4.0896,3.9998,3.929,3.915,3.9038,3.8954,3.8939,3.9003,3.9022,3.9013,3.8994,3.9045,3.9078,3.9129,3.9105,3.8989,3.9002,3.9058,3.9016,4.0544,4.0773,4.0972,4.1311,4.1688,4.198,4.2257,4.2514,4.2864,4.3155,4.3478,4.3817,4.4205,4.4663,4.5055,4.5405,4.5756,4.6207,4.6727,4.6981,4.7109,4.7323,4.7526,4.7531,4.7554,4.7737,4.8147,4.8483,4.8627,4.8846,4.9001,4.9107,4.9094,4.9246,4.95,4.9555,4.9208,4.8598,4.8729,4.8351,4.7548,4.6801,4.6059,4.5459,4.5858,4.5922,4.569,4.6036,4.6246,4.5874,4.5838,4.5972,4.6172,4.6063,4.6035,4.5996,4.6051,4.6046,4.6188,4.6401,4.659,4.6637,4.6725,4.6778,4.6847,4.7048,4.7227,4.7183,4.6901,4.6447,4.6305,4.5888,4.5495,4.5428,4.5525,4.5494,4.5788,4.5935,4.5935,4.5204,4.4474,4.3798,4.3816,4.3743,4.3613,4.3538,4.3463,4.3515,4.3583,4.36,4.36,4.36,4.36,4.2675,4.1767,4.159,4.0925,4.0003,3.9401,3.929,3.9149,3.9034,3.9021,3.9073,3.9115,3.9078,3.911,3.9156,3.917,3.917,3.9183,3.9197,3.9141,3.9099,3.9059,4.0211,4.0572,4.1111,4.1298,4.1481,4.2048,4.2444,4.2692,4.2728,4.3123,4.3618,4.3826,4.4035,4.4458,4.4852,4.5278,4.5699,4.6055,4.6443,4.6697,4.6825,4.6988,4.737,4.7398,4.7469,4.7654,4.8033,4.842,4.8515,4.8753,4.897,4.9032,4.9032,4.9155,4.9381,4.9471,4.9179,4.8873,4.9091,4.9016,4.831,4.7664,4.6972,4.6217,4.6168,4.6293,4.6228,4.5837,4.623,4.6455,4.6481,4.6357,4.635,4.6512,4.66,4.6309,4.6253,4.6374,4.6429,4.6542,4.6542,4.6684,4.6772,4.6778,4.6847,4.7025,4.7245,4.7295,4.7273,4.7057,4.7099,4.6703,4.6635,4.6628,4.6456,4.6316,4.6394,4.6469,4.6432,4.6357,4.601,4.5278,4.4382,4.4216,4.3904,4.3718,4.3569,4.3582,4.3684,4.3684,4.3684,4.3684,4.3647,4.3,4.2108,4.1778,4.1354,4.0411,3.9756,3.9659,3.9452,3.9392,3.9198,3.9087,3.9115,3.9142,3.9142,3.9156,3.9183,3.9197,3.9256,3.9251,3.9163,3.9101,3.9111,3.9986,4.0324,4.1201,4.1363,4.1312,4.1967,4.2551,4.2805,4.2573,4.2913,4.3801,4.3838,4.3914,4.4274,4.4739,4.5167,4.5478,4.573,4.6059,4.6398,4.6386,4.6468,4.6913,4.7181,4.7504,4.7571,4.7919,4.826,4.8483,4.869,4.8863,4.897,4.9001,4.9063,4.9229,4.9367,4.9056,4.9169,4.9435,4.9505,4.8953,4.8638,4.8031,4.6742,4.6588,4.669,4.6619,4.6444,4.6361,4.6708,4.6855,4.6776,4.641,4.68,4.6835,4.6337,4.6214,4.6343,4.6447,4.6518,4.6566,4.6708,4.6801,4.6801,4.6865,4.7025,4.7267,4.7425,4.7475,4.7482,4.7569,4.7645,4.7671,4.7686,4.7332,4.7046,4.709,4.7111,4.7112,4.7148,4.7239,4.6708,4.5663,4.4268,4.3881,4.4044,4.3894,4.3701,4.3767,4.3802,4.3802,4.3802,4.3656,4.3305,4.2767,4.2414,4.1927,4.1189,4.0648,4.0426,4.0088,3.982,3.9551,3.925,3.9129,3.9156,3.9156,3.917,3.9183,3.921,3.9315,3.9341,3.9272,3.9311,3.9357,4.0018,3.9873,4.0921,4.1411,4.1491,4.1554,4.2008,4.258,4.2449,4.2477,4.3019,4.37,4.3998,4.407,4.4754,4.5257,4.5478,4.573,4.6117,4.6569,4.643,4.6692,4.7342,4.7478,4.7485,4.7554,4.7836,4.8179,4.842,4.8675,4.8863,4.897,4.9001,4.9063,4.9168,4.9229,4.9269,4.9381,4.9598,4.9452,4.8971,4.8833,4.8333,4.7765,4.75,4.7392,4.7147,4.7096,4.709,4.6444,4.6914,4.6825,4.6365,4.6249,4.6319,4.6232,4.6214,4.627,4.6405,4.6495,4.659,4.6708,4.6842,4.6906,4.6929,4.7043,4.7223,4.7302,4.7407,4.7554,4.7657,4.7699,4.7804,4.7909,4.7808,4.7817,4.7917,4.7662,4.7663,4.7627,4.7644,4.7424,4.6764,4.5166,4.3893,4.4111,4.4219,4.4007,4.3849,4.3883,4.3899,4.3883,4.3849,4.3516,4.3317,4.2982,4.2659,4.1976,4.1419,4.1104,4.0837,4.0424,3.977,3.9486,3.9328,3.9202,3.921,3.921,3.9197,3.9256,3.9373,3.9386,3.9386,3.9451,3.954,3.9681,3.955,4.0522,4.0905,4.0977,4.1309,4.1867,4.2281,4.2143,4.258,4.337,4.3853,4.4273,4.4513,4.4856,4.5017,4.5315,4.5552,4.5861,4.6369,4.6363,4.6509,4.685,4.719,4.7385,4.7537,4.7737,4.7984,4.8308,4.8515,4.8753,4.897,4.9001,4.9032,4.9107,4.9168,4.9229,4.9333,4.9466,4.9478,4.9354,4.9246,4.9011,4.8361,4.831,4.8225,4.813,4.7374,4.7517,4.7159,4.7455,4.686,4.6523,4.6572,4.679,4.6301,4.6246,4.6319,4.6495,4.6495,4.6613,4.6754,4.6865,4.6888,4.6911,4.702,4.7178,4.7298,4.7341,4.7472,4.7657,4.7699,4.7806,4.7929,4.7992,4.8131,4.8229,4.8286,4.8177,4.8123,4.8014,4.7701,4.7481,4.6635,4.5231,4.4672,4.4631,4.4327,4.4114,4.3961,4.3961,4.3961,4.3926,4.3818,4.3693,4.3492,4.3474,4.2854,4.1816,4.1553,4.1486,4.1089,4.0378,3.9812,3.9542,3.9434,3.9325,3.9296,3.9283,3.9373,3.9431,3.9444,3.9457,3.9552,3.9626,3.917,3.9253,4.0345,4.0677,4.0604,4.1469,4.2059,4.2409,4.2108,4.2677,4.3566,4.3803,4.4258,4.4886,4.4772,4.4814,4.5145,4.5368,4.5552,4.5807,4.6064,4.6278,4.659,4.6909,4.7335,4.7504,4.7638,4.7902,4.8163,4.8356,4.8578,4.8956,4.8987,4.9018,4.9032,4.9094,4.9168,4.9229,4.9411,4.9526,4.961,4.9732,4.9498,4.9177,4.8959,4.8951,4.9,4.8288,4.8084,4.7631,4.7831,4.7261,4.6463,4.654,4.6709,4.6396,4.6253,4.6319,4.6471,4.6548,4.6643,4.6801,4.6911,4.6911,4.698,4.7002,4.7093,4.7298,4.7363,4.749,4.7636,4.7699,4.7824,4.7929,4.8012,4.8131,4.8248,4.8305,4.8306,4.8252,4.8105,4.796,4.7776,4.7776,4.6905,4.5642,4.5062,4.4668,4.4366,4.4135,4.4212,4.4249,4.4011,4.4069,4.4257,4.4151,4.4096,4.3669,4.2613,4.2109,4.2114,4.1623,4.0894,4.0384,3.9955,3.9637,3.9517,3.9461,3.9399,3.9418,3.9444,3.9469,3.952,3.9614,3.9679,3.8434,3.8786,4.0572,4.1123,4.0855,4.1982,4.2549,4.256,4.251,4.2552,4.2951,4.3107,4.3862,4.4433,4.4709,4.4725,4.4964,4.5315,4.5478,4.5682,4.5992,4.6243,4.649,4.6823,4.7283,4.7586,4.767,4.7853,4.813,4.8293,4.8517,4.8769,4.8894,4.8987,4.9001,4.9032,4.9077,4.9168,4.932,4.95,4.9679,4.9801,4.9866,4.9723,4.9252,4.8894,4.9035,4.8868,4.8501,4.7692,4.7989,4.7769,4.6798,4.6628,4.6622,4.6639,4.633,4.6385,4.6518,4.6566,4.6643,4.6778,4.6911,4.6957,4.7025,4.7133,4.7205,4.7298,4.7425,4.7533,4.7657,4.772,4.7842,4.7988,4.807,4.8149,4.8247,4.8305,4.8306,4.8307,4.8197,4.8015,4.7832,4.7776,4.7606,4.6399,4.5426,4.4994,4.4602,4.4358,4.4562,4.4562,4.4228,4.4323,4.4859,4.4713,4.4159,4.3893,4.3259,4.2943,4.2865,4.2192,4.1297,4.1069,4.0653,4.0165,3.9694,3.96,3.9507,3.9462,3.9457,3.9514,3.957,3.9649,3.9708,3.8349,3.8767,4.0305,4.0663,4.0219,4.0736,4.1185,4.1536,4.1597,4.2123,4.2893,4.3598,4.415,4.4419,4.4747,4.4803,4.4785,4.5129,4.5315,4.5609,4.59,4.6187,4.642,4.6749,4.7225,4.7795,4.7833,4.8083,4.8696,4.8444,4.8453,4.8627,4.8784,4.8925,4.8987,4.9018,4.9032,4.9063,4.9185,4.929,4.953,4.9637,4.9772,4.9913,4.9838,4.9602,4.9675,4.9299,4.8916,4.8625,4.847,4.7962,4.7436,4.7084,4.6987,4.7029,4.666,4.6462,4.6518,4.6566,4.6566,4.6778,4.6911,4.7025,4.707,4.7174,4.729,4.7381,4.7468,4.7593,4.778,4.784,4.7922,4.8048,4.8168,4.8189,4.8247,4.8305,4.8343,4.8344,4.8234,4.8088,4.7905,4.772,4.7496,4.712,4.6168,4.5324,4.4915,4.4618,4.4785,4.4674,4.4302,4.4243,4.4708,4.4448,4.4039,4.3952,4.3811,4.364,4.3357,4.2403,4.1674,4.1538,4.13,4.0774,4.0257,3.9833,3.9627,3.9545,3.9571,3.9638,3.9672,3.9701,3.9735,3.8272,3.8618,3.9853,4.0226,4.0069,4.0763,4.1088,4.1191,4.1509,4.1853,4.2718,4.3707,4.4095,4.4116,4.4509,4.4682,4.4611,4.4867,4.5145,4.5478,4.5807,4.608,4.6314,4.6628,4.714,4.7908,4.7881,4.7967,4.8564,4.846,4.8391,4.842,4.8595,4.8784,4.8987,4.9018,4.9018,4.9018,4.9063,4.9155,4.9381,4.953,4.9637,4.9906,4.9866,4.9953,4.9947,4.9675,4.9406,4.9154,4.8941,4.8601,4.8242,4.7906,4.7636,4.7428,4.7146,4.6674,4.6613,4.6566,4.659,4.6842,4.6934,4.7025,4.7111,4.7196,4.7294,4.7403,4.749,4.7675,4.7899,4.7899,4.7984,4.8108,4.8168,4.8207,4.8267,4.8324,4.8343,4.8363,4.8271,4.8254,4.8255,4.8051,4.7603,4.7432,4.7001,4.6048,4.5212,4.4989,4.4971,4.4729,4.4302,4.4318,4.4408,4.4237,4.4135,4.4185,4.4098,4.4071,4.3633,4.2824,4.2415,4.2444,4.2088,4.137,4.0834,4.0359,3.9959,3.9633,3.9657,3.9686,3.9708,3.9724,3.9792,3.8011,3.8338,3.9163,3.9908,4.0627,4.2651,4.28,4.1865,4.2326,4.2266,4.1989,4.2929,4.3272,4.3352,4.4007,4.4312,4.4311,4.4496,4.4852,4.5204,4.5625,4.5972,4.6243,4.6577,4.702,4.7418,4.7553,4.7753,4.8183,4.8182,4.8164,4.8292,4.8483,4.8704,4.897,4.9018,4.9018,4.9032,4.9107,4.9168,4.932,4.953,4.9666,4.983,4.9935,5.004,4.9982,4.9999,4.9721,4.9417,4.946,4.9168,4.8706,4.7952,4.7691,4.7809,4.7629,4.7278,4.6891,4.6714,4.6731,4.6929,4.698,4.7043,4.7048,4.7165,4.732,4.7446,4.7593,4.7738,4.7879,4.7941,4.8046,4.8128,4.8187,4.8246,4.8305,4.8324,4.8325,4.8401,4.8476,4.8532,4.8587,4.8474,4.786,4.7576,4.7536,4.6847,4.5769,4.5212,4.5119,4.4636,4.4209,4.433,4.4364,4.428,4.4233,4.4314,4.4345,4.4299,4.4313,4.3942,4.3618,4.345,4.2905,4.2248,4.1529,4.0835,4.0509,4.0184,3.9763,3.971,3.972,3.9891,4.011,3.8011,3.8253,3.8926,3.9547,4.0191,4.1301,4.1394,4.0921,4.135,4.1582,4.175,4.2632,4.2909,4.3031,4.3656,4.4093,4.3844,4.4419,4.4739,4.4867,4.5352,4.5792,4.6136,4.6417,4.6945,4.7655,4.7813,4.785,4.8596,4.8233,4.8131,4.826,4.85,4.8784,4.894,4.9018,4.9018,4.9018,4.9063,4.9155,4.9367,4.95,4.9649,4.986,4.9935,5.0011,5.0011,5.008,4.993,4.9756,4.9872,4.9826,4.9395,4.8724,4.8117,4.8161,4.8003,4.7632,4.7382,4.7198,4.6836,4.697,4.702,4.7088,4.7165,4.7236,4.7385,4.7551,4.7696,4.7861,4.7947,4.8067,4.8168,4.8228,4.8286,4.8343,4.8382,4.8325,4.8344,4.8458,4.855,4.8624,4.8715,4.875,4.8282,4.7834,4.7757,4.72,4.6215,4.5454,4.5082,4.4506,4.4132,4.4271,4.4321,4.4255,4.4304,4.4397,4.4463,4.45,4.4532,4.4565,4.4433,4.4052,4.3592,4.3128,4.2401,4.1711,4.1198,4.0791,4.0439,3.9953,3.9766,4.022,4.0806,3.8195,3.8279,3.8972,3.9321,3.9653,4.064,4.088,4.0634,4.0886,4.11,4.1468,4.2407,4.2803,4.2948,4.3422,4.4046,4.3658,4.3979,4.4534,4.4625,4.5055,4.5536,4.5884,4.6223,4.6773,4.7499,4.7694,4.7766,4.8248,4.8101,4.8082,4.826,4.8532,4.8721,4.8877,4.8956,4.9018,4.9018,4.9032,4.9124,4.9307,4.9471,4.9619,4.9801,4.9935,5.0011,5.0011,5.0022,5.0051,5.016,5.0257,5.0369,5.0083,4.9362,4.8592,4.8438,4.7872,4.7782,4.8063,4.7755,4.7504,4.7512,4.7262,4.7151,4.7272,4.732,4.7428,4.7597,4.7798,4.7925,4.799,4.8128,4.8226,4.8286,4.8324,4.8363,4.8382,4.8325,4.8401,4.8513,4.8642,4.8715,4.8787,4.8804,4.8671,4.8316,4.7943,4.7256,4.6548,4.5711,4.4987,4.4429,4.4126,4.4265,4.4345,4.4296,4.4358,4.4482,4.4589,4.4732,4.4685,4.4712,4.4685,4.464,4.4191,4.3719,4.319,4.2607,4.1957,4.15,4.1197,4.0653,4.0,4.0617,4.1552,3.851,3.8345,3.9096,3.9245,3.9249,4.0682,4.1394,4.1459,4.1127,4.1001,4.1086,4.2166,4.265,4.2948,4.323,4.3587,4.3971,4.3782,4.4057,4.4458,4.4814,4.53,4.5667,4.6008,4.6516,4.6853,4.7115,4.7402,4.7687,4.7869,4.7984,4.8163,4.8388,4.8595,4.8801,4.8894,4.8987,4.9018,4.9001,4.9094,4.9277,4.9428,4.956,4.9755,4.9906,4.9964,5.0011,4.9993,5.0063,5.016,5.0302,5.0425,5.0085,4.9223,4.8828,4.838,4.7558,4.8075,4.8889,4.8598,4.8145,4.8,4.7769,4.7447,4.7285,4.7403,4.749,4.7597,4.778,4.7886,4.801,4.811,4.8208,4.8267,4.8305,4.8343,4.8344,4.8382,4.8476,4.8569,4.8697,4.8787,4.8839,4.8873,4.8818,4.848,4.7939,4.7101,4.6357,4.552,4.4851,4.4402,4.4209,4.4326,4.4408,4.4711,4.4828,4.5115,4.4977,4.5025,4.4952,4.4802,4.4764,4.4693,4.4646,4.4291,4.3775,4.3173,4.2541,4.2209,4.2189,4.1659,4.1089,4.176,4.2481,3.843,3.8051,3.8411,3.8884,3.947,4.0568,4.0972,4.078,4.0744,4.0845,4.1043,4.151,4.2237,4.2751,4.2723,4.3228,4.3482,4.3638,4.379,4.4127,4.4534,4.5024,4.5447,4.5812,4.6207,4.6596,4.6943,4.7248,4.7571,4.7721,4.7968,4.8195,4.8292,4.85,4.8707,4.8832,4.8925,4.8987,4.9001,4.9094,4.9199,4.9381,4.956,4.9725,4.9906,4.9982,5.0011,5.0011,5.0022,5.008,5.0092,5.0189,5.0331,4.9114,4.833,4.8781,4.8334,4.8354,4.9643,4.9442,4.8859,4.8703,4.8652,4.8272,4.7853,4.763,4.7753,4.7965,4.8106,4.8286,4.8281,4.8309,4.8298,4.8265,4.8305,4.8325,4.8344,4.8401,4.8495,4.8587,4.8715,4.8804,4.8874,4.889,4.8797,4.8479,4.7955,4.7134,4.622,4.5385,4.4764,4.4333,4.4606,4.48,4.5301,4.566,4.5664,4.5702,4.5426,4.5134,4.4934,4.4808,4.4796,4.4764,4.4672,4.4562,4.4366,4.3796,4.3314,4.3467,4.3428,4.2798,4.2437,4.3016,4.3331,3.8489,3.8233,3.8317,3.8922,3.9814,4.058,4.0761,4.0632,4.0642,4.0773,4.0958,4.154,4.2038,4.2467,4.2673,4.3006,4.3478,4.3337,4.3409,4.3723,4.4228,4.4746,4.5173,4.5557,4.5992,4.6452,4.6964,4.7387,4.7568,4.7803,4.8049,4.8115,4.8195,4.8436,4.8658,4.8784,4.8925,4.8987,4.9032,4.9077,4.9199,4.9381,4.953,4.9696,4.9906,4.9982,5.0011,5.0011,5.0011,4.9993,5.0022,5.016,5.0286,4.9385,4.8653,4.899,4.8784,4.9137,5.0096,5.006,4.9591,4.9448,4.9692,4.9382,4.9018,4.8746,4.8793,4.8876,4.8838,4.8795,4.8662,4.8526,4.8407,4.8284,4.8304,4.8343,4.8363,4.84,4.8495,4.8587,4.8696,4.8804,4.8857,4.8874,4.8816,4.8609,4.8234,4.7578,4.6496,4.5379,4.4789,4.4326,4.4883,4.5402,4.5922,4.6221,4.6059,4.5795,4.5347,4.5092,4.4896,4.4833,4.4833,4.4757,4.4685,4.4589,4.4511,4.4557,4.4314,4.4373,4.4323,4.3925,4.3632,4.3961,4.4133,3.8615,3.8525,3.8655,3.9261,4.0192,4.067,4.0893,4.0869,4.0738,4.0688,4.0886,4.171,4.2196,4.251,4.2664,4.3031,4.3309,4.3223,4.3115,4.3329,4.3918,4.4458,4.4896,4.5284,4.5703,4.6395,4.693,4.7265,4.7535,4.7754,4.7951,4.8017,4.826,4.8452,4.8547,4.8784,4.8925,4.9018,4.9001,4.9063,4.9216,4.935,4.956,4.9696,4.986,5.0011,5.0011,5.0011,5.0011,5.0051,5.0109,5.0217,5.0018,4.9977,4.9509,4.9351,4.927,4.9873,5.0506,5.0655,5.0561,5.0521,5.0719,5.0395,5.0018,4.9541,4.9458,4.9528,4.9488,4.9425,4.931,4.9268,4.9188,4.8886,4.8706,4.8563,4.8362,4.8419,4.8513,4.8624,4.8732,4.8822,4.8875,4.8891,4.8979,4.8775,4.8308,4.7744,4.7122,4.5851,4.5319,4.4886,4.5683,4.6315,4.6173,4.6392,4.6196,4.5892,4.5462,4.5086,4.4934,4.4889,4.487,4.4783,4.4712,4.464,4.4595,4.464,4.468,4.4656,4.4663,4.4814,4.4856,4.4801,4.4715,3.8443,3.8168,3.8944,3.9669,4.0232,4.0517,4.0756,4.0896,4.0606,4.0558,4.0787,4.1213,4.1953,4.271,4.2394,4.279,4.352,4.3063,4.3059,4.3265,4.3699,4.4151,4.461,4.4949,4.541,4.5896,4.6422,4.7063,4.7516,4.7753,4.7836,4.8001,4.8195,4.8356,4.8515,4.8753,4.8894,4.9001,4.9001,4.9032,4.9124,4.9337,4.9547,4.9637,4.9772,4.9964,5.0011,5.0011,5.0011,4.9993,5.0022,4.9883,4.9562,4.9881,4.9965,4.988,5.003,5.0581,5.1005,5.1226,5.109,5.0997,5.1034,5.1012,5.0777,5.0244,5.0033,5.014,5.017,5.0127,4.9937,4.9934,4.9766,4.9393,4.9035,4.8689,4.8343,4.8438,4.8569,4.8661,4.8769,4.8822,4.8856,4.8945,4.9015,4.8714,4.8174,4.7777,4.7743,4.7006,4.671,4.6487,4.7084,4.7451,4.6997,4.6684,4.6582,4.6302,4.5891,4.5464,4.5034,4.5079,4.5142,4.489,4.4751,4.4693,4.4667,4.4685,4.4725,4.4776,4.4808,4.4883,4.4907,4.4891,4.4912,3.8207,3.8181,3.9182,3.9997,4.058,4.0836,4.1005,4.1062,4.0877,4.0723,4.0784,4.1395,4.2065,4.2666,4.2353,4.2348,4.3207,4.277,4.2762,4.3025,4.3423,4.3934,4.4305,4.4685,4.5262,4.5719,4.6365,4.6989,4.7629,4.7703,4.777,4.7935,4.8099,4.8292,4.8515,4.869,4.8863,4.897,4.9018,4.9083,4.9128,4.9337,4.9488,4.9577,4.9772,4.9935,5.0011,5.0011,5.0011,5.0022,5.008,5.0102,5.0008,5.024,5.0462,5.0651,5.084,5.1151,5.1522,5.1619,5.1476,5.1383,5.1421,5.1454,5.1598,5.12,5.1316,5.1402,5.1448,5.1407,5.0341,5.0068,4.9346,4.881,4.8661,4.843,4.8304,4.8363,4.8476,4.8587,4.8661,4.8751,4.8804,4.8891,4.8979,4.9064,4.8485,4.8401,4.8277,4.8078,4.7854,4.7791,4.8186,4.786,4.7072,4.698,4.7085,4.6736,4.6269,4.593,4.5552,4.5508,4.542,4.5035,4.4802,4.4764,4.4751,4.4738,4.4751,4.4789,4.4833,4.4895,4.4919,4.4974,4.4995,3.8037,3.8383,3.9259,4.0224,4.1042,4.1159,4.1283,4.1347,4.1242,4.0898,4.0609,4.1942,4.1891,4.2009,4.2381,4.2252,4.2217,4.2332,4.2488,4.2769,4.313,4.3606,4.4089,4.4511,4.5114,4.5739,4.6385,4.726,4.8081,4.7881,4.7704,4.7836,4.8083,4.8324,4.8515,4.869,4.8863,4.9055,4.9168,4.9297,4.9382,4.9415,4.9488,4.9654,4.9818,4.9964,5.0011,5.0011,5.0011,5.0051,5.012,5.0194,5.0338,5.0509,5.0832,5.1025,5.1233,5.1432,5.1615,5.1665,5.1654,5.168,5.1833,5.1914,5.2006,5.2126,5.2226,5.2307,5.2353,5.1851,5.0768,4.9981,4.9189,4.8489,4.8397,4.8301,4.8304,4.8325,4.8438,4.8531,4.8606,4.8697,4.8768,4.8856,4.8962,4.9066,4.915,4.9214,4.9164,4.8915,4.8668,4.8587,4.8727,4.8176,4.7372,4.7074,4.7217,4.6906,4.6466,4.6242,4.5974,4.559,4.5275,4.5041,4.4865,4.4796,4.4783,4.4789,4.4783,4.4796,4.4846,4.4895,4.4943,4.4986,4.5045,3.8116,3.8512,3.8781,3.9682,4.09,4.0626,4.0804,4.1256,4.0913,4.0617,4.0634,4.1128,4.1543,4.1737,4.144,4.1553,4.2249,4.221,4.2366,4.2688,4.2915,4.3369,4.3817,4.432,4.5046,4.5687,4.6291,4.6982,4.7728,4.7663,4.7934,4.8514,4.8182,4.8389,4.8707,4.8818,4.8914,4.9142,4.9608,4.9873,4.9943,4.9875,4.9582,4.9696,4.9889,4.9964,5.0011,5.0011,5.0011,5.0022,5.012,5.0246,5.0397,5.062,5.0883,5.1123,5.1324,5.1479,5.1556,5.164,5.169,5.169,5.179,5.1889,5.1993,5.2114,5.2203,5.2258,5.2118,5.1556,5.0714,5.0235,4.9534,4.8855,4.8486,4.8411,4.838,4.8419,4.8476,4.8569,4.8661,4.8715,4.8787,4.8875,4.8962,4.9047,4.9131,4.9195,4.9244,4.9308,4.939,4.9327,4.9227,4.8795,4.8119,4.7243,4.7094,4.6859,4.6751,4.6739,4.6333,4.5395,4.5079,4.5205,4.4972,4.4808,4.4796,4.4821,4.4808,4.4821,4.4858,4.4907,4.4962,4.501,4.5068]}]]